<?xml version="1.0" encoding="UTF-8" standalone="no" ?>
<gpx xmlns="http://www.topografix.com/GPX/1/1" xmlns:xsi="http://www.w3.org/2001/XMLSchema-instance" xsi:schemaLocation="http://www.topografix.com/GPX/1/1 http://www.topografix.com/GPX/1/1/gpx.xsd" version="1.1" creator="VisuGPX - https://www.visugpx.com">
  <metadata>
    <name>Boucle Tauxigny</name>
    <desc><![CDATA[Tracé Cheval Evasion]]></desc>
  </metadata>
  <trk>
    <name><![CDATA[Enregistrement - juil. 01, 03:57 PM]]></name>
    <extensions>
      <line xmlns="http://www.topografix.com/GPX/gpx_style/0/2">
        <color>0000FF</color>
        <width>4</width>
      </line>
    </extensions>
    <trkseg>
      <trkpt lat="47.24903" lon="0.83023">
        <ele>84.95</ele>
        <time>2020-07-01T12:52:17Z</time>
      </trkpt>
      <trkpt lat="47.24903" lon="0.83018">
        <ele>85.4</ele>
        <time>2020-07-01T12:52:30Z</time>
      </trkpt>
      <trkpt lat="47.24902" lon="0.83014">
        <ele>85.67</ele>
        <time>2020-07-01T12:52:31Z</time>
      </trkpt>
      <trkpt lat="47.24902" lon="0.83009">
        <ele>86.12</ele>
        <time>2020-07-01T12:52:32Z</time>
      </trkpt>
      <trkpt lat="47.24901" lon="0.83006">
        <ele>86.32</ele>
        <time>2020-07-01T12:52:33Z</time>
      </trkpt>
      <trkpt lat="47.24899" lon="0.83002">
        <ele>86.54</ele>
        <time>2020-07-01T12:52:34Z</time>
      </trkpt>
      <trkpt lat="47.24897" lon="0.82998">
        <ele>86.55</ele>
        <time>2020-07-01T12:52:35Z</time>
      </trkpt>
      <trkpt lat="47.24895" lon="0.82993">
        <ele>86.21</ele>
        <time>2020-07-01T12:52:36Z</time>
      </trkpt>
      <trkpt lat="47.24891" lon="0.82988">
        <ele>85.45</ele>
        <time>2020-07-01T12:52:37Z</time>
      </trkpt>
      <trkpt lat="47.24887" lon="0.82981">
        <ele>84.29</ele>
        <time>2020-07-01T12:52:38Z</time>
      </trkpt>
      <trkpt lat="47.24882" lon="0.82974">
        <ele>82.89</ele>
        <time>2020-07-01T12:52:39Z</time>
      </trkpt>
      <trkpt lat="47.24878" lon="0.82967">
        <ele>82.01</ele>
        <time>2020-07-01T12:52:40Z</time>
      </trkpt>
      <trkpt lat="47.24872" lon="0.82959">
        <ele>80.57</ele>
        <time>2020-07-01T12:52:41Z</time>
      </trkpt>
      <trkpt lat="47.24868" lon="0.82952">
        <ele>79.33</ele>
        <time>2020-07-01T12:52:42Z</time>
      </trkpt>
      <trkpt lat="47.24863" lon="0.82943">
        <ele>77.59</ele>
        <time>2020-07-01T12:52:43Z</time>
      </trkpt>
      <trkpt lat="47.24859" lon="0.82935">
        <ele>77.62</ele>
        <time>2020-07-01T12:52:44Z</time>
      </trkpt>
      <trkpt lat="47.24854" lon="0.82926">
        <ele>78.52</ele>
        <time>2020-07-01T12:52:45Z</time>
      </trkpt>
      <trkpt lat="47.24849" lon="0.82918">
        <ele>79.28</ele>
        <time>2020-07-01T12:52:46Z</time>
      </trkpt>
      <trkpt lat="47.24845" lon="0.82911">
        <ele>80.17</ele>
        <time>2020-07-01T12:52:47Z</time>
      </trkpt>
      <trkpt lat="47.2484" lon="0.82904">
        <ele>80.83</ele>
        <time>2020-07-01T12:52:47Z</time>
      </trkpt>
      <trkpt lat="47.24832" lon="0.82897">
        <ele>80.97</ele>
        <time>2020-07-01T12:52:48Z</time>
      </trkpt>
      <trkpt lat="47.24825" lon="0.82891">
        <ele>80.95</ele>
        <time>2020-07-01T12:52:49Z</time>
      </trkpt>
      <trkpt lat="47.24822" lon="0.82884">
        <ele>81.25</ele>
        <time>2020-07-01T12:52:51Z</time>
      </trkpt>
      <trkpt lat="47.24815" lon="0.82879">
        <ele>81.59</ele>
        <time>2020-07-01T12:52:52Z</time>
      </trkpt>
      <trkpt lat="47.2481" lon="0.82875">
        <ele>81.92</ele>
        <time>2020-07-01T12:52:53Z</time>
      </trkpt>
      <trkpt lat="47.24805" lon="0.82871">
        <ele>82.28</ele>
        <time>2020-07-01T12:52:54Z</time>
      </trkpt>
      <trkpt lat="47.248" lon="0.82867">
        <ele>82.46</ele>
        <time>2020-07-01T12:52:55Z</time>
      </trkpt>
      <trkpt lat="47.24796" lon="0.82862">
        <ele>82.61</ele>
        <time>2020-07-01T12:52:56Z</time>
      </trkpt>
      <trkpt lat="47.24792" lon="0.82856">
        <ele>82.51</ele>
        <time>2020-07-01T12:52:57Z</time>
      </trkpt>
      <trkpt lat="47.24788" lon="0.82849">
        <ele>82.37</ele>
        <time>2020-07-01T12:52:58Z</time>
      </trkpt>
      <trkpt lat="47.24784" lon="0.8284">
        <ele>82.22</ele>
        <time>2020-07-01T12:52:59Z</time>
      </trkpt>
      <trkpt lat="47.24779" lon="0.82831">
        <ele>82.2</ele>
        <time>2020-07-01T12:53:00Z</time>
      </trkpt>
      <trkpt lat="47.24773" lon="0.82822">
        <ele>82.75</ele>
        <time>2020-07-01T12:53:01Z</time>
      </trkpt>
      <trkpt lat="47.24768" lon="0.82813">
        <ele>83.21</ele>
        <time>2020-07-01T12:53:02Z</time>
      </trkpt>
      <trkpt lat="47.24762" lon="0.82805">
        <ele>83.4</ele>
        <time>2020-07-01T12:53:03Z</time>
      </trkpt>
      <trkpt lat="47.24757" lon="0.82798">
        <ele>82.78</ele>
        <time>2020-07-01T12:53:04Z</time>
      </trkpt>
      <trkpt lat="47.24752" lon="0.82791">
        <ele>82.06</ele>
        <time>2020-07-01T12:53:05Z</time>
      </trkpt>
      <trkpt lat="47.24746" lon="0.82784">
        <ele>81.54</ele>
        <time>2020-07-01T12:53:06Z</time>
      </trkpt>
      <trkpt lat="47.24739" lon="0.82776">
        <ele>81.31</ele>
        <time>2020-07-01T12:53:07Z</time>
      </trkpt>
      <trkpt lat="47.24732" lon="0.82768">
        <ele>82.86</ele>
        <time>2020-07-01T12:53:08Z</time>
      </trkpt>
      <trkpt lat="47.24725" lon="0.82759">
        <ele>84.92</ele>
        <time>2020-07-01T12:53:09Z</time>
      </trkpt>
      <trkpt lat="47.24717" lon="0.8275">
        <ele>85.87</ele>
        <time>2020-07-01T12:53:10Z</time>
      </trkpt>
      <trkpt lat="47.2471" lon="0.8274">
        <ele>84.32</ele>
        <time>2020-07-01T12:53:11Z</time>
      </trkpt>
      <trkpt lat="47.24702" lon="0.8273">
        <ele>82.96</ele>
        <time>2020-07-01T12:53:12Z</time>
      </trkpt>
      <trkpt lat="47.24694" lon="0.8272">
        <ele>82.36</ele>
        <time>2020-07-01T12:53:13Z</time>
      </trkpt>
      <trkpt lat="47.24685" lon="0.8271">
        <ele>84.18</ele>
        <time>2020-07-01T12:53:14Z</time>
      </trkpt>
      <trkpt lat="47.24677" lon="0.82701">
        <ele>85.02</ele>
        <time>2020-07-01T12:53:15Z</time>
      </trkpt>
      <trkpt lat="47.24668" lon="0.82692">
        <ele>85.15</ele>
        <time>2020-07-01T12:53:16Z</time>
      </trkpt>
      <trkpt lat="47.24659" lon="0.82682">
        <ele>86.58</ele>
        <time>2020-07-01T12:53:17Z</time>
      </trkpt>
      <trkpt lat="47.24649" lon="0.82674">
        <ele>87.98</ele>
        <time>2020-07-01T12:53:18Z</time>
      </trkpt>
      <trkpt lat="47.24639" lon="0.82666">
        <ele>89.01</ele>
        <time>2020-07-01T12:53:19Z</time>
      </trkpt>
      <trkpt lat="47.24628" lon="0.8266">
        <ele>86.89</ele>
        <time>2020-07-01T12:53:20Z</time>
      </trkpt>
      <trkpt lat="47.24617" lon="0.82654">
        <ele>84.73</ele>
        <time>2020-07-01T12:53:21Z</time>
      </trkpt>
      <trkpt lat="47.24605" lon="0.8265">
        <ele>82.9</ele>
        <time>2020-07-01T12:53:22Z</time>
      </trkpt>
      <trkpt lat="47.24593" lon="0.82646">
        <ele>81.94</ele>
        <time>2020-07-01T12:53:23Z</time>
      </trkpt>
      <trkpt lat="47.24581" lon="0.82643">
        <ele>81.24</ele>
        <time>2020-07-01T12:53:24Z</time>
      </trkpt>
      <trkpt lat="47.24569" lon="0.8264">
        <ele>80.81</ele>
        <time>2020-07-01T12:53:25Z</time>
      </trkpt>
      <trkpt lat="47.24557" lon="0.82637">
        <ele>80.43</ele>
        <time>2020-07-01T12:53:26Z</time>
      </trkpt>
      <trkpt lat="47.24545" lon="0.82635">
        <ele>83.91</ele>
        <time>2020-07-01T12:53:27Z</time>
      </trkpt>
      <trkpt lat="47.24532" lon="0.82634">
        <ele>87.92</ele>
        <time>2020-07-01T12:53:28Z</time>
      </trkpt>
      <trkpt lat="47.24519" lon="0.82634">
        <ele>89.01</ele>
        <time>2020-07-01T12:53:29Z</time>
      </trkpt>
      <trkpt lat="47.24506" lon="0.82634">
        <ele>88.76</ele>
        <time>2020-07-01T12:53:30Z</time>
      </trkpt>
      <trkpt lat="47.24494" lon="0.82635">
        <ele>87.17</ele>
        <time>2020-07-01T12:53:31Z</time>
      </trkpt>
      <trkpt lat="47.24481" lon="0.82637">
        <ele>83.67</ele>
        <time>2020-07-01T12:53:32Z</time>
      </trkpt>
      <trkpt lat="47.24469" lon="0.8264">
        <ele>82.01</ele>
        <time>2020-07-01T12:53:33Z</time>
      </trkpt>
      <trkpt lat="47.24458" lon="0.82645">
        <ele>85.75</ele>
        <time>2020-07-01T12:53:34Z</time>
      </trkpt>
      <trkpt lat="47.24446" lon="0.82651">
        <ele>89.69</ele>
        <time>2020-07-01T12:53:35Z</time>
      </trkpt>
      <trkpt lat="47.24434" lon="0.82658">
        <ele>88.1</ele>
        <time>2020-07-01T12:53:36Z</time>
      </trkpt>
      <trkpt lat="47.24423" lon="0.82666">
        <ele>84.16</ele>
        <time>2020-07-01T12:53:37Z</time>
      </trkpt>
      <trkpt lat="47.24412" lon="0.82675">
        <ele>82.37</ele>
        <time>2020-07-01T12:53:38Z</time>
      </trkpt>
      <trkpt lat="47.24402" lon="0.82685">
        <ele>80.77</ele>
        <time>2020-07-01T12:53:39Z</time>
      </trkpt>
      <trkpt lat="47.24393" lon="0.82696">
        <ele>77.65</ele>
        <time>2020-07-01T12:53:40Z</time>
      </trkpt>
      <trkpt lat="47.24383" lon="0.82707">
        <ele>77.31</ele>
        <time>2020-07-01T12:53:41Z</time>
      </trkpt>
      <trkpt lat="47.24374" lon="0.82717">
        <ele>78.47</ele>
        <time>2020-07-01T12:53:42Z</time>
      </trkpt>
      <trkpt lat="47.24365" lon="0.82725">
        <ele>78.68</ele>
        <time>2020-07-01T12:53:43Z</time>
      </trkpt>
      <trkpt lat="47.24357" lon="0.8273">
        <ele>78.69</ele>
        <time>2020-07-01T12:53:44Z</time>
      </trkpt>
      <trkpt lat="47.24348" lon="0.82732">
        <ele>78.58</ele>
        <time>2020-07-01T12:53:45Z</time>
      </trkpt>
      <trkpt lat="47.24338" lon="0.82732">
        <ele>78.22</ele>
        <time>2020-07-01T12:53:46Z</time>
      </trkpt>
      <trkpt lat="47.24329" lon="0.82732">
        <ele>78.06</ele>
        <time>2020-07-01T12:53:47Z</time>
      </trkpt>
      <trkpt lat="47.2432" lon="0.82731">
        <ele>77.95</ele>
        <time>2020-07-01T12:53:48Z</time>
      </trkpt>
      <trkpt lat="47.2431" lon="0.8273">
        <ele>77.84</ele>
        <time>2020-07-01T12:53:49Z</time>
      </trkpt>
      <trkpt lat="47.243" lon="0.8273">
        <ele>78.18</ele>
        <time>2020-07-01T12:53:50Z</time>
      </trkpt>
      <trkpt lat="47.2429" lon="0.8273">
        <ele>78.8</ele>
        <time>2020-07-01T12:53:51Z</time>
      </trkpt>
      <trkpt lat="47.2428" lon="0.82731">
        <ele>79.5</ele>
        <time>2020-07-01T12:53:52Z</time>
      </trkpt>
      <trkpt lat="47.24272" lon="0.82734">
        <ele>79.76</ele>
        <time>2020-07-01T12:53:53Z</time>
      </trkpt>
      <trkpt lat="47.24263" lon="0.82737">
        <ele>79.78</ele>
        <time>2020-07-01T12:53:54Z</time>
      </trkpt>
      <trkpt lat="47.24255" lon="0.82741">
        <ele>79.8</ele>
        <time>2020-07-01T12:53:55Z</time>
      </trkpt>
      <trkpt lat="47.24247" lon="0.82746">
        <ele>79.7</ele>
        <time>2020-07-01T12:53:56Z</time>
      </trkpt>
      <trkpt lat="47.2424" lon="0.82751">
        <ele>79.34</ele>
        <time>2020-07-01T12:53:57Z</time>
      </trkpt>
      <trkpt lat="47.24232" lon="0.82756">
        <ele>79</ele>
        <time>2020-07-01T12:53:58Z</time>
      </trkpt>
      <trkpt lat="47.24226" lon="0.82763">
        <ele>78.8</ele>
        <time>2020-07-01T12:53:59Z</time>
      </trkpt>
      <trkpt lat="47.24219" lon="0.8277">
        <ele>78.87</ele>
        <time>2020-07-01T12:54:00Z</time>
      </trkpt>
      <trkpt lat="47.24213" lon="0.82778">
        <ele>79.33</ele>
        <time>2020-07-01T12:54:01Z</time>
      </trkpt>
      <trkpt lat="47.24207" lon="0.82786">
        <ele>79.55</ele>
        <time>2020-07-01T12:54:02Z</time>
      </trkpt>
      <trkpt lat="47.24201" lon="0.82793">
        <ele>79.76</ele>
        <time>2020-07-01T12:54:03Z</time>
      </trkpt>
      <trkpt lat="47.24197" lon="0.82799">
        <ele>79.91</ele>
        <time>2020-07-01T12:54:04Z</time>
      </trkpt>
      <trkpt lat="47.24194" lon="0.82805">
        <ele>80</ele>
        <time>2020-07-01T12:54:05Z</time>
      </trkpt>
      <trkpt lat="47.24191" lon="0.82809">
        <ele>79.78</ele>
        <time>2020-07-01T12:54:06Z</time>
      </trkpt>
      <trkpt lat="47.24189" lon="0.82813">
        <ele>79.57</ele>
        <time>2020-07-01T12:54:07Z</time>
      </trkpt>
      <trkpt lat="47.24186" lon="0.82816">
        <ele>79.48</ele>
        <time>2020-07-01T12:54:09Z</time>
      </trkpt>
      <trkpt lat="47.24185" lon="0.82822">
        <ele>79.22</ele>
        <time>2020-07-01T12:54:52Z</time>
      </trkpt>
      <trkpt lat="47.24187" lon="0.82817">
        <ele>79.4</ele>
        <time>2020-07-01T13:14:03Z</time>
      </trkpt>
      <trkpt lat="47.24186" lon="0.82821">
        <ele>79.23</ele>
        <time>2020-07-01T13:14:22Z</time>
      </trkpt>
      <trkpt lat="47.24179" lon="0.82821">
        <ele>79.51</ele>
        <time>2020-07-01T13:14:23Z</time>
      </trkpt>
      <trkpt lat="47.24174" lon="0.82819">
        <ele>79.74</ele>
        <time>2020-07-01T13:14:25Z</time>
      </trkpt>
      <trkpt lat="47.2417" lon="0.82816">
        <ele>79.91</ele>
        <time>2020-07-01T13:14:26Z</time>
      </trkpt>
      <trkpt lat="47.24166" lon="0.82812">
        <ele>79.86</ele>
        <time>2020-07-01T13:14:28Z</time>
      </trkpt>
      <trkpt lat="47.2415" lon="0.82805">
        <ele>76.42</ele>
        <time>2020-07-01T13:14:28Z</time>
      </trkpt>
      <trkpt lat="47.24143" lon="0.82802">
        <ele>75.02</ele>
        <time>2020-07-01T13:14:30Z</time>
      </trkpt>
      <trkpt lat="47.24135" lon="0.82801">
        <ele>73.6</ele>
        <time>2020-07-01T13:14:31Z</time>
      </trkpt>
      <trkpt lat="47.24128" lon="0.82801">
        <ele>72.6</ele>
        <time>2020-07-01T13:14:32Z</time>
      </trkpt>
      <trkpt lat="47.24121" lon="0.82801">
        <ele>71.59</ele>
        <time>2020-07-01T13:14:33Z</time>
      </trkpt>
      <trkpt lat="47.24114" lon="0.82805">
        <ele>70.44</ele>
        <time>2020-07-01T13:14:34Z</time>
      </trkpt>
      <trkpt lat="47.24106" lon="0.82812">
        <ele>70.57</ele>
        <time>2020-07-01T13:14:35Z</time>
      </trkpt>
      <trkpt lat="47.24099" lon="0.82821">
        <ele>70.94</ele>
        <time>2020-07-01T13:14:36Z</time>
      </trkpt>
      <trkpt lat="47.24091" lon="0.82828">
        <ele>70.67</ele>
        <time>2020-07-01T13:14:37Z</time>
      </trkpt>
      <trkpt lat="47.24083" lon="0.82836">
        <ele>70.31</ele>
        <time>2020-07-01T13:14:38Z</time>
      </trkpt>
      <trkpt lat="47.24075" lon="0.82844">
        <ele>69.74</ele>
        <time>2020-07-01T13:14:39Z</time>
      </trkpt>
      <trkpt lat="47.24066" lon="0.82853">
        <ele>69.09</ele>
        <time>2020-07-01T13:14:40Z</time>
      </trkpt>
      <trkpt lat="47.24059" lon="0.82863">
        <ele>69.15</ele>
        <time>2020-07-01T13:14:41Z</time>
      </trkpt>
      <trkpt lat="47.24052" lon="0.82874">
        <ele>69.7</ele>
        <time>2020-07-01T13:14:42Z</time>
      </trkpt>
      <trkpt lat="47.24045" lon="0.82885">
        <ele>69.79</ele>
        <time>2020-07-01T13:14:43Z</time>
      </trkpt>
      <trkpt lat="47.24039" lon="0.82895">
        <ele>69.21</ele>
        <time>2020-07-01T13:14:44Z</time>
      </trkpt>
      <trkpt lat="47.24032" lon="0.82907">
        <ele>68.22</ele>
        <time>2020-07-01T13:14:45Z</time>
      </trkpt>
      <trkpt lat="47.24025" lon="0.82918">
        <ele>67.36</ele>
        <time>2020-07-01T13:14:46Z</time>
      </trkpt>
      <trkpt lat="47.24018" lon="0.82929">
        <ele>66.29</ele>
        <time>2020-07-01T13:14:47Z</time>
      </trkpt>
      <trkpt lat="47.2401" lon="0.82941">
        <ele>65.52</ele>
        <time>2020-07-01T13:14:48Z</time>
      </trkpt>
      <trkpt lat="47.24002" lon="0.82954">
        <ele>64.68</ele>
        <time>2020-07-01T13:14:49Z</time>
      </trkpt>
      <trkpt lat="47.23994" lon="0.82966">
        <ele>63.96</ele>
        <time>2020-07-01T13:14:50Z</time>
      </trkpt>
      <trkpt lat="47.23987" lon="0.82978">
        <ele>63.13</ele>
        <time>2020-07-01T13:14:51Z</time>
      </trkpt>
      <trkpt lat="47.23983" lon="0.8299">
        <ele>62.55</ele>
        <time>2020-07-01T13:14:52Z</time>
      </trkpt>
      <trkpt lat="47.23979" lon="0.83003">
        <ele>61.81</ele>
        <time>2020-07-01T13:14:53Z</time>
      </trkpt>
      <trkpt lat="47.23977" lon="0.83015">
        <ele>60.79</ele>
        <time>2020-07-01T13:14:54Z</time>
      </trkpt>
      <trkpt lat="47.23975" lon="0.83028">
        <ele>59.58</ele>
        <time>2020-07-01T13:14:55Z</time>
      </trkpt>
      <trkpt lat="47.23973" lon="0.8304">
        <ele>57.87</ele>
        <time>2020-07-01T13:14:56Z</time>
      </trkpt>
      <trkpt lat="47.23969" lon="0.83051">
        <ele>56.28</ele>
        <time>2020-07-01T13:14:57Z</time>
      </trkpt>
      <trkpt lat="47.23963" lon="0.83062">
        <ele>56.03</ele>
        <time>2020-07-01T13:14:58Z</time>
      </trkpt>
      <trkpt lat="47.23956" lon="0.83072">
        <ele>56.61</ele>
        <time>2020-07-01T13:14:59Z</time>
      </trkpt>
      <trkpt lat="47.23949" lon="0.83082">
        <ele>57.18</ele>
        <time>2020-07-01T13:15:00Z</time>
      </trkpt>
      <trkpt lat="47.23942" lon="0.83092">
        <ele>57.56</ele>
        <time>2020-07-01T13:15:01Z</time>
      </trkpt>
      <trkpt lat="47.23935" lon="0.83102">
        <ele>57.43</ele>
        <time>2020-07-01T13:15:02Z</time>
      </trkpt>
      <trkpt lat="47.23929" lon="0.83111">
        <ele>57.21</ele>
        <time>2020-07-01T13:15:03Z</time>
      </trkpt>
      <trkpt lat="47.23921" lon="0.83119">
        <ele>57.44</ele>
        <time>2020-07-01T13:15:04Z</time>
      </trkpt>
      <trkpt lat="47.23912" lon="0.83126">
        <ele>58.45</ele>
        <time>2020-07-01T13:15:05Z</time>
      </trkpt>
      <trkpt lat="47.23903" lon="0.83132">
        <ele>59.88</ele>
        <time>2020-07-01T13:15:06Z</time>
      </trkpt>
      <trkpt lat="47.23895" lon="0.83134">
        <ele>60.36</ele>
        <time>2020-07-01T13:15:07Z</time>
      </trkpt>
      <trkpt lat="47.23889" lon="0.83135">
        <ele>60.58</ele>
        <time>2020-07-01T13:15:08Z</time>
      </trkpt>
      <trkpt lat="47.23884" lon="0.83135">
        <ele>60.28</ele>
        <time>2020-07-01T13:15:09Z</time>
      </trkpt>
      <trkpt lat="47.2388" lon="0.83133">
        <ele>59.86</ele>
        <time>2020-07-01T13:15:10Z</time>
      </trkpt>
      <trkpt lat="47.23875" lon="0.83126">
        <ele>59.07</ele>
        <time>2020-07-01T13:15:11Z</time>
      </trkpt>
      <trkpt lat="47.2387" lon="0.83115">
        <ele>58.23</ele>
        <time>2020-07-01T13:15:12Z</time>
      </trkpt>
      <trkpt lat="47.23866" lon="0.83104">
        <ele>57.94</ele>
        <time>2020-07-01T13:15:13Z</time>
      </trkpt>
      <trkpt lat="47.23863" lon="0.83093">
        <ele>58.34</ele>
        <time>2020-07-01T13:15:14Z</time>
      </trkpt>
      <trkpt lat="47.2386" lon="0.83082">
        <ele>58.96</ele>
        <time>2020-07-01T13:15:15Z</time>
      </trkpt>
      <trkpt lat="47.23857" lon="0.83072">
        <ele>58.91</ele>
        <time>2020-07-01T13:15:16Z</time>
      </trkpt>
      <trkpt lat="47.23854" lon="0.83063">
        <ele>58.93</ele>
        <time>2020-07-01T13:15:17Z</time>
      </trkpt>
      <trkpt lat="47.23851" lon="0.83052">
        <ele>59.13</ele>
        <time>2020-07-01T13:15:18Z</time>
      </trkpt>
      <trkpt lat="47.23847" lon="0.83042">
        <ele>59.49</ele>
        <time>2020-07-01T13:15:19Z</time>
      </trkpt>
      <trkpt lat="47.23843" lon="0.83031">
        <ele>59.88</ele>
        <time>2020-07-01T13:15:20Z</time>
      </trkpt>
      <trkpt lat="47.23838" lon="0.83021">
        <ele>59.06</ele>
        <time>2020-07-01T13:15:21Z</time>
      </trkpt>
      <trkpt lat="47.23833" lon="0.83011">
        <ele>57.56</ele>
        <time>2020-07-01T13:15:22Z</time>
      </trkpt>
      <trkpt lat="47.23826" lon="0.83003">
        <ele>56.26</ele>
        <time>2020-07-01T13:15:23Z</time>
      </trkpt>
      <trkpt lat="47.23817" lon="0.82995">
        <ele>55.7</ele>
        <time>2020-07-01T13:15:24Z</time>
      </trkpt>
      <trkpt lat="47.23808" lon="0.82987">
        <ele>55.84</ele>
        <time>2020-07-01T13:15:25Z</time>
      </trkpt>
      <trkpt lat="47.23798" lon="0.82979">
        <ele>55.52</ele>
        <time>2020-07-01T13:15:26Z</time>
      </trkpt>
      <trkpt lat="47.23789" lon="0.82971">
        <ele>54.8</ele>
        <time>2020-07-01T13:15:27Z</time>
      </trkpt>
      <trkpt lat="47.2378" lon="0.82961">
        <ele>53.82</ele>
        <time>2020-07-01T13:15:28Z</time>
      </trkpt>
      <trkpt lat="47.2377" lon="0.82952">
        <ele>55.49</ele>
        <time>2020-07-01T13:15:29Z</time>
      </trkpt>
      <trkpt lat="47.23761" lon="0.82943">
        <ele>58.69</ele>
        <time>2020-07-01T13:15:30Z</time>
      </trkpt>
      <trkpt lat="47.2375" lon="0.82934">
        <ele>64.26</ele>
        <time>2020-07-01T13:15:31Z</time>
      </trkpt>
      <trkpt lat="47.2374" lon="0.82925">
        <ele>70.12</ele>
        <time>2020-07-01T13:15:32Z</time>
      </trkpt>
      <trkpt lat="47.23729" lon="0.82916">
        <ele>75.48</ele>
        <time>2020-07-01T13:15:33Z</time>
      </trkpt>
      <trkpt lat="47.23719" lon="0.82907">
        <ele>77.41</ele>
        <time>2020-07-01T13:15:34Z</time>
      </trkpt>
      <trkpt lat="47.23709" lon="0.82898">
        <ele>76.92</ele>
        <time>2020-07-01T13:15:35Z</time>
      </trkpt>
      <trkpt lat="47.23698" lon="0.82889">
        <ele>75.03</ele>
        <time>2020-07-01T13:15:36Z</time>
      </trkpt>
      <trkpt lat="47.23688" lon="0.82879">
        <ele>73.73</ele>
        <time>2020-07-01T13:15:37Z</time>
      </trkpt>
      <trkpt lat="47.23678" lon="0.82869">
        <ele>73.62</ele>
        <time>2020-07-01T13:15:38Z</time>
      </trkpt>
      <trkpt lat="47.23669" lon="0.82858">
        <ele>74.86</ele>
        <time>2020-07-01T13:15:39Z</time>
      </trkpt>
      <trkpt lat="47.2366" lon="0.82847">
        <ele>74.78</ele>
        <time>2020-07-01T13:15:40Z</time>
      </trkpt>
      <trkpt lat="47.23651" lon="0.82835">
        <ele>73.26</ele>
        <time>2020-07-01T13:15:41Z</time>
      </trkpt>
      <trkpt lat="47.23643" lon="0.82823">
        <ele>72.43</ele>
        <time>2020-07-01T13:15:42Z</time>
      </trkpt>
      <trkpt lat="47.23636" lon="0.8281">
        <ele>72.46</ele>
        <time>2020-07-01T13:15:43Z</time>
      </trkpt>
      <trkpt lat="47.23629" lon="0.82796">
        <ele>73.1</ele>
        <time>2020-07-01T13:15:44Z</time>
      </trkpt>
      <trkpt lat="47.23623" lon="0.82781">
        <ele>74.13</ele>
        <time>2020-07-01T13:15:45Z</time>
      </trkpt>
      <trkpt lat="47.23618" lon="0.82765">
        <ele>75.05</ele>
        <time>2020-07-01T13:15:46Z</time>
      </trkpt>
      <trkpt lat="47.23614" lon="0.82749">
        <ele>75.89</ele>
        <time>2020-07-01T13:15:47Z</time>
      </trkpt>
      <trkpt lat="47.2361" lon="0.82733">
        <ele>74.18</ele>
        <time>2020-07-01T13:15:48Z</time>
      </trkpt>
      <trkpt lat="47.23606" lon="0.82717">
        <ele>73.03</ele>
        <time>2020-07-01T13:15:49Z</time>
      </trkpt>
      <trkpt lat="47.23602" lon="0.827">
        <ele>72.32</ele>
        <time>2020-07-01T13:15:50Z</time>
      </trkpt>
      <trkpt lat="47.23599" lon="0.82684">
        <ele>71.93</ele>
        <time>2020-07-01T13:15:51Z</time>
      </trkpt>
      <trkpt lat="47.23594" lon="0.82668">
        <ele>71.9</ele>
        <time>2020-07-01T13:15:52Z</time>
      </trkpt>
      <trkpt lat="47.2359" lon="0.82651">
        <ele>73.14</ele>
        <time>2020-07-01T13:15:53Z</time>
      </trkpt>
      <trkpt lat="47.23585" lon="0.82635">
        <ele>74.83</ele>
        <time>2020-07-01T13:15:54Z</time>
      </trkpt>
      <trkpt lat="47.23581" lon="0.82619">
        <ele>75.56</ele>
        <time>2020-07-01T13:15:55Z</time>
      </trkpt>
      <trkpt lat="47.23575" lon="0.82602">
        <ele>74.08</ele>
        <time>2020-07-01T13:15:56Z</time>
      </trkpt>
      <trkpt lat="47.23569" lon="0.82587">
        <ele>72.32</ele>
        <time>2020-07-01T13:15:57Z</time>
      </trkpt>
      <trkpt lat="47.23563" lon="0.82571">
        <ele>71.56</ele>
        <time>2020-07-01T13:15:58Z</time>
      </trkpt>
      <trkpt lat="47.23556" lon="0.82556">
        <ele>71.02</ele>
        <time>2020-07-01T13:15:59Z</time>
      </trkpt>
      <trkpt lat="47.23549" lon="0.82542">
        <ele>71.15</ele>
        <time>2020-07-01T13:16:00Z</time>
      </trkpt>
      <trkpt lat="47.23541" lon="0.82529">
        <ele>71.32</ele>
        <time>2020-07-01T13:16:01Z</time>
      </trkpt>
      <trkpt lat="47.23532" lon="0.82517">
        <ele>72.16</ele>
        <time>2020-07-01T13:16:02Z</time>
      </trkpt>
      <trkpt lat="47.23522" lon="0.82506">
        <ele>74.96</ele>
        <time>2020-07-01T13:16:03Z</time>
      </trkpt>
      <trkpt lat="47.23511" lon="0.82496">
        <ele>77.99</ele>
        <time>2020-07-01T13:16:04Z</time>
      </trkpt>
      <trkpt lat="47.23502" lon="0.82487">
        <ele>79.24</ele>
        <time>2020-07-01T13:16:05Z</time>
      </trkpt>
      <trkpt lat="47.23494" lon="0.82478">
        <ele>79.25</ele>
        <time>2020-07-01T13:16:06Z</time>
      </trkpt>
      <trkpt lat="47.23487" lon="0.8247">
        <ele>78.56</ele>
        <time>2020-07-01T13:16:07Z</time>
      </trkpt>
      <trkpt lat="47.23482" lon="0.82462">
        <ele>76.92</ele>
        <time>2020-07-01T13:16:08Z</time>
      </trkpt>
      <trkpt lat="47.23478" lon="0.82455">
        <ele>75.41</ele>
        <time>2020-07-01T13:16:09Z</time>
      </trkpt>
      <trkpt lat="47.23475" lon="0.82448">
        <ele>73.86</ele>
        <time>2020-07-01T13:16:10Z</time>
      </trkpt>
      <trkpt lat="47.23473" lon="0.82442">
        <ele>72.84</ele>
        <time>2020-07-01T13:16:11Z</time>
      </trkpt>
      <trkpt lat="47.23471" lon="0.82436">
        <ele>72.27</ele>
        <time>2020-07-01T13:16:12Z</time>
      </trkpt>
      <trkpt lat="47.23469" lon="0.82428">
        <ele>71.54</ele>
        <time>2020-07-01T13:16:13Z</time>
      </trkpt>
      <trkpt lat="47.23467" lon="0.82422">
        <ele>70.97</ele>
        <time>2020-07-01T13:16:14Z</time>
      </trkpt>
      <trkpt lat="47.23466" lon="0.82418">
        <ele>70.64</ele>
        <time>2020-07-01T13:16:14Z</time>
      </trkpt>
      <trkpt lat="47.23464" lon="0.82414">
        <ele>70.28</ele>
        <time>2020-07-01T13:16:16Z</time>
      </trkpt>
      <trkpt lat="47.23463" lon="0.82411">
        <ele>70.06</ele>
        <time>2020-07-01T13:16:34Z</time>
      </trkpt>
      <trkpt lat="47.23461" lon="0.82405">
        <ele>69.6</ele>
        <time>2020-07-01T13:16:36Z</time>
      </trkpt>
      <trkpt lat="47.23458" lon="0.824">
        <ele>69.07</ele>
        <time>2020-07-01T13:16:37Z</time>
      </trkpt>
      <trkpt lat="47.23455" lon="0.82395">
        <ele>68.5</ele>
        <time>2020-07-01T13:16:38Z</time>
      </trkpt>
      <trkpt lat="47.23452" lon="0.8239">
        <ele>67.89</ele>
        <time>2020-07-01T13:16:39Z</time>
      </trkpt>
      <trkpt lat="47.23449" lon="0.82384">
        <ele>67.82</ele>
        <time>2020-07-01T13:16:40Z</time>
      </trkpt>
      <trkpt lat="47.23446" lon="0.82378">
        <ele>67.93</ele>
        <time>2020-07-01T13:16:41Z</time>
      </trkpt>
      <trkpt lat="47.23443" lon="0.82372">
        <ele>68.39</ele>
        <time>2020-07-01T13:16:42Z</time>
      </trkpt>
      <trkpt lat="47.2344" lon="0.82364">
        <ele>69.29</ele>
        <time>2020-07-01T13:16:43Z</time>
      </trkpt>
      <trkpt lat="47.23437" lon="0.82357">
        <ele>70.43</ele>
        <time>2020-07-01T13:16:44Z</time>
      </trkpt>
      <trkpt lat="47.23433" lon="0.82349">
        <ele>71.88</ele>
        <time>2020-07-01T13:16:45Z</time>
      </trkpt>
      <trkpt lat="47.2343" lon="0.82342">
        <ele>72.93</ele>
        <time>2020-07-01T13:16:46Z</time>
      </trkpt>
      <trkpt lat="47.23427" lon="0.82334">
        <ele>73.93</ele>
        <time>2020-07-01T13:16:47Z</time>
      </trkpt>
      <trkpt lat="47.23424" lon="0.82327">
        <ele>74.8</ele>
        <time>2020-07-01T13:16:48Z</time>
      </trkpt>
      <trkpt lat="47.23422" lon="0.82319">
        <ele>75.75</ele>
        <time>2020-07-01T13:16:49Z</time>
      </trkpt>
      <trkpt lat="47.23419" lon="0.82311">
        <ele>76.55</ele>
        <time>2020-07-01T13:16:50Z</time>
      </trkpt>
      <trkpt lat="47.23416" lon="0.82302">
        <ele>76.93</ele>
        <time>2020-07-01T13:16:51Z</time>
      </trkpt>
      <trkpt lat="47.23413" lon="0.82293">
        <ele>76.6</ele>
        <time>2020-07-01T13:16:52Z</time>
      </trkpt>
      <trkpt lat="47.2341" lon="0.82285">
        <ele>76.28</ele>
        <time>2020-07-01T13:16:53Z</time>
      </trkpt>
      <trkpt lat="47.23407" lon="0.82276">
        <ele>76.02</ele>
        <time>2020-07-01T13:16:54Z</time>
      </trkpt>
      <trkpt lat="47.23404" lon="0.82266">
        <ele>76.21</ele>
        <time>2020-07-01T13:16:55Z</time>
      </trkpt>
      <trkpt lat="47.23401" lon="0.82257">
        <ele>76.57</ele>
        <time>2020-07-01T13:16:56Z</time>
      </trkpt>
      <trkpt lat="47.23398" lon="0.82248">
        <ele>77.19</ele>
        <time>2020-07-01T13:16:57Z</time>
      </trkpt>
      <trkpt lat="47.23395" lon="0.8224">
        <ele>78</ele>
        <time>2020-07-01T13:16:58Z</time>
      </trkpt>
      <trkpt lat="47.23392" lon="0.82232">
        <ele>78.87</ele>
        <time>2020-07-01T13:16:58Z</time>
      </trkpt>
      <trkpt lat="47.23389" lon="0.82219">
        <ele>80.11</ele>
        <time>2020-07-01T13:16:59Z</time>
      </trkpt>
      <trkpt lat="47.23384" lon="0.82214">
        <ele>79.92</ele>
        <time>2020-07-01T13:16:59Z</time>
      </trkpt>
      <trkpt lat="47.2338" lon="0.82207">
        <ele>80.11</ele>
        <time>2020-07-01T13:17:02Z</time>
      </trkpt>
      <trkpt lat="47.23377" lon="0.82195">
        <ele>80.95</ele>
        <time>2020-07-01T13:17:03Z</time>
      </trkpt>
      <trkpt lat="47.23374" lon="0.82186">
        <ele>81.45</ele>
        <time>2020-07-01T13:17:04Z</time>
      </trkpt>
      <trkpt lat="47.23371" lon="0.82177">
        <ele>81.85</ele>
        <time>2020-07-01T13:17:05Z</time>
      </trkpt>
      <trkpt lat="47.23368" lon="0.82167">
        <ele>82.23</ele>
        <time>2020-07-01T13:17:06Z</time>
      </trkpt>
      <trkpt lat="47.23365" lon="0.82159">
        <ele>82.89</ele>
        <time>2020-07-01T13:17:07Z</time>
      </trkpt>
      <trkpt lat="47.23362" lon="0.8215">
        <ele>83.79</ele>
        <time>2020-07-01T13:17:08Z</time>
      </trkpt>
      <trkpt lat="47.23358" lon="0.82142">
        <ele>84.56</ele>
        <time>2020-07-01T13:17:09Z</time>
      </trkpt>
      <trkpt lat="47.23355" lon="0.82133">
        <ele>84.92</ele>
        <time>2020-07-01T13:17:10Z</time>
      </trkpt>
      <trkpt lat="47.23352" lon="0.82125">
        <ele>85.16</ele>
        <time>2020-07-01T13:17:11Z</time>
      </trkpt>
      <trkpt lat="47.2335" lon="0.82116">
        <ele>85.59</ele>
        <time>2020-07-01T13:17:12Z</time>
      </trkpt>
      <trkpt lat="47.23347" lon="0.82108">
        <ele>85.61</ele>
        <time>2020-07-01T13:17:13Z</time>
      </trkpt>
      <trkpt lat="47.23343" lon="0.82099">
        <ele>84.05</ele>
        <time>2020-07-01T13:17:14Z</time>
      </trkpt>
      <trkpt lat="47.2334" lon="0.8209">
        <ele>81.69</ele>
        <time>2020-07-01T13:17:15Z</time>
      </trkpt>
      <trkpt lat="47.23337" lon="0.82082">
        <ele>79.23</ele>
        <time>2020-07-01T13:17:16Z</time>
      </trkpt>
      <trkpt lat="47.23334" lon="0.82073">
        <ele>78.58</ele>
        <time>2020-07-01T13:17:17Z</time>
      </trkpt>
      <trkpt lat="47.23331" lon="0.82064">
        <ele>79.04</ele>
        <time>2020-07-01T13:17:18Z</time>
      </trkpt>
      <trkpt lat="47.23328" lon="0.82055">
        <ele>80.12</ele>
        <time>2020-07-01T13:17:19Z</time>
      </trkpt>
      <trkpt lat="47.23325" lon="0.82046">
        <ele>82.91</ele>
        <time>2020-07-01T13:17:20Z</time>
      </trkpt>
      <trkpt lat="47.23321" lon="0.82036">
        <ele>85.13</ele>
        <time>2020-07-01T13:17:21Z</time>
      </trkpt>
      <trkpt lat="47.23318" lon="0.82027">
        <ele>86.15</ele>
        <time>2020-07-01T13:17:22Z</time>
      </trkpt>
      <trkpt lat="47.23314" lon="0.82017">
        <ele>84.2</ele>
        <time>2020-07-01T13:17:23Z</time>
      </trkpt>
      <trkpt lat="47.23311" lon="0.82008">
        <ele>82.41</ele>
        <time>2020-07-01T13:17:24Z</time>
      </trkpt>
      <trkpt lat="47.23308" lon="0.81999">
        <ele>80.78</ele>
        <time>2020-07-01T13:17:25Z</time>
      </trkpt>
      <trkpt lat="47.23304" lon="0.81989">
        <ele>82.04</ele>
        <time>2020-07-01T13:17:26Z</time>
      </trkpt>
      <trkpt lat="47.23301" lon="0.8198">
        <ele>83.5</ele>
        <time>2020-07-01T13:17:27Z</time>
      </trkpt>
      <trkpt lat="47.23298" lon="0.8197">
        <ele>84.36</ele>
        <time>2020-07-01T13:17:28Z</time>
      </trkpt>
      <trkpt lat="47.23294" lon="0.8196">
        <ele>83.84</ele>
        <time>2020-07-01T13:17:29Z</time>
      </trkpt>
      <trkpt lat="47.23291" lon="0.81951">
        <ele>83.63</ele>
        <time>2020-07-01T13:17:30Z</time>
      </trkpt>
      <trkpt lat="47.23287" lon="0.81942">
        <ele>83.64</ele>
        <time>2020-07-01T13:17:31Z</time>
      </trkpt>
      <trkpt lat="47.23284" lon="0.81932">
        <ele>83.82</ele>
        <time>2020-07-01T13:17:32Z</time>
      </trkpt>
      <trkpt lat="47.2328" lon="0.81923">
        <ele>84.44</ele>
        <time>2020-07-01T13:17:33Z</time>
      </trkpt>
      <trkpt lat="47.23277" lon="0.81914">
        <ele>84.97</ele>
        <time>2020-07-01T13:17:34Z</time>
      </trkpt>
      <trkpt lat="47.23274" lon="0.81905">
        <ele>84.92</ele>
        <time>2020-07-01T13:17:35Z</time>
      </trkpt>
      <trkpt lat="47.23271" lon="0.81896">
        <ele>84.94</ele>
        <time>2020-07-01T13:17:36Z</time>
      </trkpt>
      <trkpt lat="47.23268" lon="0.81886">
        <ele>85.11</ele>
        <time>2020-07-01T13:17:37Z</time>
      </trkpt>
      <trkpt lat="47.23265" lon="0.81876">
        <ele>85.64</ele>
        <time>2020-07-01T13:17:38Z</time>
      </trkpt>
      <trkpt lat="47.23261" lon="0.81866">
        <ele>86.49</ele>
        <time>2020-07-01T13:17:39Z</time>
      </trkpt>
      <trkpt lat="47.23258" lon="0.81855">
        <ele>87.67</ele>
        <time>2020-07-01T13:17:40Z</time>
      </trkpt>
      <trkpt lat="47.23254" lon="0.81846">
        <ele>89.04</ele>
        <time>2020-07-01T13:17:41Z</time>
      </trkpt>
      <trkpt lat="47.23251" lon="0.81836">
        <ele>90.54</ele>
        <time>2020-07-01T13:17:42Z</time>
      </trkpt>
      <trkpt lat="47.23247" lon="0.81827">
        <ele>91.76</ele>
        <time>2020-07-01T13:17:43Z</time>
      </trkpt>
      <trkpt lat="47.23244" lon="0.81818">
        <ele>92.63</ele>
        <time>2020-07-01T13:17:44Z</time>
      </trkpt>
      <trkpt lat="47.23241" lon="0.81809">
        <ele>93.44</ele>
        <time>2020-07-01T13:17:45Z</time>
      </trkpt>
      <trkpt lat="47.23238" lon="0.81801">
        <ele>94.03</ele>
        <time>2020-07-01T13:17:46Z</time>
      </trkpt>
      <trkpt lat="47.23234" lon="0.81792">
        <ele>94.64</ele>
        <time>2020-07-01T13:17:47Z</time>
      </trkpt>
      <trkpt lat="47.23231" lon="0.81783">
        <ele>95.18</ele>
        <time>2020-07-01T13:17:48Z</time>
      </trkpt>
      <trkpt lat="47.23228" lon="0.81774">
        <ele>95.2</ele>
        <time>2020-07-01T13:17:49Z</time>
      </trkpt>
      <trkpt lat="47.23226" lon="0.81765">
        <ele>94.41</ele>
        <time>2020-07-01T13:17:50Z</time>
      </trkpt>
      <trkpt lat="47.23223" lon="0.81756">
        <ele>93.61</ele>
        <time>2020-07-01T13:17:51Z</time>
      </trkpt>
      <trkpt lat="47.2322" lon="0.81747">
        <ele>91.78</ele>
        <time>2020-07-01T13:17:52Z</time>
      </trkpt>
      <trkpt lat="47.23217" lon="0.81739">
        <ele>89.25</ele>
        <time>2020-07-01T13:17:53Z</time>
      </trkpt>
      <trkpt lat="47.23214" lon="0.8173">
        <ele>86.61</ele>
        <time>2020-07-01T13:17:54Z</time>
      </trkpt>
      <trkpt lat="47.23211" lon="0.81721">
        <ele>84.26</ele>
        <time>2020-07-01T13:17:55Z</time>
      </trkpt>
      <trkpt lat="47.23208" lon="0.81712">
        <ele>83.05</ele>
        <time>2020-07-01T13:17:56Z</time>
      </trkpt>
      <trkpt lat="47.23204" lon="0.81703">
        <ele>81.97</ele>
        <time>2020-07-01T13:17:57Z</time>
      </trkpt>
      <trkpt lat="47.23201" lon="0.81694">
        <ele>81.24</ele>
        <time>2020-07-01T13:17:58Z</time>
      </trkpt>
      <trkpt lat="47.23197" lon="0.81685">
        <ele>81.31</ele>
        <time>2020-07-01T13:17:59Z</time>
      </trkpt>
      <trkpt lat="47.23194" lon="0.81676">
        <ele>81.73</ele>
        <time>2020-07-01T13:18:00Z</time>
      </trkpt>
      <trkpt lat="47.2319" lon="0.81667">
        <ele>82.78</ele>
        <time>2020-07-01T13:18:01Z</time>
      </trkpt>
      <trkpt lat="47.23188" lon="0.81659">
        <ele>83.22</ele>
        <time>2020-07-01T13:18:02Z</time>
      </trkpt>
      <trkpt lat="47.23185" lon="0.8165">
        <ele>83.9</ele>
        <time>2020-07-01T13:18:03Z</time>
      </trkpt>
      <trkpt lat="47.23182" lon="0.81642">
        <ele>84.64</ele>
        <time>2020-07-01T13:18:04Z</time>
      </trkpt>
      <trkpt lat="47.23179" lon="0.81634">
        <ele>85.43</ele>
        <time>2020-07-01T13:18:05Z</time>
      </trkpt>
      <trkpt lat="47.23176" lon="0.81626">
        <ele>86.29</ele>
        <time>2020-07-01T13:18:06Z</time>
      </trkpt>
      <trkpt lat="47.23173" lon="0.81618">
        <ele>87.21</ele>
        <time>2020-07-01T13:18:07Z</time>
      </trkpt>
      <trkpt lat="47.2317" lon="0.8161">
        <ele>88.13</ele>
        <time>2020-07-01T13:18:08Z</time>
      </trkpt>
      <trkpt lat="47.23167" lon="0.81602">
        <ele>88.6</ele>
        <time>2020-07-01T13:18:09Z</time>
      </trkpt>
      <trkpt lat="47.23164" lon="0.81594">
        <ele>88.84</ele>
        <time>2020-07-01T13:18:10Z</time>
      </trkpt>
      <trkpt lat="47.23162" lon="0.81585">
        <ele>88.75</ele>
        <time>2020-07-01T13:18:11Z</time>
      </trkpt>
      <trkpt lat="47.23159" lon="0.81577">
        <ele>88.71</ele>
        <time>2020-07-01T13:18:12Z</time>
      </trkpt>
      <trkpt lat="47.23155" lon="0.81568">
        <ele>88.81</ele>
        <time>2020-07-01T13:18:13Z</time>
      </trkpt>
      <trkpt lat="47.23152" lon="0.81558">
        <ele>88.77</ele>
        <time>2020-07-01T13:18:14Z</time>
      </trkpt>
      <trkpt lat="47.23149" lon="0.81549">
        <ele>88.43</ele>
        <time>2020-07-01T13:18:15Z</time>
      </trkpt>
      <trkpt lat="47.23146" lon="0.81541">
        <ele>87.77</ele>
        <time>2020-07-01T13:18:16Z</time>
      </trkpt>
      <trkpt lat="47.23143" lon="0.81532">
        <ele>86.65</ele>
        <time>2020-07-01T13:18:17Z</time>
      </trkpt>
      <trkpt lat="47.2314" lon="0.81523">
        <ele>86.17</ele>
        <time>2020-07-01T13:18:18Z</time>
      </trkpt>
      <trkpt lat="47.23136" lon="0.81515">
        <ele>86.5</ele>
        <time>2020-07-01T13:18:19Z</time>
      </trkpt>
      <trkpt lat="47.23133" lon="0.81507">
        <ele>86.22</ele>
        <time>2020-07-01T13:18:20Z</time>
      </trkpt>
      <trkpt lat="47.2313" lon="0.81499">
        <ele>85.41</ele>
        <time>2020-07-01T13:18:21Z</time>
      </trkpt>
      <trkpt lat="47.23127" lon="0.8149">
        <ele>85.22</ele>
        <time>2020-07-01T13:18:22Z</time>
      </trkpt>
      <trkpt lat="47.23124" lon="0.81481">
        <ele>85.52</ele>
        <time>2020-07-01T13:18:23Z</time>
      </trkpt>
      <trkpt lat="47.23121" lon="0.81473">
        <ele>86.22</ele>
        <time>2020-07-01T13:18:24Z</time>
      </trkpt>
      <trkpt lat="47.23118" lon="0.81464">
        <ele>85.91</ele>
        <time>2020-07-01T13:18:25Z</time>
      </trkpt>
      <trkpt lat="47.23115" lon="0.81456">
        <ele>85.55</ele>
        <time>2020-07-01T13:18:26Z</time>
      </trkpt>
      <trkpt lat="47.23112" lon="0.81447">
        <ele>85.12</ele>
        <time>2020-07-01T13:18:27Z</time>
      </trkpt>
      <trkpt lat="47.23109" lon="0.81438">
        <ele>85.46</ele>
        <time>2020-07-01T13:18:28Z</time>
      </trkpt>
      <trkpt lat="47.23106" lon="0.8143">
        <ele>86.1</ele>
        <time>2020-07-01T13:18:29Z</time>
      </trkpt>
      <trkpt lat="47.23103" lon="0.81421">
        <ele>86.75</ele>
        <time>2020-07-01T13:18:30Z</time>
      </trkpt>
      <trkpt lat="47.231" lon="0.81413">
        <ele>87.51</ele>
        <time>2020-07-01T13:18:31Z</time>
      </trkpt>
      <trkpt lat="47.23097" lon="0.81404">
        <ele>88.27</ele>
        <time>2020-07-01T13:18:32Z</time>
      </trkpt>
      <trkpt lat="47.23094" lon="0.81396">
        <ele>88.81</ele>
        <time>2020-07-01T13:18:33Z</time>
      </trkpt>
      <trkpt lat="47.23091" lon="0.81388">
        <ele>89.13</ele>
        <time>2020-07-01T13:18:34Z</time>
      </trkpt>
      <trkpt lat="47.23089" lon="0.81381">
        <ele>89.05</ele>
        <time>2020-07-01T13:18:35Z</time>
      </trkpt>
      <trkpt lat="47.23086" lon="0.81376">
        <ele>89.2</ele>
        <time>2020-07-01T13:18:36Z</time>
      </trkpt>
      <trkpt lat="47.23085" lon="0.81372">
        <ele>89.18</ele>
        <time>2020-07-01T13:18:36Z</time>
      </trkpt>
      <trkpt lat="47.23083" lon="0.81367">
        <ele>89.22</ele>
        <time>2020-07-01T13:18:38Z</time>
      </trkpt>
      <trkpt lat="47.23081" lon="0.81364">
        <ele>89.12</ele>
        <time>2020-07-01T13:19:15Z</time>
      </trkpt>
      <trkpt lat="47.23078" lon="0.8136">
        <ele>88.89</ele>
        <time>2020-07-01T13:19:16Z</time>
      </trkpt>
      <trkpt lat="47.23073" lon="0.81355">
        <ele>88.42</ele>
        <time>2020-07-01T13:19:17Z</time>
      </trkpt>
      <trkpt lat="47.23067" lon="0.8135">
        <ele>88.04</ele>
        <time>2020-07-01T13:19:18Z</time>
      </trkpt>
      <trkpt lat="47.23061" lon="0.81345">
        <ele>87.73</ele>
        <time>2020-07-01T13:19:19Z</time>
      </trkpt>
      <trkpt lat="47.23054" lon="0.81339">
        <ele>87.34</ele>
        <time>2020-07-01T13:19:20Z</time>
      </trkpt>
      <trkpt lat="47.23047" lon="0.81333">
        <ele>86.66</ele>
        <time>2020-07-01T13:19:21Z</time>
      </trkpt>
      <trkpt lat="47.23039" lon="0.81327">
        <ele>85.72</ele>
        <time>2020-07-01T13:19:22Z</time>
      </trkpt>
      <trkpt lat="47.23031" lon="0.8132">
        <ele>84.68</ele>
        <time>2020-07-01T13:19:23Z</time>
      </trkpt>
      <trkpt lat="47.23024" lon="0.81312">
        <ele>83.18</ele>
        <time>2020-07-01T13:19:24Z</time>
      </trkpt>
      <trkpt lat="47.23016" lon="0.81304">
        <ele>81.19</ele>
        <time>2020-07-01T13:19:25Z</time>
      </trkpt>
      <trkpt lat="47.23008" lon="0.81295">
        <ele>79.39</ele>
        <time>2020-07-01T13:19:26Z</time>
      </trkpt>
      <trkpt lat="47.23001" lon="0.81287">
        <ele>77.81</ele>
        <time>2020-07-01T13:19:27Z</time>
      </trkpt>
      <trkpt lat="47.22994" lon="0.81279">
        <ele>76.88</ele>
        <time>2020-07-01T13:19:28Z</time>
      </trkpt>
      <trkpt lat="47.22988" lon="0.81277">
        <ele>76.62</ele>
        <time>2020-07-01T13:19:29Z</time>
      </trkpt>
      <trkpt lat="47.22981" lon="0.81277">
        <ele>76.34</ele>
        <time>2020-07-01T13:19:30Z</time>
      </trkpt>
      <trkpt lat="47.22973" lon="0.81278">
        <ele>76.05</ele>
        <time>2020-07-01T13:19:31Z</time>
      </trkpt>
      <trkpt lat="47.22966" lon="0.81283">
        <ele>77.11</ele>
        <time>2020-07-01T13:19:32Z</time>
      </trkpt>
      <trkpt lat="47.2296" lon="0.8129">
        <ele>78.06</ele>
        <time>2020-07-01T13:19:33Z</time>
      </trkpt>
      <trkpt lat="47.22955" lon="0.81296">
        <ele>78.61</ele>
        <time>2020-07-01T13:19:33Z</time>
      </trkpt>
      <trkpt lat="47.22951" lon="0.81299">
        <ele>78.83</ele>
        <time>2020-07-01T13:19:34Z</time>
      </trkpt>
      <trkpt lat="47.22942" lon="0.81304">
        <ele>79.43</ele>
        <time>2020-07-01T13:19:34Z</time>
      </trkpt>
      <trkpt lat="47.22934" lon="0.81311">
        <ele>80.14</ele>
        <time>2020-07-01T13:19:37Z</time>
      </trkpt>
      <trkpt lat="47.22928" lon="0.81317">
        <ele>80.24</ele>
        <time>2020-07-01T13:19:38Z</time>
      </trkpt>
      <trkpt lat="47.22921" lon="0.81323">
        <ele>80.28</ele>
        <time>2020-07-01T13:19:39Z</time>
      </trkpt>
      <trkpt lat="47.22913" lon="0.81327">
        <ele>81.3</ele>
        <time>2020-07-01T13:19:40Z</time>
      </trkpt>
      <trkpt lat="47.22906" lon="0.8133">
        <ele>83.01</ele>
        <time>2020-07-01T13:19:41Z</time>
      </trkpt>
      <trkpt lat="47.22899" lon="0.81332">
        <ele>84.93</ele>
        <time>2020-07-01T13:19:42Z</time>
      </trkpt>
      <trkpt lat="47.22891" lon="0.81334">
        <ele>87.29</ele>
        <time>2020-07-01T13:19:43Z</time>
      </trkpt>
      <trkpt lat="47.22883" lon="0.81335">
        <ele>89</ele>
        <time>2020-07-01T13:19:44Z</time>
      </trkpt>
      <trkpt lat="47.22876" lon="0.81337">
        <ele>90.19</ele>
        <time>2020-07-01T13:19:45Z</time>
      </trkpt>
      <trkpt lat="47.22868" lon="0.81338">
        <ele>91.59</ele>
        <time>2020-07-01T13:19:46Z</time>
      </trkpt>
      <trkpt lat="47.2286" lon="0.81341">
        <ele>92.6</ele>
        <time>2020-07-01T13:19:47Z</time>
      </trkpt>
      <trkpt lat="47.22852" lon="0.81344">
        <ele>91.63</ele>
        <time>2020-07-01T13:19:48Z</time>
      </trkpt>
      <trkpt lat="47.22844" lon="0.81348">
        <ele>90.62</ele>
        <time>2020-07-01T13:19:49Z</time>
      </trkpt>
      <trkpt lat="47.22837" lon="0.81353">
        <ele>89.69</ele>
        <time>2020-07-01T13:19:50Z</time>
      </trkpt>
      <trkpt lat="47.2283" lon="0.81358">
        <ele>88.83</ele>
        <time>2020-07-01T13:19:51Z</time>
      </trkpt>
      <trkpt lat="47.22823" lon="0.81364">
        <ele>88.14</ele>
        <time>2020-07-01T13:19:52Z</time>
      </trkpt>
      <trkpt lat="47.22816" lon="0.81371">
        <ele>87.79</ele>
        <time>2020-07-01T13:19:53Z</time>
      </trkpt>
      <trkpt lat="47.2281" lon="0.81377">
        <ele>88.01</ele>
        <time>2020-07-01T13:19:54Z</time>
      </trkpt>
      <trkpt lat="47.22803" lon="0.81382">
        <ele>88.04</ele>
        <time>2020-07-01T13:19:55Z</time>
      </trkpt>
      <trkpt lat="47.22796" lon="0.81387">
        <ele>86.89</ele>
        <time>2020-07-01T13:19:56Z</time>
      </trkpt>
      <trkpt lat="47.22792" lon="0.8139">
        <ele>85.99</ele>
        <time>2020-07-01T13:19:57Z</time>
      </trkpt>
      <trkpt lat="47.22788" lon="0.8139">
        <ele>85.14</ele>
        <time>2020-07-01T13:19:58Z</time>
      </trkpt>
      <trkpt lat="47.22785" lon="0.8139">
        <ele>84.5</ele>
        <time>2020-07-01T13:19:59Z</time>
      </trkpt>
      <trkpt lat="47.22781" lon="0.81387">
        <ele>83.8</ele>
        <time>2020-07-01T13:20:01Z</time>
      </trkpt>
      <trkpt lat="47.2278" lon="0.81381">
        <ele>83.96</ele>
        <time>2020-07-01T13:20:02Z</time>
      </trkpt>
      <trkpt lat="47.2278" lon="0.81374">
        <ele>84.38</ele>
        <time>2020-07-01T13:20:03Z</time>
      </trkpt>
      <trkpt lat="47.22779" lon="0.81366">
        <ele>84.77</ele>
        <time>2020-07-01T13:20:04Z</time>
      </trkpt>
      <trkpt lat="47.22779" lon="0.81358">
        <ele>84.97</ele>
        <time>2020-07-01T13:20:05Z</time>
      </trkpt>
      <trkpt lat="47.22778" lon="0.81351">
        <ele>84.65</ele>
        <time>2020-07-01T13:20:06Z</time>
      </trkpt>
      <trkpt lat="47.22777" lon="0.81343">
        <ele>84.32</ele>
        <time>2020-07-01T13:20:07Z</time>
      </trkpt>
      <trkpt lat="47.22776" lon="0.81335">
        <ele>83.94</ele>
        <time>2020-07-01T13:20:08Z</time>
      </trkpt>
      <trkpt lat="47.22774" lon="0.81327">
        <ele>83.47</ele>
        <time>2020-07-01T13:20:09Z</time>
      </trkpt>
      <trkpt lat="47.22772" lon="0.8132">
        <ele>83</ele>
        <time>2020-07-01T13:20:10Z</time>
      </trkpt>
      <trkpt lat="47.22767" lon="0.81314">
        <ele>82.26</ele>
        <time>2020-07-01T13:20:11Z</time>
      </trkpt>
      <trkpt lat="47.22763" lon="0.81308">
        <ele>81.54</ele>
        <time>2020-07-01T13:20:12Z</time>
      </trkpt>
      <trkpt lat="47.22758" lon="0.81302">
        <ele>80.66</ele>
        <time>2020-07-01T13:20:13Z</time>
      </trkpt>
      <trkpt lat="47.22754" lon="0.81297">
        <ele>80.04</ele>
        <time>2020-07-01T13:20:14Z</time>
      </trkpt>
      <trkpt lat="47.2275" lon="0.81292">
        <ele>79.51</ele>
        <time>2020-07-01T13:20:15Z</time>
      </trkpt>
      <trkpt lat="47.22747" lon="0.81286">
        <ele>79.79</ele>
        <time>2020-07-01T13:20:16Z</time>
      </trkpt>
      <trkpt lat="47.22744" lon="0.8128">
        <ele>79.98</ele>
        <time>2020-07-01T13:20:17Z</time>
      </trkpt>
      <trkpt lat="47.2274" lon="0.81274">
        <ele>79.94</ele>
        <time>2020-07-01T13:20:18Z</time>
      </trkpt>
      <trkpt lat="47.22736" lon="0.81268">
        <ele>79.79</ele>
        <time>2020-07-01T13:20:19Z</time>
      </trkpt>
      <trkpt lat="47.22732" lon="0.81264">
        <ele>79.93</ele>
        <time>2020-07-01T13:20:20Z</time>
      </trkpt>
      <trkpt lat="47.22729" lon="0.81259">
        <ele>79.83</ele>
        <time>2020-07-01T13:20:21Z</time>
      </trkpt>
      <trkpt lat="47.22726" lon="0.81254">
        <ele>79.77</ele>
        <time>2020-07-01T13:20:22Z</time>
      </trkpt>
      <trkpt lat="47.22722" lon="0.81248">
        <ele>80.37</ele>
        <time>2020-07-01T13:20:23Z</time>
      </trkpt>
      <trkpt lat="47.22719" lon="0.81243">
        <ele>82.05</ele>
        <time>2020-07-01T13:20:24Z</time>
      </trkpt>
      <trkpt lat="47.22715" lon="0.81238">
        <ele>83.88</ele>
        <time>2020-07-01T13:20:25Z</time>
      </trkpt>
      <trkpt lat="47.22711" lon="0.81232">
        <ele>85.58</ele>
        <time>2020-07-01T13:20:26Z</time>
      </trkpt>
      <trkpt lat="47.22707" lon="0.81227">
        <ele>86.98</ele>
        <time>2020-07-01T13:20:27Z</time>
      </trkpt>
      <trkpt lat="47.22703" lon="0.81222">
        <ele>88.15</ele>
        <time>2020-07-01T13:20:28Z</time>
      </trkpt>
      <trkpt lat="47.22699" lon="0.81216">
        <ele>88.9</ele>
        <time>2020-07-01T13:20:29Z</time>
      </trkpt>
      <trkpt lat="47.22695" lon="0.81211">
        <ele>89.5</ele>
        <time>2020-07-01T13:20:30Z</time>
      </trkpt>
      <trkpt lat="47.22691" lon="0.81205">
        <ele>90.06</ele>
        <time>2020-07-01T13:20:31Z</time>
      </trkpt>
      <trkpt lat="47.22687" lon="0.81199">
        <ele>90.86</ele>
        <time>2020-07-01T13:20:32Z</time>
      </trkpt>
      <trkpt lat="47.22684" lon="0.81194">
        <ele>91.61</ele>
        <time>2020-07-01T13:20:33Z</time>
      </trkpt>
      <trkpt lat="47.2268" lon="0.81188">
        <ele>92.16</ele>
        <time>2020-07-01T13:20:34Z</time>
      </trkpt>
      <trkpt lat="47.22677" lon="0.81183">
        <ele>92.36</ele>
        <time>2020-07-01T13:20:35Z</time>
      </trkpt>
      <trkpt lat="47.22673" lon="0.81177">
        <ele>92.46</ele>
        <time>2020-07-01T13:20:36Z</time>
      </trkpt>
      <trkpt lat="47.2267" lon="0.81172">
        <ele>92.32</ele>
        <time>2020-07-01T13:20:37Z</time>
      </trkpt>
      <trkpt lat="47.22666" lon="0.81167">
        <ele>92.05</ele>
        <time>2020-07-01T13:20:38Z</time>
      </trkpt>
      <trkpt lat="47.22662" lon="0.81162">
        <ele>91.55</ele>
        <time>2020-07-01T13:20:39Z</time>
      </trkpt>
      <trkpt lat="47.22658" lon="0.81157">
        <ele>91.17</ele>
        <time>2020-07-01T13:20:40Z</time>
      </trkpt>
      <trkpt lat="47.22654" lon="0.81152">
        <ele>90.9</ele>
        <time>2020-07-01T13:20:41Z</time>
      </trkpt>
      <trkpt lat="47.2265" lon="0.81147">
        <ele>90.73</ele>
        <time>2020-07-01T13:20:42Z</time>
      </trkpt>
      <trkpt lat="47.22646" lon="0.81143">
        <ele>90.71</ele>
        <time>2020-07-01T13:20:43Z</time>
      </trkpt>
      <trkpt lat="47.22641" lon="0.81141">
        <ele>90.94</ele>
        <time>2020-07-01T13:20:44Z</time>
      </trkpt>
      <trkpt lat="47.22636" lon="0.81141">
        <ele>90.86</ele>
        <time>2020-07-01T13:20:45Z</time>
      </trkpt>
      <trkpt lat="47.22631" lon="0.81141">
        <ele>90.49</ele>
        <time>2020-07-01T13:20:46Z</time>
      </trkpt>
      <trkpt lat="47.22628" lon="0.81141">
        <ele>90.26</ele>
        <time>2020-07-01T13:20:47Z</time>
      </trkpt>
      <trkpt lat="47.22625" lon="0.81141">
        <ele>90.04</ele>
        <time>2020-07-01T13:20:48Z</time>
      </trkpt>
      <trkpt lat="47.22621" lon="0.81141">
        <ele>89.74</ele>
        <time>2020-07-01T13:20:49Z</time>
      </trkpt>
      <trkpt lat="47.22617" lon="0.8114">
        <ele>89.43</ele>
        <time>2020-07-01T13:20:50Z</time>
      </trkpt>
      <trkpt lat="47.22613" lon="0.81139">
        <ele>89.14</ele>
        <time>2020-07-01T13:20:51Z</time>
      </trkpt>
      <trkpt lat="47.22609" lon="0.81136">
        <ele>89.06</ele>
        <time>2020-07-01T13:20:52Z</time>
      </trkpt>
      <trkpt lat="47.22605" lon="0.81132">
        <ele>89.11</ele>
        <time>2020-07-01T13:20:53Z</time>
      </trkpt>
      <trkpt lat="47.22601" lon="0.81129">
        <ele>89.1</ele>
        <time>2020-07-01T13:20:54Z</time>
      </trkpt>
      <trkpt lat="47.22595" lon="0.81124">
        <ele>88.96</ele>
        <time>2020-07-01T13:20:55Z</time>
      </trkpt>
      <trkpt lat="47.2259" lon="0.8112">
        <ele>88.73</ele>
        <time>2020-07-01T13:20:56Z</time>
      </trkpt>
      <trkpt lat="47.22585" lon="0.81115">
        <ele>88.32</ele>
        <time>2020-07-01T13:20:57Z</time>
      </trkpt>
      <trkpt lat="47.2258" lon="0.81109">
        <ele>86.81</ele>
        <time>2020-07-01T13:20:58Z</time>
      </trkpt>
      <trkpt lat="47.22575" lon="0.81103">
        <ele>85.15</ele>
        <time>2020-07-01T13:20:59Z</time>
      </trkpt>
      <trkpt lat="47.2257" lon="0.81097">
        <ele>83.88</ele>
        <time>2020-07-01T13:21:00Z</time>
      </trkpt>
      <trkpt lat="47.22565" lon="0.81092">
        <ele>82.95</ele>
        <time>2020-07-01T13:21:01Z</time>
      </trkpt>
      <trkpt lat="47.2256" lon="0.81085">
        <ele>82.51</ele>
        <time>2020-07-01T13:21:02Z</time>
      </trkpt>
      <trkpt lat="47.22555" lon="0.81079">
        <ele>82.68</ele>
        <time>2020-07-01T13:21:03Z</time>
      </trkpt>
      <trkpt lat="47.2255" lon="0.81072">
        <ele>84.15</ele>
        <time>2020-07-01T13:21:04Z</time>
      </trkpt>
      <trkpt lat="47.22546" lon="0.81066">
        <ele>85.31</ele>
        <time>2020-07-01T13:21:05Z</time>
      </trkpt>
      <trkpt lat="47.22541" lon="0.81058">
        <ele>86.74</ele>
        <time>2020-07-01T13:21:06Z</time>
      </trkpt>
      <trkpt lat="47.22536" lon="0.8105">
        <ele>88.01</ele>
        <time>2020-07-01T13:21:07Z</time>
      </trkpt>
      <trkpt lat="47.22532" lon="0.81042">
        <ele>89.16</ele>
        <time>2020-07-01T13:21:08Z</time>
      </trkpt>
      <trkpt lat="47.22527" lon="0.81033">
        <ele>90.51</ele>
        <time>2020-07-01T13:21:09Z</time>
      </trkpt>
      <trkpt lat="47.22523" lon="0.81024">
        <ele>91.34</ele>
        <time>2020-07-01T13:21:10Z</time>
      </trkpt>
      <trkpt lat="47.22519" lon="0.81015">
        <ele>91.63</ele>
        <time>2020-07-01T13:21:11Z</time>
      </trkpt>
      <trkpt lat="47.22515" lon="0.81006">
        <ele>91.92</ele>
        <time>2020-07-01T13:21:12Z</time>
      </trkpt>
      <trkpt lat="47.22511" lon="0.80997">
        <ele>92.14</ele>
        <time>2020-07-01T13:21:13Z</time>
      </trkpt>
      <trkpt lat="47.22507" lon="0.80987">
        <ele>92.15</ele>
        <time>2020-07-01T13:21:14Z</time>
      </trkpt>
      <trkpt lat="47.22503" lon="0.80978">
        <ele>92.08</ele>
        <time>2020-07-01T13:21:15Z</time>
      </trkpt>
      <trkpt lat="47.22499" lon="0.80969">
        <ele>92.14</ele>
        <time>2020-07-01T13:21:16Z</time>
      </trkpt>
      <trkpt lat="47.22495" lon="0.8096">
        <ele>92.46</ele>
        <time>2020-07-01T13:21:17Z</time>
      </trkpt>
      <trkpt lat="47.22491" lon="0.80951">
        <ele>92.59</ele>
        <time>2020-07-01T13:21:18Z</time>
      </trkpt>
      <trkpt lat="47.22487" lon="0.80941">
        <ele>92.28</ele>
        <time>2020-07-01T13:21:19Z</time>
      </trkpt>
      <trkpt lat="47.22482" lon="0.80931">
        <ele>91.53</ele>
        <time>2020-07-01T13:21:20Z</time>
      </trkpt>
      <trkpt lat="47.22478" lon="0.80921">
        <ele>91.01</ele>
        <time>2020-07-01T13:21:21Z</time>
      </trkpt>
      <trkpt lat="47.22474" lon="0.80911">
        <ele>90.35</ele>
        <time>2020-07-01T13:21:22Z</time>
      </trkpt>
      <trkpt lat="47.22469" lon="0.80902">
        <ele>89.06</ele>
        <time>2020-07-01T13:21:23Z</time>
      </trkpt>
      <trkpt lat="47.22465" lon="0.80892">
        <ele>87.35</ele>
        <time>2020-07-01T13:21:24Z</time>
      </trkpt>
      <trkpt lat="47.22461" lon="0.80883">
        <ele>86.22</ele>
        <time>2020-07-01T13:21:25Z</time>
      </trkpt>
      <trkpt lat="47.22457" lon="0.80873">
        <ele>85.6</ele>
        <time>2020-07-01T13:21:26Z</time>
      </trkpt>
      <trkpt lat="47.22452" lon="0.80862">
        <ele>85.27</ele>
        <time>2020-07-01T13:21:27Z</time>
      </trkpt>
      <trkpt lat="47.22448" lon="0.80852">
        <ele>84.27</ele>
        <time>2020-07-01T13:21:28Z</time>
      </trkpt>
      <trkpt lat="47.22444" lon="0.80843">
        <ele>82.98</ele>
        <time>2020-07-01T13:21:29Z</time>
      </trkpt>
      <trkpt lat="47.2244" lon="0.80834">
        <ele>81.43</ele>
        <time>2020-07-01T13:21:30Z</time>
      </trkpt>
      <trkpt lat="47.22437" lon="0.80826">
        <ele>81.56</ele>
        <time>2020-07-01T13:21:31Z</time>
      </trkpt>
      <trkpt lat="47.22433" lon="0.80819">
        <ele>82.27</ele>
        <time>2020-07-01T13:21:32Z</time>
      </trkpt>
      <trkpt lat="47.22431" lon="0.80815">
        <ele>82.94</ele>
        <time>2020-07-01T13:21:33Z</time>
      </trkpt>
      <trkpt lat="47.22428" lon="0.80814">
        <ele>83.34</ele>
        <time>2020-07-01T13:21:34Z</time>
      </trkpt>
      <trkpt lat="47.22424" lon="0.80814">
        <ele>83.67</ele>
        <time>2020-07-01T13:21:35Z</time>
      </trkpt>
      <trkpt lat="47.2242" lon="0.80816">
        <ele>83.42</ele>
        <time>2020-07-01T13:21:36Z</time>
      </trkpt>
      <trkpt lat="47.22414" lon="0.8082">
        <ele>83</ele>
        <time>2020-07-01T13:21:37Z</time>
      </trkpt>
      <trkpt lat="47.22407" lon="0.80823">
        <ele>83.87</ele>
        <time>2020-07-01T13:21:38Z</time>
      </trkpt>
      <trkpt lat="47.22399" lon="0.80827">
        <ele>84.85</ele>
        <time>2020-07-01T13:21:39Z</time>
      </trkpt>
      <trkpt lat="47.22391" lon="0.80831">
        <ele>85.99</ele>
        <time>2020-07-01T13:21:40Z</time>
      </trkpt>
      <trkpt lat="47.22383" lon="0.80836">
        <ele>86.46</ele>
        <time>2020-07-01T13:21:41Z</time>
      </trkpt>
      <trkpt lat="47.22374" lon="0.8084">
        <ele>87.18</ele>
        <time>2020-07-01T13:21:42Z</time>
      </trkpt>
      <trkpt lat="47.22366" lon="0.80845">
        <ele>87.62</ele>
        <time>2020-07-01T13:21:43Z</time>
      </trkpt>
      <trkpt lat="47.22357" lon="0.8085">
        <ele>87.27</ele>
        <time>2020-07-01T13:21:44Z</time>
      </trkpt>
      <trkpt lat="47.22349" lon="0.80855">
        <ele>86.16</ele>
        <time>2020-07-01T13:21:45Z</time>
      </trkpt>
      <trkpt lat="47.2234" lon="0.80861">
        <ele>85.25</ele>
        <time>2020-07-01T13:21:46Z</time>
      </trkpt>
      <trkpt lat="47.2233" lon="0.80866">
        <ele>84.17</ele>
        <time>2020-07-01T13:21:47Z</time>
      </trkpt>
      <trkpt lat="47.22321" lon="0.80871">
        <ele>82.51</ele>
        <time>2020-07-01T13:21:48Z</time>
      </trkpt>
      <trkpt lat="47.22313" lon="0.80876">
        <ele>81</ele>
        <time>2020-07-01T13:21:49Z</time>
      </trkpt>
      <trkpt lat="47.22305" lon="0.80881">
        <ele>79.58</ele>
        <time>2020-07-01T13:21:50Z</time>
      </trkpt>
      <trkpt lat="47.22297" lon="0.80884">
        <ele>79.61</ele>
        <time>2020-07-01T13:21:51Z</time>
      </trkpt>
      <trkpt lat="47.22289" lon="0.80888">
        <ele>79.64</ele>
        <time>2020-07-01T13:21:52Z</time>
      </trkpt>
      <trkpt lat="47.22281" lon="0.80893">
        <ele>81.08</ele>
        <time>2020-07-01T13:21:53Z</time>
      </trkpt>
      <trkpt lat="47.22273" lon="0.80897">
        <ele>83.21</ele>
        <time>2020-07-01T13:21:54Z</time>
      </trkpt>
      <trkpt lat="47.22264" lon="0.80902">
        <ele>85.12</ele>
        <time>2020-07-01T13:21:55Z</time>
      </trkpt>
      <trkpt lat="47.22256" lon="0.80907">
        <ele>85.97</ele>
        <time>2020-07-01T13:21:56Z</time>
      </trkpt>
      <trkpt lat="47.22248" lon="0.80912">
        <ele>86.37</ele>
        <time>2020-07-01T13:21:57Z</time>
      </trkpt>
      <trkpt lat="47.2224" lon="0.80916">
        <ele>87.81</ele>
        <time>2020-07-01T13:21:58Z</time>
      </trkpt>
      <trkpt lat="47.22232" lon="0.80921">
        <ele>89.46</ele>
        <time>2020-07-01T13:21:59Z</time>
      </trkpt>
      <trkpt lat="47.22224" lon="0.80925">
        <ele>90.76</ele>
        <time>2020-07-01T13:22:00Z</time>
      </trkpt>
      <trkpt lat="47.22217" lon="0.80929">
        <ele>91.56</ele>
        <time>2020-07-01T13:22:01Z</time>
      </trkpt>
      <trkpt lat="47.22211" lon="0.80932">
        <ele>92.21</ele>
        <time>2020-07-01T13:22:02Z</time>
      </trkpt>
      <trkpt lat="47.22206" lon="0.80934">
        <ele>92.75</ele>
        <time>2020-07-01T13:22:03Z</time>
      </trkpt>
      <trkpt lat="47.22205" lon="0.8094">
        <ele>92.86</ele>
        <time>2020-07-01T13:22:05Z</time>
      </trkpt>
      <trkpt lat="47.22205" lon="0.80946">
        <ele>92.69</ele>
        <time>2020-07-01T13:22:06Z</time>
      </trkpt>
      <trkpt lat="47.22208" lon="0.80955">
        <ele>91.4</ele>
        <time>2020-07-01T13:22:07Z</time>
      </trkpt>
      <trkpt lat="47.22213" lon="0.80966">
        <ele>89.67</ele>
        <time>2020-07-01T13:22:08Z</time>
      </trkpt>
      <trkpt lat="47.22217" lon="0.80978">
        <ele>87.37</ele>
        <time>2020-07-01T13:22:09Z</time>
      </trkpt>
      <trkpt lat="47.22221" lon="0.8099">
        <ele>84.82</ele>
        <time>2020-07-01T13:22:10Z</time>
      </trkpt>
      <trkpt lat="47.22225" lon="0.81003">
        <ele>83.82</ele>
        <time>2020-07-01T13:22:11Z</time>
      </trkpt>
      <trkpt lat="47.2223" lon="0.81017">
        <ele>86.72</ele>
        <time>2020-07-01T13:22:12Z</time>
      </trkpt>
      <trkpt lat="47.22234" lon="0.8103">
        <ele>88.69</ele>
        <time>2020-07-01T13:22:13Z</time>
      </trkpt>
      <trkpt lat="47.22239" lon="0.81044">
        <ele>89.33</ele>
        <time>2020-07-01T13:22:14Z</time>
      </trkpt>
      <trkpt lat="47.22243" lon="0.81057">
        <ele>90.13</ele>
        <time>2020-07-01T13:22:15Z</time>
      </trkpt>
      <trkpt lat="47.22248" lon="0.81071">
        <ele>91.59</ele>
        <time>2020-07-01T13:22:16Z</time>
      </trkpt>
      <trkpt lat="47.22252" lon="0.81085">
        <ele>92.97</ele>
        <time>2020-07-01T13:22:17Z</time>
      </trkpt>
      <trkpt lat="47.22256" lon="0.811">
        <ele>92.74</ele>
        <time>2020-07-01T13:22:18Z</time>
      </trkpt>
      <trkpt lat="47.22261" lon="0.81115">
        <ele>91.15</ele>
        <time>2020-07-01T13:22:19Z</time>
      </trkpt>
      <trkpt lat="47.22265" lon="0.8113">
        <ele>88.83</ele>
        <time>2020-07-01T13:22:20Z</time>
      </trkpt>
      <trkpt lat="47.2227" lon="0.81144">
        <ele>87.55</ele>
        <time>2020-07-01T13:22:21Z</time>
      </trkpt>
      <trkpt lat="47.22275" lon="0.81159">
        <ele>88.58</ele>
        <time>2020-07-01T13:22:22Z</time>
      </trkpt>
      <trkpt lat="47.2228" lon="0.81173">
        <ele>89.01</ele>
        <time>2020-07-01T13:22:23Z</time>
      </trkpt>
      <trkpt lat="47.22285" lon="0.81187">
        <ele>87.22</ele>
        <time>2020-07-01T13:22:24Z</time>
      </trkpt>
      <trkpt lat="47.2229" lon="0.81201">
        <ele>85.84</ele>
        <time>2020-07-01T13:22:25Z</time>
      </trkpt>
      <trkpt lat="47.22294" lon="0.81214">
        <ele>84.8</ele>
        <time>2020-07-01T13:22:26Z</time>
      </trkpt>
      <trkpt lat="47.22298" lon="0.81228">
        <ele>83.68</ele>
        <time>2020-07-01T13:22:27Z</time>
      </trkpt>
      <trkpt lat="47.22303" lon="0.81242">
        <ele>81.69</ele>
        <time>2020-07-01T13:22:28Z</time>
      </trkpt>
      <trkpt lat="47.22307" lon="0.81255">
        <ele>79.65</ele>
        <time>2020-07-01T13:22:29Z</time>
      </trkpt>
      <trkpt lat="47.22311" lon="0.81269">
        <ele>78.77</ele>
        <time>2020-07-01T13:22:30Z</time>
      </trkpt>
      <trkpt lat="47.22316" lon="0.81283">
        <ele>78.42</ele>
        <time>2020-07-01T13:22:31Z</time>
      </trkpt>
      <trkpt lat="47.22321" lon="0.81298">
        <ele>78.47</ele>
        <time>2020-07-01T13:22:32Z</time>
      </trkpt>
      <trkpt lat="47.22325" lon="0.81312">
        <ele>79.23</ele>
        <time>2020-07-01T13:22:33Z</time>
      </trkpt>
      <trkpt lat="47.2233" lon="0.81326">
        <ele>81.06</ele>
        <time>2020-07-01T13:22:34Z</time>
      </trkpt>
      <trkpt lat="47.22334" lon="0.8134">
        <ele>82.68</ele>
        <time>2020-07-01T13:22:35Z</time>
      </trkpt>
      <trkpt lat="47.22338" lon="0.81353">
        <ele>84.03</ele>
        <time>2020-07-01T13:22:36Z</time>
      </trkpt>
      <trkpt lat="47.22341" lon="0.81365">
        <ele>85.2</ele>
        <time>2020-07-01T13:22:37Z</time>
      </trkpt>
      <trkpt lat="47.22346" lon="0.81377">
        <ele>85.62</ele>
        <time>2020-07-01T13:22:38Z</time>
      </trkpt>
      <trkpt lat="47.22351" lon="0.8139">
        <ele>85.78</ele>
        <time>2020-07-01T13:22:39Z</time>
      </trkpt>
      <trkpt lat="47.22356" lon="0.81403">
        <ele>85.97</ele>
        <time>2020-07-01T13:22:40Z</time>
      </trkpt>
      <trkpt lat="47.2236" lon="0.81416">
        <ele>86.1</ele>
        <time>2020-07-01T13:22:41Z</time>
      </trkpt>
      <trkpt lat="47.22363" lon="0.81427">
        <ele>85.95</ele>
        <time>2020-07-01T13:22:42Z</time>
      </trkpt>
      <trkpt lat="47.22367" lon="0.81437">
        <ele>85.69</ele>
        <time>2020-07-01T13:22:43Z</time>
      </trkpt>
      <trkpt lat="47.2237" lon="0.81448">
        <ele>85.41</ele>
        <time>2020-07-01T13:22:44Z</time>
      </trkpt>
      <trkpt lat="47.22374" lon="0.8146">
        <ele>85.11</ele>
        <time>2020-07-01T13:22:45Z</time>
      </trkpt>
      <trkpt lat="47.22377" lon="0.81472">
        <ele>84.71</ele>
        <time>2020-07-01T13:22:46Z</time>
      </trkpt>
      <trkpt lat="47.22381" lon="0.81485">
        <ele>84.6</ele>
        <time>2020-07-01T13:22:47Z</time>
      </trkpt>
      <trkpt lat="47.22386" lon="0.81497">
        <ele>84.31</ele>
        <time>2020-07-01T13:22:48Z</time>
      </trkpt>
      <trkpt lat="47.2239" lon="0.8151">
        <ele>84.72</ele>
        <time>2020-07-01T13:22:49Z</time>
      </trkpt>
      <trkpt lat="47.22394" lon="0.81524">
        <ele>85.44</ele>
        <time>2020-07-01T13:22:50Z</time>
      </trkpt>
      <trkpt lat="47.22399" lon="0.81537">
        <ele>87.14</ele>
        <time>2020-07-01T13:22:51Z</time>
      </trkpt>
      <trkpt lat="47.22403" lon="0.81551">
        <ele>88.25</ele>
        <time>2020-07-01T13:22:52Z</time>
      </trkpt>
      <trkpt lat="47.22407" lon="0.81564">
        <ele>89.55</ele>
        <time>2020-07-01T13:22:53Z</time>
      </trkpt>
      <trkpt lat="47.22411" lon="0.81577">
        <ele>93</ele>
        <time>2020-07-01T13:22:54Z</time>
      </trkpt>
      <trkpt lat="47.22415" lon="0.81589">
        <ele>93.37</ele>
        <time>2020-07-01T13:22:55Z</time>
      </trkpt>
      <trkpt lat="47.22418" lon="0.816">
        <ele>89.35</ele>
        <time>2020-07-01T13:22:56Z</time>
      </trkpt>
      <trkpt lat="47.22422" lon="0.81612">
        <ele>85.41</ele>
        <time>2020-07-01T13:22:57Z</time>
      </trkpt>
      <trkpt lat="47.22426" lon="0.81622">
        <ele>86.48</ele>
        <time>2020-07-01T13:22:58Z</time>
      </trkpt>
      <trkpt lat="47.2243" lon="0.81633">
        <ele>86.95</ele>
        <time>2020-07-01T13:22:59Z</time>
      </trkpt>
      <trkpt lat="47.22434" lon="0.81644">
        <ele>87.44</ele>
        <time>2020-07-01T13:23:00Z</time>
      </trkpt>
      <trkpt lat="47.22438" lon="0.81653">
        <ele>89.12</ele>
        <time>2020-07-01T13:23:01Z</time>
      </trkpt>
      <trkpt lat="47.22441" lon="0.81661">
        <ele>91.63</ele>
        <time>2020-07-01T13:23:02Z</time>
      </trkpt>
      <trkpt lat="47.22444" lon="0.81668">
        <ele>94.01</ele>
        <time>2020-07-01T13:23:03Z</time>
      </trkpt>
      <trkpt lat="47.22447" lon="0.81675">
        <ele>93.5</ele>
        <time>2020-07-01T13:23:04Z</time>
      </trkpt>
      <trkpt lat="47.22449" lon="0.81683">
        <ele>93.21</ele>
        <time>2020-07-01T13:23:05Z</time>
      </trkpt>
      <trkpt lat="47.22453" lon="0.81693">
        <ele>92.47</ele>
        <time>2020-07-01T13:23:06Z</time>
      </trkpt>
      <trkpt lat="47.22457" lon="0.81704">
        <ele>91.57</ele>
        <time>2020-07-01T13:23:07Z</time>
      </trkpt>
      <trkpt lat="47.22462" lon="0.81717">
        <ele>90.24</ele>
        <time>2020-07-01T13:23:08Z</time>
      </trkpt>
      <trkpt lat="47.22467" lon="0.8173">
        <ele>88.73</ele>
        <time>2020-07-01T13:23:09Z</time>
      </trkpt>
      <trkpt lat="47.22474" lon="0.81744">
        <ele>88.33</ele>
        <time>2020-07-01T13:23:10Z</time>
      </trkpt>
      <trkpt lat="47.2248" lon="0.81757">
        <ele>87.38</ele>
        <time>2020-07-01T13:23:11Z</time>
      </trkpt>
      <trkpt lat="47.22487" lon="0.81769">
        <ele>85.5</ele>
        <time>2020-07-01T13:23:12Z</time>
      </trkpt>
      <trkpt lat="47.22495" lon="0.81781">
        <ele>83.98</ele>
        <time>2020-07-01T13:23:13Z</time>
      </trkpt>
      <trkpt lat="47.22502" lon="0.81793">
        <ele>84.78</ele>
        <time>2020-07-01T13:23:14Z</time>
      </trkpt>
      <trkpt lat="47.22509" lon="0.81804">
        <ele>86.19</ele>
        <time>2020-07-01T13:23:15Z</time>
      </trkpt>
      <trkpt lat="47.22514" lon="0.81814">
        <ele>87.11</ele>
        <time>2020-07-01T13:23:16Z</time>
      </trkpt>
      <trkpt lat="47.22518" lon="0.81823">
        <ele>87.72</ele>
        <time>2020-07-01T13:23:17Z</time>
      </trkpt>
      <trkpt lat="47.22521" lon="0.81831">
        <ele>88.12</ele>
        <time>2020-07-01T13:23:18Z</time>
      </trkpt>
      <trkpt lat="47.22522" lon="0.81838">
        <ele>88.14</ele>
        <time>2020-07-01T13:23:19Z</time>
      </trkpt>
      <trkpt lat="47.22522" lon="0.81844">
        <ele>88.05</ele>
        <time>2020-07-01T13:23:20Z</time>
      </trkpt>
      <trkpt lat="47.22522" lon="0.81849">
        <ele>87.97</ele>
        <time>2020-07-01T13:23:21Z</time>
      </trkpt>
      <trkpt lat="47.22519" lon="0.81853">
        <ele>87.87</ele>
        <time>2020-07-01T13:23:22Z</time>
      </trkpt>
      <trkpt lat="47.22508" lon="0.81859">
        <ele>87.4</ele>
        <time>2020-07-01T13:23:23Z</time>
      </trkpt>
      <trkpt lat="47.22505" lon="0.8186">
        <ele>87.25</ele>
        <time>2020-07-01T13:23:24Z</time>
      </trkpt>
      <trkpt lat="47.225" lon="0.81861">
        <ele>87.01</ele>
        <time>2020-07-01T13:23:25Z</time>
      </trkpt>
      <trkpt lat="47.22493" lon="0.81862">
        <ele>85.94</ele>
        <time>2020-07-01T13:23:26Z</time>
      </trkpt>
      <trkpt lat="47.22486" lon="0.81863">
        <ele>84.85</ele>
        <time>2020-07-01T13:23:27Z</time>
      </trkpt>
      <trkpt lat="47.22478" lon="0.81864">
        <ele>83.56</ele>
        <time>2020-07-01T13:23:28Z</time>
      </trkpt>
      <trkpt lat="47.22471" lon="0.81865">
        <ele>82.18</ele>
        <time>2020-07-01T13:23:29Z</time>
      </trkpt>
      <trkpt lat="47.22463" lon="0.81866">
        <ele>79.56</ele>
        <time>2020-07-01T13:23:30Z</time>
      </trkpt>
      <trkpt lat="47.22454" lon="0.81867">
        <ele>76.78</ele>
        <time>2020-07-01T13:23:31Z</time>
      </trkpt>
      <trkpt lat="47.22446" lon="0.81868">
        <ele>74.45</ele>
        <time>2020-07-01T13:23:32Z</time>
      </trkpt>
      <trkpt lat="47.2244" lon="0.81869">
        <ele>74.07</ele>
        <time>2020-07-01T13:23:33Z</time>
      </trkpt>
      <trkpt lat="47.22436" lon="0.81876">
        <ele>74.63</ele>
        <time>2020-07-01T13:23:34Z</time>
      </trkpt>
      <trkpt lat="47.22432" lon="0.81887">
        <ele>75.09</ele>
        <time>2020-07-01T13:23:35Z</time>
      </trkpt>
      <trkpt lat="47.22429" lon="0.819">
        <ele>75.22</ele>
        <time>2020-07-01T13:23:36Z</time>
      </trkpt>
      <trkpt lat="47.22426" lon="0.81914">
        <ele>75.54</ele>
        <time>2020-07-01T13:23:37Z</time>
      </trkpt>
      <trkpt lat="47.22423" lon="0.81925">
        <ele>75.89</ele>
        <time>2020-07-01T13:23:38Z</time>
      </trkpt>
      <trkpt lat="47.2242" lon="0.81936">
        <ele>76.1</ele>
        <time>2020-07-01T13:23:39Z</time>
      </trkpt>
      <trkpt lat="47.22418" lon="0.81949">
        <ele>77.69</ele>
        <time>2020-07-01T13:23:40Z</time>
      </trkpt>
      <trkpt lat="47.22416" lon="0.81961">
        <ele>82.04</ele>
        <time>2020-07-01T13:23:41Z</time>
      </trkpt>
      <trkpt lat="47.22415" lon="0.81974">
        <ele>86.26</ele>
        <time>2020-07-01T13:23:42Z</time>
      </trkpt>
      <trkpt lat="47.22415" lon="0.81986">
        <ele>87.23</ele>
        <time>2020-07-01T13:23:43Z</time>
      </trkpt>
      <trkpt lat="47.22415" lon="0.81999">
        <ele>88.28</ele>
        <time>2020-07-01T13:23:44Z</time>
      </trkpt>
      <trkpt lat="47.22415" lon="0.82012">
        <ele>87.88</ele>
        <time>2020-07-01T13:23:45Z</time>
      </trkpt>
      <trkpt lat="47.22416" lon="0.82024">
        <ele>87.24</ele>
        <time>2020-07-01T13:23:46Z</time>
      </trkpt>
      <trkpt lat="47.22419" lon="0.82037">
        <ele>85.19</ele>
        <time>2020-07-01T13:23:47Z</time>
      </trkpt>
      <trkpt lat="47.22421" lon="0.82049">
        <ele>83.47</ele>
        <time>2020-07-01T13:23:48Z</time>
      </trkpt>
      <trkpt lat="47.22423" lon="0.82062">
        <ele>80.54</ele>
        <time>2020-07-01T13:23:49Z</time>
      </trkpt>
      <trkpt lat="47.22425" lon="0.82074">
        <ele>77.19</ele>
        <time>2020-07-01T13:23:50Z</time>
      </trkpt>
      <trkpt lat="47.22426" lon="0.82086">
        <ele>75.21</ele>
        <time>2020-07-01T13:23:51Z</time>
      </trkpt>
      <trkpt lat="47.22426" lon="0.82097">
        <ele>76</ele>
        <time>2020-07-01T13:23:52Z</time>
      </trkpt>
      <trkpt lat="47.22426" lon="0.82107">
        <ele>76.71</ele>
        <time>2020-07-01T13:23:53Z</time>
      </trkpt>
      <trkpt lat="47.22425" lon="0.82117">
        <ele>77.09</ele>
        <time>2020-07-01T13:23:54Z</time>
      </trkpt>
      <trkpt lat="47.22424" lon="0.82126">
        <ele>77.22</ele>
        <time>2020-07-01T13:23:55Z</time>
      </trkpt>
      <trkpt lat="47.22422" lon="0.82133">
        <ele>77.03</ele>
        <time>2020-07-01T13:23:56Z</time>
      </trkpt>
      <trkpt lat="47.22421" lon="0.8214">
        <ele>77.29</ele>
        <time>2020-07-01T13:23:57Z</time>
      </trkpt>
      <trkpt lat="47.22418" lon="0.82147">
        <ele>79.32</ele>
        <time>2020-07-01T13:23:58Z</time>
      </trkpt>
      <trkpt lat="47.22416" lon="0.82154">
        <ele>81.94</ele>
        <time>2020-07-01T13:23:59Z</time>
      </trkpt>
      <trkpt lat="47.22414" lon="0.82162">
        <ele>84.72</ele>
        <time>2020-07-01T13:24:00Z</time>
      </trkpt>
      <trkpt lat="47.22412" lon="0.82172">
        <ele>85.99</ele>
        <time>2020-07-01T13:24:01Z</time>
      </trkpt>
      <trkpt lat="47.22411" lon="0.82181">
        <ele>85.78</ele>
        <time>2020-07-01T13:24:02Z</time>
      </trkpt>
      <trkpt lat="47.22409" lon="0.8219">
        <ele>85.34</ele>
        <time>2020-07-01T13:24:03Z</time>
      </trkpt>
      <trkpt lat="47.22407" lon="0.82199">
        <ele>84</ele>
        <time>2020-07-01T13:24:04Z</time>
      </trkpt>
      <trkpt lat="47.22404" lon="0.82209">
        <ele>81.74</ele>
        <time>2020-07-01T13:24:05Z</time>
      </trkpt>
      <trkpt lat="47.22401" lon="0.82219">
        <ele>80.03</ele>
        <time>2020-07-01T13:24:06Z</time>
      </trkpt>
      <trkpt lat="47.22398" lon="0.82228">
        <ele>79.67</ele>
        <time>2020-07-01T13:24:07Z</time>
      </trkpt>
      <trkpt lat="47.22395" lon="0.82235">
        <ele>79.62</ele>
        <time>2020-07-01T13:24:08Z</time>
      </trkpt>
      <trkpt lat="47.22391" lon="0.82241">
        <ele>79.4</ele>
        <time>2020-07-01T13:24:09Z</time>
      </trkpt>
      <trkpt lat="47.22386" lon="0.82248">
        <ele>78.66</ele>
        <time>2020-07-01T13:24:10Z</time>
      </trkpt>
      <trkpt lat="47.22381" lon="0.82255">
        <ele>77.81</ele>
        <time>2020-07-01T13:24:11Z</time>
      </trkpt>
      <trkpt lat="47.22375" lon="0.82263">
        <ele>76.77</ele>
        <time>2020-07-01T13:24:12Z</time>
      </trkpt>
      <trkpt lat="47.22369" lon="0.82269">
        <ele>75.65</ele>
        <time>2020-07-01T13:24:13Z</time>
      </trkpt>
      <trkpt lat="47.22364" lon="0.82277">
        <ele>74.55</ele>
        <time>2020-07-01T13:24:14Z</time>
      </trkpt>
      <trkpt lat="47.2236" lon="0.82286">
        <ele>74.21</ele>
        <time>2020-07-01T13:24:15Z</time>
      </trkpt>
      <trkpt lat="47.22355" lon="0.82295">
        <ele>73.85</ele>
        <time>2020-07-01T13:24:16Z</time>
      </trkpt>
      <trkpt lat="47.22351" lon="0.82305">
        <ele>73.19</ele>
        <time>2020-07-01T13:24:17Z</time>
      </trkpt>
      <trkpt lat="47.22347" lon="0.82314">
        <ele>74.46</ele>
        <time>2020-07-01T13:24:18Z</time>
      </trkpt>
      <trkpt lat="47.22342" lon="0.82322">
        <ele>76.41</ele>
        <time>2020-07-01T13:24:19Z</time>
      </trkpt>
      <trkpt lat="47.22336" lon="0.82328">
        <ele>78.67</ele>
        <time>2020-07-01T13:24:20Z</time>
      </trkpt>
      <trkpt lat="47.2233" lon="0.82334">
        <ele>81.72</ele>
        <time>2020-07-01T13:24:21Z</time>
      </trkpt>
      <trkpt lat="47.22324" lon="0.82339">
        <ele>82.74</ele>
        <time>2020-07-01T13:24:22Z</time>
      </trkpt>
      <trkpt lat="47.22317" lon="0.82345">
        <ele>83.22</ele>
        <time>2020-07-01T13:24:23Z</time>
      </trkpt>
      <trkpt lat="47.22311" lon="0.82351">
        <ele>82.88</ele>
        <time>2020-07-01T13:24:24Z</time>
      </trkpt>
      <trkpt lat="47.22306" lon="0.82357">
        <ele>81.89</ele>
        <time>2020-07-01T13:24:25Z</time>
      </trkpt>
      <trkpt lat="47.22302" lon="0.82364">
        <ele>80.75</ele>
        <time>2020-07-01T13:24:26Z</time>
      </trkpt>
      <trkpt lat="47.22299" lon="0.82373">
        <ele>80.92</ele>
        <time>2020-07-01T13:24:27Z</time>
      </trkpt>
      <trkpt lat="47.22296" lon="0.82383">
        <ele>81.3</ele>
        <time>2020-07-01T13:24:28Z</time>
      </trkpt>
      <trkpt lat="47.22295" lon="0.82392">
        <ele>81.91</ele>
        <time>2020-07-01T13:24:29Z</time>
      </trkpt>
      <trkpt lat="47.22293" lon="0.82403">
        <ele>82.84</ele>
        <time>2020-07-01T13:24:30Z</time>
      </trkpt>
      <trkpt lat="47.22291" lon="0.82414">
        <ele>83.71</ele>
        <time>2020-07-01T13:24:31Z</time>
      </trkpt>
      <trkpt lat="47.22289" lon="0.82426">
        <ele>84.68</ele>
        <time>2020-07-01T13:24:32Z</time>
      </trkpt>
      <trkpt lat="47.22287" lon="0.82438">
        <ele>85.71</ele>
        <time>2020-07-01T13:24:33Z</time>
      </trkpt>
      <trkpt lat="47.22284" lon="0.82449">
        <ele>86.3</ele>
        <time>2020-07-01T13:24:34Z</time>
      </trkpt>
      <trkpt lat="47.22281" lon="0.82461">
        <ele>86.25</ele>
        <time>2020-07-01T13:24:35Z</time>
      </trkpt>
      <trkpt lat="47.22277" lon="0.82471">
        <ele>85.95</ele>
        <time>2020-07-01T13:24:36Z</time>
      </trkpt>
      <trkpt lat="47.22273" lon="0.82481">
        <ele>85.71</ele>
        <time>2020-07-01T13:24:37Z</time>
      </trkpt>
      <trkpt lat="47.22269" lon="0.8249">
        <ele>85.57</ele>
        <time>2020-07-01T13:24:38Z</time>
      </trkpt>
      <trkpt lat="47.22266" lon="0.82498">
        <ele>85.55</ele>
        <time>2020-07-01T13:24:39Z</time>
      </trkpt>
      <trkpt lat="47.22263" lon="0.82505">
        <ele>85.4</ele>
        <time>2020-07-01T13:24:40Z</time>
      </trkpt>
      <trkpt lat="47.22262" lon="0.82511">
        <ele>85.31</ele>
        <time>2020-07-01T13:24:41Z</time>
      </trkpt>
      <trkpt lat="47.22261" lon="0.82517">
        <ele>85.28</ele>
        <time>2020-07-01T13:24:42Z</time>
      </trkpt>
      <trkpt lat="47.22261" lon="0.82524">
        <ele>85.23</ele>
        <time>2020-07-01T13:24:43Z</time>
      </trkpt>
      <trkpt lat="47.22261" lon="0.82531">
        <ele>85.04</ele>
        <time>2020-07-01T13:24:44Z</time>
      </trkpt>
      <trkpt lat="47.22263" lon="0.82539">
        <ele>84.61</ele>
        <time>2020-07-01T13:24:45Z</time>
      </trkpt>
      <trkpt lat="47.22265" lon="0.82545">
        <ele>84.4</ele>
        <time>2020-07-01T13:24:46Z</time>
      </trkpt>
      <trkpt lat="47.22268" lon="0.82552">
        <ele>84.35</ele>
        <time>2020-07-01T13:24:47Z</time>
      </trkpt>
      <trkpt lat="47.2227" lon="0.82558">
        <ele>84.21</ele>
        <time>2020-07-01T13:24:48Z</time>
      </trkpt>
      <trkpt lat="47.22273" lon="0.82564">
        <ele>83.94</ele>
        <time>2020-07-01T13:24:49Z</time>
      </trkpt>
      <trkpt lat="47.22275" lon="0.8257">
        <ele>83.66</ele>
        <time>2020-07-01T13:24:50Z</time>
      </trkpt>
      <trkpt lat="47.22277" lon="0.82576">
        <ele>83.43</ele>
        <time>2020-07-01T13:24:51Z</time>
      </trkpt>
      <trkpt lat="47.22279" lon="0.8258">
        <ele>83.51</ele>
        <time>2020-07-01T13:24:52Z</time>
      </trkpt>
      <trkpt lat="47.22281" lon="0.82586">
        <ele>83.77</ele>
        <time>2020-07-01T13:24:54Z</time>
      </trkpt>
      <trkpt lat="47.22282" lon="0.82591">
        <ele>84.1</ele>
        <time>2020-07-01T13:24:57Z</time>
      </trkpt>
      <trkpt lat="47.22282" lon="0.82596">
        <ele>84.23</ele>
        <time>2020-07-01T13:25:00Z</time>
      </trkpt>
      <trkpt lat="47.22283" lon="0.82602">
        <ele>84.55</ele>
        <time>2020-07-01T13:25:02Z</time>
      </trkpt>
      <trkpt lat="47.22283" lon="0.82606">
        <ele>84.64</ele>
        <time>2020-07-01T13:25:03Z</time>
      </trkpt>
      <trkpt lat="47.22283" lon="0.82611">
        <ele>84.75</ele>
        <time>2020-07-01T13:25:04Z</time>
      </trkpt>
      <trkpt lat="47.22283" lon="0.82617">
        <ele>84.46</ele>
        <time>2020-07-01T13:25:05Z</time>
      </trkpt>
      <trkpt lat="47.22282" lon="0.82622">
        <ele>84.1</ele>
        <time>2020-07-01T13:25:06Z</time>
      </trkpt>
      <trkpt lat="47.2228" lon="0.82627">
        <ele>83.66</ele>
        <time>2020-07-01T13:25:07Z</time>
      </trkpt>
      <trkpt lat="47.22276" lon="0.82634">
        <ele>82.86</ele>
        <time>2020-07-01T13:25:08Z</time>
      </trkpt>
      <trkpt lat="47.22271" lon="0.82643">
        <ele>81.7</ele>
        <time>2020-07-01T13:25:09Z</time>
      </trkpt>
      <trkpt lat="47.22267" lon="0.82652">
        <ele>80.95</ele>
        <time>2020-07-01T13:25:10Z</time>
      </trkpt>
      <trkpt lat="47.22263" lon="0.8266">
        <ele>80.39</ele>
        <time>2020-07-01T13:25:11Z</time>
      </trkpt>
      <trkpt lat="47.22259" lon="0.82669">
        <ele>79.32</ele>
        <time>2020-07-01T13:25:12Z</time>
      </trkpt>
      <trkpt lat="47.22254" lon="0.82678">
        <ele>76</ele>
        <time>2020-07-01T13:25:13Z</time>
      </trkpt>
      <trkpt lat="47.2225" lon="0.82686">
        <ele>72.74</ele>
        <time>2020-07-01T13:25:14Z</time>
      </trkpt>
      <trkpt lat="47.22245" lon="0.82692">
        <ele>70.86</ele>
        <time>2020-07-01T13:25:15Z</time>
      </trkpt>
      <trkpt lat="47.22241" lon="0.82697">
        <ele>70.39</ele>
        <time>2020-07-01T13:25:16Z</time>
      </trkpt>
      <trkpt lat="47.22236" lon="0.82701">
        <ele>70.38</ele>
        <time>2020-07-01T13:25:17Z</time>
      </trkpt>
      <trkpt lat="47.22232" lon="0.82707">
        <ele>69.95</ele>
        <time>2020-07-01T13:25:18Z</time>
      </trkpt>
      <trkpt lat="47.22227" lon="0.82712">
        <ele>69.06</ele>
        <time>2020-07-01T13:25:19Z</time>
      </trkpt>
      <trkpt lat="47.22223" lon="0.82719">
        <ele>67.61</ele>
        <time>2020-07-01T13:25:20Z</time>
      </trkpt>
      <trkpt lat="47.22218" lon="0.82725">
        <ele>68.2</ele>
        <time>2020-07-01T13:25:21Z</time>
      </trkpt>
      <trkpt lat="47.22215" lon="0.82731">
        <ele>69.43</ele>
        <time>2020-07-01T13:25:22Z</time>
      </trkpt>
      <trkpt lat="47.22213" lon="0.82737">
        <ele>70.41</ele>
        <time>2020-07-01T13:25:23Z</time>
      </trkpt>
      <trkpt lat="47.22212" lon="0.82743">
        <ele>71.18</ele>
        <time>2020-07-01T13:25:24Z</time>
      </trkpt>
      <trkpt lat="47.2221" lon="0.82752">
        <ele>72.28</ele>
        <time>2020-07-01T13:25:25Z</time>
      </trkpt>
      <trkpt lat="47.22209" lon="0.82761">
        <ele>72.8</ele>
        <time>2020-07-01T13:25:26Z</time>
      </trkpt>
      <trkpt lat="47.22208" lon="0.82771">
        <ele>73.3</ele>
        <time>2020-07-01T13:25:27Z</time>
      </trkpt>
      <trkpt lat="47.22207" lon="0.82781">
        <ele>73.58</ele>
        <time>2020-07-01T13:25:28Z</time>
      </trkpt>
      <trkpt lat="47.22206" lon="0.82791">
        <ele>73.47</ele>
        <time>2020-07-01T13:25:29Z</time>
      </trkpt>
      <trkpt lat="47.22205" lon="0.82801">
        <ele>73.34</ele>
        <time>2020-07-01T13:25:30Z</time>
      </trkpt>
      <trkpt lat="47.22204" lon="0.82811">
        <ele>73.51</ele>
        <time>2020-07-01T13:25:31Z</time>
      </trkpt>
      <trkpt lat="47.22203" lon="0.82823">
        <ele>74.01</ele>
        <time>2020-07-01T13:25:32Z</time>
      </trkpt>
      <trkpt lat="47.22201" lon="0.82835">
        <ele>74.57</ele>
        <time>2020-07-01T13:25:33Z</time>
      </trkpt>
      <trkpt lat="47.222" lon="0.82848">
        <ele>75.02</ele>
        <time>2020-07-01T13:25:34Z</time>
      </trkpt>
      <trkpt lat="47.22199" lon="0.82861">
        <ele>75.5</ele>
        <time>2020-07-01T13:25:35Z</time>
      </trkpt>
      <trkpt lat="47.22198" lon="0.82872">
        <ele>75.96</ele>
        <time>2020-07-01T13:25:36Z</time>
      </trkpt>
      <trkpt lat="47.22197" lon="0.82885">
        <ele>76.5</ele>
        <time>2020-07-01T13:25:37Z</time>
      </trkpt>
      <trkpt lat="47.22196" lon="0.82898">
        <ele>77.07</ele>
        <time>2020-07-01T13:25:38Z</time>
      </trkpt>
      <trkpt lat="47.22195" lon="0.82912">
        <ele>77.72</ele>
        <time>2020-07-01T13:25:39Z</time>
      </trkpt>
      <trkpt lat="47.22195" lon="0.82925">
        <ele>77.29</ele>
        <time>2020-07-01T13:25:40Z</time>
      </trkpt>
      <trkpt lat="47.22195" lon="0.82935">
        <ele>76.57</ele>
        <time>2020-07-01T13:25:41Z</time>
      </trkpt>
      <trkpt lat="47.22196" lon="0.82942">
        <ele>75.89</ele>
        <time>2020-07-01T13:25:42Z</time>
      </trkpt>
      <trkpt lat="47.22198" lon="0.82948">
        <ele>74.99</ele>
        <time>2020-07-01T13:25:43Z</time>
      </trkpt>
      <trkpt lat="47.22203" lon="0.82954">
        <ele>73.53</ele>
        <time>2020-07-01T13:25:44Z</time>
      </trkpt>
      <trkpt lat="47.2221" lon="0.82962">
        <ele>71.66</ele>
        <time>2020-07-01T13:25:45Z</time>
      </trkpt>
      <trkpt lat="47.22217" lon="0.82969">
        <ele>70.01</ele>
        <time>2020-07-01T13:25:46Z</time>
      </trkpt>
      <trkpt lat="47.22225" lon="0.82977">
        <ele>68.16</ele>
        <time>2020-07-01T13:25:47Z</time>
      </trkpt>
      <trkpt lat="47.22231" lon="0.82985">
        <ele>66.62</ele>
        <time>2020-07-01T13:25:48Z</time>
      </trkpt>
      <trkpt lat="47.22236" lon="0.8299">
        <ele>65.52</ele>
        <time>2020-07-01T13:25:49Z</time>
      </trkpt>
      <trkpt lat="47.22241" lon="0.82994">
        <ele>64.54</ele>
        <time>2020-07-01T13:25:50Z</time>
      </trkpt>
      <trkpt lat="47.22248" lon="0.82998">
        <ele>63.3</ele>
        <time>2020-07-01T13:25:51Z</time>
      </trkpt>
      <trkpt lat="47.22255" lon="0.83003">
        <ele>61.88</ele>
        <time>2020-07-01T13:25:52Z</time>
      </trkpt>
      <trkpt lat="47.22264" lon="0.83009">
        <ele>59.65</ele>
        <time>2020-07-01T13:25:53Z</time>
      </trkpt>
      <trkpt lat="47.22274" lon="0.83015">
        <ele>56.88</ele>
        <time>2020-07-01T13:25:54Z</time>
      </trkpt>
      <trkpt lat="47.22283" lon="0.8302">
        <ele>55.7</ele>
        <time>2020-07-01T13:25:55Z</time>
      </trkpt>
      <trkpt lat="47.22293" lon="0.83026">
        <ele>55.64</ele>
        <time>2020-07-01T13:25:56Z</time>
      </trkpt>
      <trkpt lat="47.22302" lon="0.83033">
        <ele>55.73</ele>
        <time>2020-07-01T13:25:57Z</time>
      </trkpt>
      <trkpt lat="47.22311" lon="0.83039">
        <ele>55.44</ele>
        <time>2020-07-01T13:25:58Z</time>
      </trkpt>
      <trkpt lat="47.2232" lon="0.83044">
        <ele>54.81</ele>
        <time>2020-07-01T13:25:59Z</time>
      </trkpt>
      <trkpt lat="47.22328" lon="0.8305">
        <ele>53.91</ele>
        <time>2020-07-01T13:26:00Z</time>
      </trkpt>
      <trkpt lat="47.22337" lon="0.83056">
        <ele>53.51</ele>
        <time>2020-07-01T13:26:01Z</time>
      </trkpt>
      <trkpt lat="47.22343" lon="0.83061">
        <ele>54.26</ele>
        <time>2020-07-01T13:26:02Z</time>
      </trkpt>
      <trkpt lat="47.22347" lon="0.83065">
        <ele>54.8</ele>
        <time>2020-07-01T13:26:03Z</time>
      </trkpt>
      <trkpt lat="47.22349" lon="0.8307">
        <ele>55.03</ele>
        <time>2020-07-01T13:26:04Z</time>
      </trkpt>
      <trkpt lat="47.22349" lon="0.83074">
        <ele>54.97</ele>
        <time>2020-07-01T13:26:05Z</time>
      </trkpt>
      <trkpt lat="47.22349" lon="0.83079">
        <ele>54.89</ele>
        <time>2020-07-01T13:26:06Z</time>
      </trkpt>
      <trkpt lat="47.22349" lon="0.83087">
        <ele>55.31</ele>
        <time>2020-07-01T13:26:07Z</time>
      </trkpt>
      <trkpt lat="47.22344" lon="0.83109">
        <ele>56.83</ele>
        <time>2020-07-01T13:26:08Z</time>
      </trkpt>
      <trkpt lat="47.22341" lon="0.83117">
        <ele>57.68</ele>
        <time>2020-07-01T13:26:10Z</time>
      </trkpt>
      <trkpt lat="47.22338" lon="0.83128">
        <ele>59.1</ele>
        <time>2020-07-01T13:26:11Z</time>
      </trkpt>
      <trkpt lat="47.22334" lon="0.83139">
        <ele>59.4</ele>
        <time>2020-07-01T13:26:12Z</time>
      </trkpt>
      <trkpt lat="47.22329" lon="0.8315">
        <ele>62.84</ele>
        <time>2020-07-01T13:26:13Z</time>
      </trkpt>
      <trkpt lat="47.22324" lon="0.83161">
        <ele>66.01</ele>
        <time>2020-07-01T13:26:14Z</time>
      </trkpt>
      <trkpt lat="47.22319" lon="0.83172">
        <ele>68.05</ele>
        <time>2020-07-01T13:26:15Z</time>
      </trkpt>
      <trkpt lat="47.22314" lon="0.83183">
        <ele>69.12</ele>
        <time>2020-07-01T13:26:16Z</time>
      </trkpt>
      <trkpt lat="47.22309" lon="0.83195">
        <ele>70.04</ele>
        <time>2020-07-01T13:26:17Z</time>
      </trkpt>
      <trkpt lat="47.22303" lon="0.83209">
        <ele>69.5</ele>
        <time>2020-07-01T13:26:18Z</time>
      </trkpt>
      <trkpt lat="47.22297" lon="0.83222">
        <ele>69.14</ele>
        <time>2020-07-01T13:26:19Z</time>
      </trkpt>
      <trkpt lat="47.2229" lon="0.83235">
        <ele>66.59</ele>
        <time>2020-07-01T13:26:20Z</time>
      </trkpt>
      <trkpt lat="47.22284" lon="0.83246">
        <ele>66.61</ele>
        <time>2020-07-01T13:26:21Z</time>
      </trkpt>
      <trkpt lat="47.22278" lon="0.83257">
        <ele>68.21</ele>
        <time>2020-07-01T13:26:22Z</time>
      </trkpt>
      <trkpt lat="47.22271" lon="0.83268">
        <ele>66.05</ele>
        <time>2020-07-01T13:26:23Z</time>
      </trkpt>
      <trkpt lat="47.22265" lon="0.83278">
        <ele>63.98</ele>
        <time>2020-07-01T13:26:24Z</time>
      </trkpt>
      <trkpt lat="47.22259" lon="0.83288">
        <ele>63.92</ele>
        <time>2020-07-01T13:26:25Z</time>
      </trkpt>
      <trkpt lat="47.22253" lon="0.83297">
        <ele>64.82</ele>
        <time>2020-07-01T13:26:26Z</time>
      </trkpt>
      <trkpt lat="47.22247" lon="0.83305">
        <ele>66.51</ele>
        <time>2020-07-01T13:26:27Z</time>
      </trkpt>
      <trkpt lat="47.2224" lon="0.8331">
        <ele>66.5</ele>
        <time>2020-07-01T13:26:28Z</time>
      </trkpt>
      <trkpt lat="47.22232" lon="0.83314">
        <ele>66.08</ele>
        <time>2020-07-01T13:26:29Z</time>
      </trkpt>
      <trkpt lat="47.22224" lon="0.83318">
        <ele>65.56</ele>
        <time>2020-07-01T13:26:30Z</time>
      </trkpt>
      <trkpt lat="47.22214" lon="0.83322">
        <ele>63.23</ele>
        <time>2020-07-01T13:26:31Z</time>
      </trkpt>
      <trkpt lat="47.22205" lon="0.83327">
        <ele>60.88</ele>
        <time>2020-07-01T13:26:32Z</time>
      </trkpt>
      <trkpt lat="47.22195" lon="0.83331">
        <ele>58.01</ele>
        <time>2020-07-01T13:26:33Z</time>
      </trkpt>
      <trkpt lat="47.22186" lon="0.83335">
        <ele>57.32</ele>
        <time>2020-07-01T13:26:34Z</time>
      </trkpt>
      <trkpt lat="47.22176" lon="0.83339">
        <ele>57.03</ele>
        <time>2020-07-01T13:26:35Z</time>
      </trkpt>
      <trkpt lat="47.22168" lon="0.83342">
        <ele>56.97</ele>
        <time>2020-07-01T13:26:36Z</time>
      </trkpt>
      <trkpt lat="47.22159" lon="0.83346">
        <ele>57.98</ele>
        <time>2020-07-01T13:26:37Z</time>
      </trkpt>
      <trkpt lat="47.22151" lon="0.83352">
        <ele>58.44</ele>
        <time>2020-07-01T13:26:38Z</time>
      </trkpt>
      <trkpt lat="47.22144" lon="0.83357">
        <ele>57.93</ele>
        <time>2020-07-01T13:26:39Z</time>
      </trkpt>
      <trkpt lat="47.22136" lon="0.83363">
        <ele>57.31</ele>
        <time>2020-07-01T13:26:40Z</time>
      </trkpt>
      <trkpt lat="47.22129" lon="0.83369">
        <ele>57.77</ele>
        <time>2020-07-01T13:26:41Z</time>
      </trkpt>
      <trkpt lat="47.22121" lon="0.83375">
        <ele>57.68</ele>
        <time>2020-07-01T13:26:42Z</time>
      </trkpt>
      <trkpt lat="47.22114" lon="0.83383">
        <ele>56.84</ele>
        <time>2020-07-01T13:26:43Z</time>
      </trkpt>
      <trkpt lat="47.22107" lon="0.83392">
        <ele>56.13</ele>
        <time>2020-07-01T13:26:44Z</time>
      </trkpt>
      <trkpt lat="47.221" lon="0.83403">
        <ele>56.2</ele>
        <time>2020-07-01T13:26:45Z</time>
      </trkpt>
      <trkpt lat="47.22094" lon="0.83415">
        <ele>56.04</ele>
        <time>2020-07-01T13:26:46Z</time>
      </trkpt>
      <trkpt lat="47.22088" lon="0.83427">
        <ele>56.68</ele>
        <time>2020-07-01T13:26:47Z</time>
      </trkpt>
      <trkpt lat="47.22082" lon="0.83438">
        <ele>57.37</ele>
        <time>2020-07-01T13:26:48Z</time>
      </trkpt>
      <trkpt lat="47.22077" lon="0.83449">
        <ele>57.85</ele>
        <time>2020-07-01T13:26:49Z</time>
      </trkpt>
      <trkpt lat="47.22073" lon="0.83459">
        <ele>58.65</ele>
        <time>2020-07-01T13:26:50Z</time>
      </trkpt>
      <trkpt lat="47.22069" lon="0.83468">
        <ele>59.43</ele>
        <time>2020-07-01T13:26:51Z</time>
      </trkpt>
      <trkpt lat="47.22064" lon="0.83473">
        <ele>59.69</ele>
        <time>2020-07-01T13:26:52Z</time>
      </trkpt>
      <trkpt lat="47.22058" lon="0.83478">
        <ele>59.8</ele>
        <time>2020-07-01T13:26:53Z</time>
      </trkpt>
      <trkpt lat="47.22052" lon="0.83483">
        <ele>59.96</ele>
        <time>2020-07-01T13:26:54Z</time>
      </trkpt>
      <trkpt lat="47.22046" lon="0.83489">
        <ele>60.33</ele>
        <time>2020-07-01T13:26:55Z</time>
      </trkpt>
      <trkpt lat="47.22041" lon="0.83495">
        <ele>60.84</ele>
        <time>2020-07-01T13:26:56Z</time>
      </trkpt>
      <trkpt lat="47.22035" lon="0.83499">
        <ele>61.13</ele>
        <time>2020-07-01T13:26:57Z</time>
      </trkpt>
      <trkpt lat="47.22028" lon="0.83502">
        <ele>61.22</ele>
        <time>2020-07-01T13:26:58Z</time>
      </trkpt>
      <trkpt lat="47.2202" lon="0.83505">
        <ele>60.8</ele>
        <time>2020-07-01T13:26:59Z</time>
      </trkpt>
      <trkpt lat="47.22009" lon="0.83508">
        <ele>60.23</ele>
        <time>2020-07-01T13:27:00Z</time>
      </trkpt>
      <trkpt lat="47.21998" lon="0.83512">
        <ele>60.16</ele>
        <time>2020-07-01T13:27:01Z</time>
      </trkpt>
      <trkpt lat="47.21987" lon="0.83518">
        <ele>61.24</ele>
        <time>2020-07-01T13:27:02Z</time>
      </trkpt>
      <trkpt lat="47.21976" lon="0.83525">
        <ele>62.5</ele>
        <time>2020-07-01T13:27:03Z</time>
      </trkpt>
      <trkpt lat="47.21967" lon="0.83532">
        <ele>63.6</ele>
        <time>2020-07-01T13:27:04Z</time>
      </trkpt>
      <trkpt lat="47.21958" lon="0.83542">
        <ele>64.77</ele>
        <time>2020-07-01T13:27:05Z</time>
      </trkpt>
      <trkpt lat="47.21952" lon="0.83553">
        <ele>65.92</ele>
        <time>2020-07-01T13:27:06Z</time>
      </trkpt>
      <trkpt lat="47.21947" lon="0.83564">
        <ele>69.74</ele>
        <time>2020-07-01T13:27:07Z</time>
      </trkpt>
      <trkpt lat="47.21943" lon="0.83576">
        <ele>76.1</ele>
        <time>2020-07-01T13:27:08Z</time>
      </trkpt>
      <trkpt lat="47.2194" lon="0.83588">
        <ele>81.39</ele>
        <time>2020-07-01T13:27:09Z</time>
      </trkpt>
      <trkpt lat="47.21937" lon="0.836">
        <ele>84.93</ele>
        <time>2020-07-01T13:27:10Z</time>
      </trkpt>
      <trkpt lat="47.21934" lon="0.83611">
        <ele>87.71</ele>
        <time>2020-07-01T13:27:11Z</time>
      </trkpt>
      <trkpt lat="47.2193" lon="0.8362">
        <ele>86.07</ele>
        <time>2020-07-01T13:27:12Z</time>
      </trkpt>
      <trkpt lat="47.21926" lon="0.83628">
        <ele>84.4</ele>
        <time>2020-07-01T13:27:13Z</time>
      </trkpt>
      <trkpt lat="47.2192" lon="0.83634">
        <ele>82.35</ele>
        <time>2020-07-01T13:27:14Z</time>
      </trkpt>
      <trkpt lat="47.21913" lon="0.83639">
        <ele>80.22</ele>
        <time>2020-07-01T13:27:15Z</time>
      </trkpt>
      <trkpt lat="47.21906" lon="0.83642">
        <ele>79.2</ele>
        <time>2020-07-01T13:27:16Z</time>
      </trkpt>
      <trkpt lat="47.21899" lon="0.83645">
        <ele>78.4</ele>
        <time>2020-07-01T13:27:17Z</time>
      </trkpt>
      <trkpt lat="47.21893" lon="0.83648">
        <ele>77.99</ele>
        <time>2020-07-01T13:27:18Z</time>
      </trkpt>
      <trkpt lat="47.21886" lon="0.83651">
        <ele>78.45</ele>
        <time>2020-07-01T13:27:19Z</time>
      </trkpt>
      <trkpt lat="47.2188" lon="0.83654">
        <ele>79.86</ele>
        <time>2020-07-01T13:27:20Z</time>
      </trkpt>
      <trkpt lat="47.21873" lon="0.83657">
        <ele>81.13</ele>
        <time>2020-07-01T13:27:21Z</time>
      </trkpt>
      <trkpt lat="47.21866" lon="0.83661">
        <ele>82.24</ele>
        <time>2020-07-01T13:27:22Z</time>
      </trkpt>
      <trkpt lat="47.21858" lon="0.83666">
        <ele>83.06</ele>
        <time>2020-07-01T13:27:23Z</time>
      </trkpt>
      <trkpt lat="47.2185" lon="0.83673">
        <ele>83.67</ele>
        <time>2020-07-01T13:27:24Z</time>
      </trkpt>
      <trkpt lat="47.21843" lon="0.8368">
        <ele>84.59</ele>
        <time>2020-07-01T13:27:25Z</time>
      </trkpt>
      <trkpt lat="47.21836" lon="0.83687">
        <ele>85.89</ele>
        <time>2020-07-01T13:27:26Z</time>
      </trkpt>
      <trkpt lat="47.21828" lon="0.83693">
        <ele>86.28</ele>
        <time>2020-07-01T13:27:27Z</time>
      </trkpt>
      <trkpt lat="47.21821" lon="0.83699">
        <ele>84.28</ele>
        <time>2020-07-01T13:27:28Z</time>
      </trkpt>
      <trkpt lat="47.21813" lon="0.83705">
        <ele>82.47</ele>
        <time>2020-07-01T13:27:29Z</time>
      </trkpt>
      <trkpt lat="47.21805" lon="0.8371">
        <ele>81.71</ele>
        <time>2020-07-01T13:27:30Z</time>
      </trkpt>
      <trkpt lat="47.21797" lon="0.83715">
        <ele>80.56</ele>
        <time>2020-07-01T13:27:31Z</time>
      </trkpt>
      <trkpt lat="47.21791" lon="0.83718">
        <ele>80.13</ele>
        <time>2020-07-01T13:27:32Z</time>
      </trkpt>
      <trkpt lat="47.21785" lon="0.83719">
        <ele>79.95</ele>
        <time>2020-07-01T13:27:33Z</time>
      </trkpt>
      <trkpt lat="47.2178" lon="0.8372">
        <ele>79.88</ele>
        <time>2020-07-01T13:27:34Z</time>
      </trkpt>
      <trkpt lat="47.21775" lon="0.8372">
        <ele>80.13</ele>
        <time>2020-07-01T13:27:35Z</time>
      </trkpt>
      <trkpt lat="47.2177" lon="0.83721">
        <ele>80.74</ele>
        <time>2020-07-01T13:27:36Z</time>
      </trkpt>
      <trkpt lat="47.21766" lon="0.83721">
        <ele>81.17</ele>
        <time>2020-07-01T13:27:37Z</time>
      </trkpt>
      <trkpt lat="47.21763" lon="0.83722">
        <ele>81.58</ele>
        <time>2020-07-01T13:27:38Z</time>
      </trkpt>
      <trkpt lat="47.2176" lon="0.83722">
        <ele>81.9</ele>
        <time>2020-07-01T13:27:39Z</time>
      </trkpt>
      <trkpt lat="47.21756" lon="0.83721">
        <ele>82.23</ele>
        <time>2020-07-01T13:27:59Z</time>
      </trkpt>
      <trkpt lat="47.21752" lon="0.83719">
        <ele>82.44</ele>
        <time>2020-07-01T13:28:00Z</time>
      </trkpt>
      <trkpt lat="47.21747" lon="0.83715">
        <ele>82.6</ele>
        <time>2020-07-01T13:28:01Z</time>
      </trkpt>
      <trkpt lat="47.21741" lon="0.83709">
        <ele>82.56</ele>
        <time>2020-07-01T13:28:02Z</time>
      </trkpt>
      <trkpt lat="47.21733" lon="0.83703">
        <ele>82.52</ele>
        <time>2020-07-01T13:28:03Z</time>
      </trkpt>
      <trkpt lat="47.21724" lon="0.83699">
        <ele>82.67</ele>
        <time>2020-07-01T13:28:04Z</time>
      </trkpt>
      <trkpt lat="47.21715" lon="0.83694">
        <ele>84</ele>
        <time>2020-07-01T13:28:05Z</time>
      </trkpt>
      <trkpt lat="47.21706" lon="0.83689">
        <ele>85.58</ele>
        <time>2020-07-01T13:28:06Z</time>
      </trkpt>
      <trkpt lat="47.21697" lon="0.83681">
        <ele>86.4</ele>
        <time>2020-07-01T13:28:07Z</time>
      </trkpt>
      <trkpt lat="47.21689" lon="0.83672">
        <ele>84.65</ele>
        <time>2020-07-01T13:28:08Z</time>
      </trkpt>
      <trkpt lat="47.21681" lon="0.83662">
        <ele>82.85</ele>
        <time>2020-07-01T13:28:09Z</time>
      </trkpt>
      <trkpt lat="47.21673" lon="0.83653">
        <ele>82.77</ele>
        <time>2020-07-01T13:28:10Z</time>
      </trkpt>
      <trkpt lat="47.21665" lon="0.83643">
        <ele>83.64</ele>
        <time>2020-07-01T13:28:11Z</time>
      </trkpt>
      <trkpt lat="47.21657" lon="0.83633">
        <ele>83.03</ele>
        <time>2020-07-01T13:28:12Z</time>
      </trkpt>
      <trkpt lat="47.21648" lon="0.83623">
        <ele>82.19</ele>
        <time>2020-07-01T13:28:13Z</time>
      </trkpt>
      <trkpt lat="47.2164" lon="0.83614">
        <ele>82.04</ele>
        <time>2020-07-01T13:28:14Z</time>
      </trkpt>
      <trkpt lat="47.21632" lon="0.83605">
        <ele>80.95</ele>
        <time>2020-07-01T13:28:14Z</time>
      </trkpt>
      <trkpt lat="47.21605" lon="0.83578">
        <ele>83.92</ele>
        <time>2020-07-01T13:28:17Z</time>
      </trkpt>
      <trkpt lat="47.21594" lon="0.83557">
        <ele>88.21</ele>
        <time>2020-07-01T13:28:18Z</time>
      </trkpt>
      <trkpt lat="47.21589" lon="0.83553">
        <ele>89.96</ele>
        <time>2020-07-01T13:28:20Z</time>
      </trkpt>
      <trkpt lat="47.21581" lon="0.83546">
        <ele>92.23</ele>
        <time>2020-07-01T13:28:21Z</time>
      </trkpt>
      <trkpt lat="47.21573" lon="0.83537">
        <ele>94</ele>
        <time>2020-07-01T13:28:22Z</time>
      </trkpt>
      <trkpt lat="47.21566" lon="0.83528">
        <ele>95.84</ele>
        <time>2020-07-01T13:28:23Z</time>
      </trkpt>
      <trkpt lat="47.21559" lon="0.8352">
        <ele>94.53</ele>
        <time>2020-07-01T13:28:24Z</time>
      </trkpt>
      <trkpt lat="47.21551" lon="0.83511">
        <ele>92.87</ele>
        <time>2020-07-01T13:28:25Z</time>
      </trkpt>
      <trkpt lat="47.21544" lon="0.83502">
        <ele>91.57</ele>
        <time>2020-07-01T13:28:26Z</time>
      </trkpt>
      <trkpt lat="47.21538" lon="0.83492">
        <ele>89.91</ele>
        <time>2020-07-01T13:28:27Z</time>
      </trkpt>
      <trkpt lat="47.21533" lon="0.83482">
        <ele>87.62</ele>
        <time>2020-07-01T13:28:28Z</time>
      </trkpt>
      <trkpt lat="47.21527" lon="0.83472">
        <ele>84.9</ele>
        <time>2020-07-01T13:28:29Z</time>
      </trkpt>
      <trkpt lat="47.21523" lon="0.83465">
        <ele>83.01</ele>
        <time>2020-07-01T13:28:30Z</time>
      </trkpt>
      <trkpt lat="47.21521" lon="0.83458">
        <ele>81.19</ele>
        <time>2020-07-01T13:28:31Z</time>
      </trkpt>
      <trkpt lat="47.21519" lon="0.83452">
        <ele>79.54</ele>
        <time>2020-07-01T13:28:32Z</time>
      </trkpt>
      <trkpt lat="47.21518" lon="0.83448">
        <ele>78.45</ele>
        <time>2020-07-01T13:28:33Z</time>
      </trkpt>
      <trkpt lat="47.21515" lon="0.83446">
        <ele>77.55</ele>
        <time>2020-07-01T13:28:35Z</time>
      </trkpt>
      <trkpt lat="47.21512" lon="0.83445">
        <ele>76.87</ele>
        <time>2020-07-01T13:28:36Z</time>
      </trkpt>
      <trkpt lat="47.21507" lon="0.83444">
        <ele>75.92</ele>
        <time>2020-07-01T13:28:37Z</time>
      </trkpt>
      <trkpt lat="47.21498" lon="0.83444">
        <ele>74.99</ele>
        <time>2020-07-01T13:28:38Z</time>
      </trkpt>
      <trkpt lat="47.21486" lon="0.83443">
        <ele>75.27</ele>
        <time>2020-07-01T13:28:39Z</time>
      </trkpt>
      <trkpt lat="47.21473" lon="0.8344">
        <ele>75.33</ele>
        <time>2020-07-01T13:28:40Z</time>
      </trkpt>
      <trkpt lat="47.21463" lon="0.83437">
        <ele>74.86</ele>
        <time>2020-07-01T13:28:41Z</time>
      </trkpt>
      <trkpt lat="47.21455" lon="0.83432">
        <ele>74.42</ele>
        <time>2020-07-01T13:28:42Z</time>
      </trkpt>
      <trkpt lat="47.21448" lon="0.83427">
        <ele>74.26</ele>
        <time>2020-07-01T13:28:43Z</time>
      </trkpt>
      <trkpt lat="47.21441" lon="0.83425">
        <ele>74.34</ele>
        <time>2020-07-01T13:28:44Z</time>
      </trkpt>
      <trkpt lat="47.2143" lon="0.83425">
        <ele>74.46</ele>
        <time>2020-07-01T13:28:45Z</time>
      </trkpt>
      <trkpt lat="47.2142" lon="0.83426">
        <ele>74.63</ele>
        <time>2020-07-01T13:28:46Z</time>
      </trkpt>
      <trkpt lat="47.21411" lon="0.83429">
        <ele>74.62</ele>
        <time>2020-07-01T13:28:47Z</time>
      </trkpt>
      <trkpt lat="47.21404" lon="0.83433">
        <ele>74.37</ele>
        <time>2020-07-01T13:28:48Z</time>
      </trkpt>
      <trkpt lat="47.21398" lon="0.83434">
        <ele>73.99</ele>
        <time>2020-07-01T13:28:49Z</time>
      </trkpt>
      <trkpt lat="47.21395" lon="0.83434">
        <ele>73.79</ele>
        <time>2020-07-01T13:28:50Z</time>
      </trkpt>
      <trkpt lat="47.21392" lon="0.83432">
        <ele>73.63</ele>
        <time>2020-07-01T13:28:51Z</time>
      </trkpt>
      <trkpt lat="47.2139" lon="0.83425">
        <ele>73.74</ele>
        <time>2020-07-01T13:28:52Z</time>
      </trkpt>
      <trkpt lat="47.21386" lon="0.83415">
        <ele>74.14</ele>
        <time>2020-07-01T13:28:53Z</time>
      </trkpt>
      <trkpt lat="47.21381" lon="0.83405">
        <ele>75.32</ele>
        <time>2020-07-01T13:28:54Z</time>
      </trkpt>
      <trkpt lat="47.21376" lon="0.83394">
        <ele>77.15</ele>
        <time>2020-07-01T13:28:55Z</time>
      </trkpt>
      <trkpt lat="47.2137" lon="0.83383">
        <ele>78.65</ele>
        <time>2020-07-01T13:28:56Z</time>
      </trkpt>
      <trkpt lat="47.21365" lon="0.83371">
        <ele>79.35</ele>
        <time>2020-07-01T13:28:57Z</time>
      </trkpt>
      <trkpt lat="47.21359" lon="0.8336">
        <ele>79.85</ele>
        <time>2020-07-01T13:28:58Z</time>
      </trkpt>
      <trkpt lat="47.21354" lon="0.83349">
        <ele>79.49</ele>
        <time>2020-07-01T13:28:59Z</time>
      </trkpt>
      <trkpt lat="47.21348" lon="0.83337">
        <ele>79.06</ele>
        <time>2020-07-01T13:29:00Z</time>
      </trkpt>
      <trkpt lat="47.21343" lon="0.83326">
        <ele>78.34</ele>
        <time>2020-07-01T13:29:01Z</time>
      </trkpt>
      <trkpt lat="47.21338" lon="0.83313">
        <ele>77.48</ele>
        <time>2020-07-01T13:29:02Z</time>
      </trkpt>
      <trkpt lat="47.21332" lon="0.83301">
        <ele>76.69</ele>
        <time>2020-07-01T13:29:03Z</time>
      </trkpt>
      <trkpt lat="47.21326" lon="0.83288">
        <ele>75.58</ele>
        <time>2020-07-01T13:29:04Z</time>
      </trkpt>
      <trkpt lat="47.2132" lon="0.83275">
        <ele>74.51</ele>
        <time>2020-07-01T13:29:05Z</time>
      </trkpt>
      <trkpt lat="47.21314" lon="0.83263">
        <ele>73.54</ele>
        <time>2020-07-01T13:29:06Z</time>
      </trkpt>
      <trkpt lat="47.21308" lon="0.83251">
        <ele>72.38</ele>
        <time>2020-07-01T13:29:07Z</time>
      </trkpt>
      <trkpt lat="47.213" lon="0.8324">
        <ele>71.17</ele>
        <time>2020-07-01T13:29:08Z</time>
      </trkpt>
      <trkpt lat="47.21292" lon="0.83231">
        <ele>70.01</ele>
        <time>2020-07-01T13:29:09Z</time>
      </trkpt>
      <trkpt lat="47.21281" lon="0.83223">
        <ele>68.4</ele>
        <time>2020-07-01T13:29:10Z</time>
      </trkpt>
      <trkpt lat="47.21271" lon="0.83217">
        <ele>67.08</ele>
        <time>2020-07-01T13:29:11Z</time>
      </trkpt>
      <trkpt lat="47.21262" lon="0.83211">
        <ele>65.89</ele>
        <time>2020-07-01T13:29:12Z</time>
      </trkpt>
      <trkpt lat="47.21253" lon="0.83204">
        <ele>64.67</ele>
        <time>2020-07-01T13:29:13Z</time>
      </trkpt>
      <trkpt lat="47.21245" lon="0.83198">
        <ele>64.15</ele>
        <time>2020-07-01T13:29:14Z</time>
      </trkpt>
      <trkpt lat="47.21237" lon="0.83192">
        <ele>63.96</ele>
        <time>2020-07-01T13:29:15Z</time>
      </trkpt>
      <trkpt lat="47.21229" lon="0.83188">
        <ele>63.82</ele>
        <time>2020-07-01T13:29:16Z</time>
      </trkpt>
      <trkpt lat="47.21221" lon="0.83184">
        <ele>63.8</ele>
        <time>2020-07-01T13:29:17Z</time>
      </trkpt>
      <trkpt lat="47.21213" lon="0.83179">
        <ele>64.77</ele>
        <time>2020-07-01T13:29:18Z</time>
      </trkpt>
      <trkpt lat="47.21205" lon="0.83174">
        <ele>65.74</ele>
        <time>2020-07-01T13:29:19Z</time>
      </trkpt>
      <trkpt lat="47.21196" lon="0.83168">
        <ele>66.82</ele>
        <time>2020-07-01T13:29:20Z</time>
      </trkpt>
      <trkpt lat="47.21188" lon="0.83161">
        <ele>68.19</ele>
        <time>2020-07-01T13:29:21Z</time>
      </trkpt>
      <trkpt lat="47.21179" lon="0.83155">
        <ele>69.36</ele>
        <time>2020-07-01T13:29:22Z</time>
      </trkpt>
      <trkpt lat="47.2117" lon="0.83151">
        <ele>70.16</ele>
        <time>2020-07-01T13:29:23Z</time>
      </trkpt>
      <trkpt lat="47.21161" lon="0.83147">
        <ele>69.86</ele>
        <time>2020-07-01T13:29:24Z</time>
      </trkpt>
      <trkpt lat="47.21152" lon="0.83145">
        <ele>68.98</ele>
        <time>2020-07-01T13:29:25Z</time>
      </trkpt>
      <trkpt lat="47.21143" lon="0.83143">
        <ele>67.97</ele>
        <time>2020-07-01T13:29:26Z</time>
      </trkpt>
      <trkpt lat="47.21134" lon="0.83141">
        <ele>67.49</ele>
        <time>2020-07-01T13:29:27Z</time>
      </trkpt>
      <trkpt lat="47.21125" lon="0.83139">
        <ele>67.52</ele>
        <time>2020-07-01T13:29:28Z</time>
      </trkpt>
      <trkpt lat="47.21115" lon="0.83136">
        <ele>67.55</ele>
        <time>2020-07-01T13:29:29Z</time>
      </trkpt>
      <trkpt lat="47.21106" lon="0.83133">
        <ele>67.99</ele>
        <time>2020-07-01T13:29:30Z</time>
      </trkpt>
      <trkpt lat="47.21096" lon="0.83129">
        <ele>68.95</ele>
        <time>2020-07-01T13:29:31Z</time>
      </trkpt>
      <trkpt lat="47.21086" lon="0.83125">
        <ele>70.12</ele>
        <time>2020-07-01T13:29:32Z</time>
      </trkpt>
      <trkpt lat="47.21076" lon="0.83124">
        <ele>70.22</ele>
        <time>2020-07-01T13:29:33Z</time>
      </trkpt>
      <trkpt lat="47.21067" lon="0.83124">
        <ele>69.92</ele>
        <time>2020-07-01T13:29:34Z</time>
      </trkpt>
      <trkpt lat="47.21058" lon="0.83124">
        <ele>69.62</ele>
        <time>2020-07-01T13:29:35Z</time>
      </trkpt>
      <trkpt lat="47.2105" lon="0.83126">
        <ele>70.46</ele>
        <time>2020-07-01T13:29:36Z</time>
      </trkpt>
      <trkpt lat="47.21042" lon="0.83131">
        <ele>71.72</ele>
        <time>2020-07-01T13:29:37Z</time>
      </trkpt>
      <trkpt lat="47.21034" lon="0.83137">
        <ele>72.95</ele>
        <time>2020-07-01T13:29:38Z</time>
      </trkpt>
      <trkpt lat="47.21027" lon="0.83142">
        <ele>73.68</ele>
        <time>2020-07-01T13:29:39Z</time>
      </trkpt>
      <trkpt lat="47.2102" lon="0.83145">
        <ele>71.85</ele>
        <time>2020-07-01T13:29:40Z</time>
      </trkpt>
      <trkpt lat="47.21012" lon="0.83148">
        <ele>70.06</ele>
        <time>2020-07-01T13:29:41Z</time>
      </trkpt>
      <trkpt lat="47.21004" lon="0.8315">
        <ele>68.46</ele>
        <time>2020-07-01T13:29:42Z</time>
      </trkpt>
      <trkpt lat="47.20995" lon="0.83153">
        <ele>67.85</ele>
        <time>2020-07-01T13:29:43Z</time>
      </trkpt>
      <trkpt lat="47.20986" lon="0.83157">
        <ele>67.8</ele>
        <time>2020-07-01T13:29:44Z</time>
      </trkpt>
      <trkpt lat="47.20977" lon="0.83162">
        <ele>67.4</ele>
        <time>2020-07-01T13:29:45Z</time>
      </trkpt>
      <trkpt lat="47.20968" lon="0.83166">
        <ele>66.85</ele>
        <time>2020-07-01T13:29:46Z</time>
      </trkpt>
      <trkpt lat="47.20959" lon="0.83171">
        <ele>67.07</ele>
        <time>2020-07-01T13:29:47Z</time>
      </trkpt>
      <trkpt lat="47.2095" lon="0.83174">
        <ele>67.04</ele>
        <time>2020-07-01T13:29:48Z</time>
      </trkpt>
      <trkpt lat="47.20942" lon="0.83176">
        <ele>67.01</ele>
        <time>2020-07-01T13:29:49Z</time>
      </trkpt>
      <trkpt lat="47.20932" lon="0.83177">
        <ele>67.06</ele>
        <time>2020-07-01T13:29:50Z</time>
      </trkpt>
      <trkpt lat="47.20921" lon="0.83177">
        <ele>67.02</ele>
        <time>2020-07-01T13:29:51Z</time>
      </trkpt>
      <trkpt lat="47.20911" lon="0.83177">
        <ele>67.56</ele>
        <time>2020-07-01T13:29:52Z</time>
      </trkpt>
      <trkpt lat="47.20901" lon="0.83177">
        <ele>68.55</ele>
        <time>2020-07-01T13:29:53Z</time>
      </trkpt>
      <trkpt lat="47.20892" lon="0.83177">
        <ele>69.44</ele>
        <time>2020-07-01T13:29:54Z</time>
      </trkpt>
      <trkpt lat="47.20883" lon="0.83177">
        <ele>70.36</ele>
        <time>2020-07-01T13:29:55Z</time>
      </trkpt>
      <trkpt lat="47.20874" lon="0.83176">
        <ele>71.28</ele>
        <time>2020-07-01T13:29:56Z</time>
      </trkpt>
      <trkpt lat="47.20866" lon="0.83175">
        <ele>72.15</ele>
        <time>2020-07-01T13:29:57Z</time>
      </trkpt>
      <trkpt lat="47.20857" lon="0.83172">
        <ele>72.33</ele>
        <time>2020-07-01T13:29:58Z</time>
      </trkpt>
      <trkpt lat="47.20848" lon="0.83169">
        <ele>71.19</ele>
        <time>2020-07-01T13:29:59Z</time>
      </trkpt>
      <trkpt lat="47.20839" lon="0.83166">
        <ele>69.92</ele>
        <time>2020-07-01T13:30:00Z</time>
      </trkpt>
      <trkpt lat="47.20829" lon="0.83163">
        <ele>70.83</ele>
        <time>2020-07-01T13:30:01Z</time>
      </trkpt>
      <trkpt lat="47.2082" lon="0.83161">
        <ele>73.47</ele>
        <time>2020-07-01T13:30:02Z</time>
      </trkpt>
      <trkpt lat="47.20811" lon="0.83158">
        <ele>75.99</ele>
        <time>2020-07-01T13:30:03Z</time>
      </trkpt>
      <trkpt lat="47.20803" lon="0.83155">
        <ele>77.74</ele>
        <time>2020-07-01T13:30:04Z</time>
      </trkpt>
      <trkpt lat="47.20794" lon="0.83152">
        <ele>78.71</ele>
        <time>2020-07-01T13:30:05Z</time>
      </trkpt>
      <trkpt lat="47.20785" lon="0.83148">
        <ele>79.13</ele>
        <time>2020-07-01T13:30:06Z</time>
      </trkpt>
      <trkpt lat="47.20776" lon="0.83144">
        <ele>79.07</ele>
        <time>2020-07-01T13:30:07Z</time>
      </trkpt>
      <trkpt lat="47.20767" lon="0.83141">
        <ele>79.67</ele>
        <time>2020-07-01T13:30:08Z</time>
      </trkpt>
      <trkpt lat="47.20758" lon="0.83137">
        <ele>80.82</ele>
        <time>2020-07-01T13:30:09Z</time>
      </trkpt>
      <trkpt lat="47.20748" lon="0.83132">
        <ele>80.83</ele>
        <time>2020-07-01T13:30:10Z</time>
      </trkpt>
      <trkpt lat="47.2074" lon="0.83128">
        <ele>77.48</ele>
        <time>2020-07-01T13:30:11Z</time>
      </trkpt>
      <trkpt lat="47.20732" lon="0.83123">
        <ele>75.04</ele>
        <time>2020-07-01T13:30:12Z</time>
      </trkpt>
      <trkpt lat="47.20724" lon="0.83119">
        <ele>73.28</ele>
        <time>2020-07-01T13:30:13Z</time>
      </trkpt>
      <trkpt lat="47.20716" lon="0.83114">
        <ele>71.87</ele>
        <time>2020-07-01T13:30:14Z</time>
      </trkpt>
      <trkpt lat="47.20708" lon="0.83111">
        <ele>69.37</ele>
        <time>2020-07-01T13:30:15Z</time>
      </trkpt>
      <trkpt lat="47.207" lon="0.83108">
        <ele>66.67</ele>
        <time>2020-07-01T13:30:16Z</time>
      </trkpt>
      <trkpt lat="47.20692" lon="0.83106">
        <ele>65.18</ele>
        <time>2020-07-01T13:30:17Z</time>
      </trkpt>
      <trkpt lat="47.20682" lon="0.83105">
        <ele>65.62</ele>
        <time>2020-07-01T13:30:18Z</time>
      </trkpt>
      <trkpt lat="47.20673" lon="0.83103">
        <ele>65.94</ele>
        <time>2020-07-01T13:30:19Z</time>
      </trkpt>
      <trkpt lat="47.20663" lon="0.83102">
        <ele>65.69</ele>
        <time>2020-07-01T13:30:20Z</time>
      </trkpt>
      <trkpt lat="47.20654" lon="0.83101">
        <ele>64.92</ele>
        <time>2020-07-01T13:30:21Z</time>
      </trkpt>
      <trkpt lat="47.20645" lon="0.831">
        <ele>64.13</ele>
        <time>2020-07-01T13:30:22Z</time>
      </trkpt>
      <trkpt lat="47.20624" lon="0.83098">
        <ele>64.6</ele>
        <time>2020-07-01T13:30:23Z</time>
      </trkpt>
      <trkpt lat="47.20618" lon="0.83099">
        <ele>65.07</ele>
        <time>2020-07-01T13:30:25Z</time>
      </trkpt>
      <trkpt lat="47.20612" lon="0.83099">
        <ele>65.5</ele>
        <time>2020-07-01T13:30:26Z</time>
      </trkpt>
      <trkpt lat="47.20605" lon="0.83102">
        <ele>65.6</ele>
        <time>2020-07-01T13:30:27Z</time>
      </trkpt>
      <trkpt lat="47.20597" lon="0.83105">
        <ele>65.5</ele>
        <time>2020-07-01T13:30:28Z</time>
      </trkpt>
      <trkpt lat="47.20589" lon="0.83109">
        <ele>65.25</ele>
        <time>2020-07-01T13:30:29Z</time>
      </trkpt>
      <trkpt lat="47.20581" lon="0.83114">
        <ele>65.2</ele>
        <time>2020-07-01T13:30:30Z</time>
      </trkpt>
      <trkpt lat="47.20573" lon="0.83118">
        <ele>66.27</ele>
        <time>2020-07-01T13:30:31Z</time>
      </trkpt>
      <trkpt lat="47.20565" lon="0.83122">
        <ele>67.26</ele>
        <time>2020-07-01T13:30:32Z</time>
      </trkpt>
      <trkpt lat="47.20556" lon="0.83127">
        <ele>68.21</ele>
        <time>2020-07-01T13:30:33Z</time>
      </trkpt>
      <trkpt lat="47.20548" lon="0.83132">
        <ele>68.22</ele>
        <time>2020-07-01T13:30:34Z</time>
      </trkpt>
      <trkpt lat="47.20539" lon="0.83137">
        <ele>68.36</ele>
        <time>2020-07-01T13:30:35Z</time>
      </trkpt>
      <trkpt lat="47.2053" lon="0.83141">
        <ele>68.54</ele>
        <time>2020-07-01T13:30:36Z</time>
      </trkpt>
      <trkpt lat="47.20521" lon="0.83146">
        <ele>68.89</ele>
        <time>2020-07-01T13:30:37Z</time>
      </trkpt>
      <trkpt lat="47.20513" lon="0.83151">
        <ele>69.15</ele>
        <time>2020-07-01T13:30:38Z</time>
      </trkpt>
      <trkpt lat="47.20504" lon="0.83155">
        <ele>69.61</ele>
        <time>2020-07-01T13:30:39Z</time>
      </trkpt>
      <trkpt lat="47.20496" lon="0.83159">
        <ele>70.78</ele>
        <time>2020-07-01T13:30:40Z</time>
      </trkpt>
      <trkpt lat="47.20488" lon="0.83163">
        <ele>72.92</ele>
        <time>2020-07-01T13:30:41Z</time>
      </trkpt>
      <trkpt lat="47.2048" lon="0.83169">
        <ele>74.77</ele>
        <time>2020-07-01T13:30:42Z</time>
      </trkpt>
      <trkpt lat="47.20473" lon="0.83175">
        <ele>75.95</ele>
        <time>2020-07-01T13:30:43Z</time>
      </trkpt>
      <trkpt lat="47.20467" lon="0.83182">
        <ele>74.23</ele>
        <time>2020-07-01T13:30:44Z</time>
      </trkpt>
      <trkpt lat="47.2046" lon="0.8319">
        <ele>72.01</ele>
        <time>2020-07-01T13:30:45Z</time>
      </trkpt>
      <trkpt lat="47.20453" lon="0.83199">
        <ele>69.69</ele>
        <time>2020-07-01T13:30:46Z</time>
      </trkpt>
      <trkpt lat="47.20447" lon="0.83208">
        <ele>67.65</ele>
        <time>2020-07-01T13:30:47Z</time>
      </trkpt>
      <trkpt lat="47.20441" lon="0.83218">
        <ele>65.74</ele>
        <time>2020-07-01T13:30:48Z</time>
      </trkpt>
      <trkpt lat="47.20435" lon="0.83228">
        <ele>64.86</ele>
        <time>2020-07-01T13:30:49Z</time>
      </trkpt>
      <trkpt lat="47.20428" lon="0.83237">
        <ele>64.37</ele>
        <time>2020-07-01T13:30:50Z</time>
      </trkpt>
      <trkpt lat="47.20422" lon="0.83247">
        <ele>63.56</ele>
        <time>2020-07-01T13:30:51Z</time>
      </trkpt>
      <trkpt lat="47.20415" lon="0.83257">
        <ele>63.02</ele>
        <time>2020-07-01T13:30:52Z</time>
      </trkpt>
      <trkpt lat="47.20409" lon="0.83266">
        <ele>63.49</ele>
        <time>2020-07-01T13:30:53Z</time>
      </trkpt>
      <trkpt lat="47.20402" lon="0.83276">
        <ele>63.72</ele>
        <time>2020-07-01T13:30:54Z</time>
      </trkpt>
      <trkpt lat="47.20396" lon="0.83286">
        <ele>63.87</ele>
        <time>2020-07-01T13:30:55Z</time>
      </trkpt>
      <trkpt lat="47.20389" lon="0.83295">
        <ele>63.76</ele>
        <time>2020-07-01T13:30:56Z</time>
      </trkpt>
      <trkpt lat="47.20382" lon="0.83305">
        <ele>63.03</ele>
        <time>2020-07-01T13:30:57Z</time>
      </trkpt>
      <trkpt lat="47.20376" lon="0.83315">
        <ele>62.56</ele>
        <time>2020-07-01T13:30:58Z</time>
      </trkpt>
      <trkpt lat="47.20369" lon="0.83325">
        <ele>63.51</ele>
        <time>2020-07-01T13:30:59Z</time>
      </trkpt>
      <trkpt lat="47.20362" lon="0.83335">
        <ele>65.64</ele>
        <time>2020-07-01T13:31:00Z</time>
      </trkpt>
      <trkpt lat="47.20355" lon="0.83344">
        <ele>66.11</ele>
        <time>2020-07-01T13:31:01Z</time>
      </trkpt>
      <trkpt lat="47.20348" lon="0.83352">
        <ele>66.54</ele>
        <time>2020-07-01T13:31:02Z</time>
      </trkpt>
      <trkpt lat="47.2034" lon="0.8336">
        <ele>67.12</ele>
        <time>2020-07-01T13:31:03Z</time>
      </trkpt>
      <trkpt lat="47.20332" lon="0.83366">
        <ele>68.17</ele>
        <time>2020-07-01T13:31:04Z</time>
      </trkpt>
      <trkpt lat="47.20325" lon="0.83372">
        <ele>69.25</ele>
        <time>2020-07-01T13:31:05Z</time>
      </trkpt>
      <trkpt lat="47.20317" lon="0.83378">
        <ele>70.84</ele>
        <time>2020-07-01T13:31:06Z</time>
      </trkpt>
      <trkpt lat="47.20309" lon="0.83383">
        <ele>72.7</ele>
        <time>2020-07-01T13:31:07Z</time>
      </trkpt>
      <trkpt lat="47.20301" lon="0.83386">
        <ele>73.85</ele>
        <time>2020-07-01T13:31:08Z</time>
      </trkpt>
      <trkpt lat="47.20293" lon="0.83388">
        <ele>74.36</ele>
        <time>2020-07-01T13:31:09Z</time>
      </trkpt>
      <trkpt lat="47.20286" lon="0.83388">
        <ele>74.61</ele>
        <time>2020-07-01T13:31:10Z</time>
      </trkpt>
      <trkpt lat="47.20281" lon="0.83387">
        <ele>74.68</ele>
        <time>2020-07-01T13:31:11Z</time>
      </trkpt>
      <trkpt lat="47.20275" lon="0.83386">
        <ele>74.98</ele>
        <time>2020-07-01T13:31:12Z</time>
      </trkpt>
      <trkpt lat="47.20269" lon="0.83385">
        <ele>75.48</ele>
        <time>2020-07-01T13:31:13Z</time>
      </trkpt>
      <trkpt lat="47.20264" lon="0.83384">
        <ele>75.87</ele>
        <time>2020-07-01T13:31:14Z</time>
      </trkpt>
      <trkpt lat="47.20259" lon="0.83384">
        <ele>76.38</ele>
        <time>2020-07-01T13:31:15Z</time>
      </trkpt>
      <trkpt lat="47.20254" lon="0.83383">
        <ele>76.75</ele>
        <time>2020-07-01T13:31:16Z</time>
      </trkpt>
      <trkpt lat="47.20248" lon="0.83382">
        <ele>77.04</ele>
        <time>2020-07-01T13:31:17Z</time>
      </trkpt>
      <trkpt lat="47.20243" lon="0.83381">
        <ele>77.01</ele>
        <time>2020-07-01T13:31:18Z</time>
      </trkpt>
      <trkpt lat="47.20237" lon="0.83379">
        <ele>76.91</ele>
        <time>2020-07-01T13:31:19Z</time>
      </trkpt>
      <trkpt lat="47.20231" lon="0.83376">
        <ele>76.78</ele>
        <time>2020-07-01T13:31:20Z</time>
      </trkpt>
      <trkpt lat="47.20225" lon="0.83374">
        <ele>76.82</ele>
        <time>2020-07-01T13:31:21Z</time>
      </trkpt>
      <trkpt lat="47.20219" lon="0.83371">
        <ele>76.6</ele>
        <time>2020-07-01T13:31:22Z</time>
      </trkpt>
      <trkpt lat="47.20213" lon="0.83368">
        <ele>76.16</ele>
        <time>2020-07-01T13:31:23Z</time>
      </trkpt>
      <trkpt lat="47.20207" lon="0.83364">
        <ele>75.66</ele>
        <time>2020-07-01T13:31:24Z</time>
      </trkpt>
      <trkpt lat="47.20203" lon="0.83361">
        <ele>75.31</ele>
        <time>2020-07-01T13:31:25Z</time>
      </trkpt>
      <trkpt lat="47.20198" lon="0.83356">
        <ele>74.97</ele>
        <time>2020-07-01T13:31:26Z</time>
      </trkpt>
      <trkpt lat="47.20193" lon="0.83351">
        <ele>74.57</ele>
        <time>2020-07-01T13:31:27Z</time>
      </trkpt>
      <trkpt lat="47.20188" lon="0.83345">
        <ele>74.23</ele>
        <time>2020-07-01T13:31:28Z</time>
      </trkpt>
      <trkpt lat="47.20183" lon="0.83339">
        <ele>74.04</ele>
        <time>2020-07-01T13:31:29Z</time>
      </trkpt>
      <trkpt lat="47.20177" lon="0.83332">
        <ele>73.92</ele>
        <time>2020-07-01T13:31:30Z</time>
      </trkpt>
      <trkpt lat="47.20171" lon="0.83325">
        <ele>73.61</ele>
        <time>2020-07-01T13:31:31Z</time>
      </trkpt>
      <trkpt lat="47.20163" lon="0.83318">
        <ele>74.53</ele>
        <time>2020-07-01T13:31:32Z</time>
      </trkpt>
      <trkpt lat="47.20154" lon="0.83312">
        <ele>77.37</ele>
        <time>2020-07-01T13:31:33Z</time>
      </trkpt>
      <trkpt lat="47.20144" lon="0.83308">
        <ele>80.96</ele>
        <time>2020-07-01T13:31:34Z</time>
      </trkpt>
      <trkpt lat="47.20135" lon="0.83304">
        <ele>83.52</ele>
        <time>2020-07-01T13:31:35Z</time>
      </trkpt>
      <trkpt lat="47.20126" lon="0.833">
        <ele>84.7</ele>
        <time>2020-07-01T13:31:36Z</time>
      </trkpt>
      <trkpt lat="47.20117" lon="0.83296">
        <ele>85.78</ele>
        <time>2020-07-01T13:31:37Z</time>
      </trkpt>
      <trkpt lat="47.20109" lon="0.83291">
        <ele>86.33</ele>
        <time>2020-07-01T13:31:38Z</time>
      </trkpt>
      <trkpt lat="47.20099" lon="0.83284">
        <ele>85.32</ele>
        <time>2020-07-01T13:31:39Z</time>
      </trkpt>
      <trkpt lat="47.20091" lon="0.83279">
        <ele>84.16</ele>
        <time>2020-07-01T13:31:40Z</time>
      </trkpt>
      <trkpt lat="47.20083" lon="0.83273">
        <ele>82.02</ele>
        <time>2020-07-01T13:31:41Z</time>
      </trkpt>
      <trkpt lat="47.20075" lon="0.83268">
        <ele>78.12</ele>
        <time>2020-07-01T13:31:42Z</time>
      </trkpt>
      <trkpt lat="47.20067" lon="0.83263">
        <ele>73.8</ele>
        <time>2020-07-01T13:31:43Z</time>
      </trkpt>
      <trkpt lat="47.20059" lon="0.83258">
        <ele>69.06</ele>
        <time>2020-07-01T13:31:44Z</time>
      </trkpt>
      <trkpt lat="47.2005" lon="0.83253">
        <ele>64.84</ele>
        <time>2020-07-01T13:31:45Z</time>
      </trkpt>
      <trkpt lat="47.2004" lon="0.83248">
        <ele>62.28</ele>
        <time>2020-07-01T13:31:46Z</time>
      </trkpt>
      <trkpt lat="47.20031" lon="0.83243">
        <ele>61.03</ele>
        <time>2020-07-01T13:31:47Z</time>
      </trkpt>
      <trkpt lat="47.20023" lon="0.83238">
        <ele>61.99</ele>
        <time>2020-07-01T13:31:48Z</time>
      </trkpt>
      <trkpt lat="47.20014" lon="0.83235">
        <ele>64.28</ele>
        <time>2020-07-01T13:31:49Z</time>
      </trkpt>
      <trkpt lat="47.20006" lon="0.83234">
        <ele>66.19</ele>
        <time>2020-07-01T13:31:50Z</time>
      </trkpt>
      <trkpt lat="47.19997" lon="0.83233">
        <ele>66.81</ele>
        <time>2020-07-01T13:31:51Z</time>
      </trkpt>
      <trkpt lat="47.19989" lon="0.83232">
        <ele>64.74</ele>
        <time>2020-07-01T13:31:52Z</time>
      </trkpt>
      <trkpt lat="47.19979" lon="0.83232">
        <ele>62.09</ele>
        <time>2020-07-01T13:31:53Z</time>
      </trkpt>
      <trkpt lat="47.19969" lon="0.83231">
        <ele>60.45</ele>
        <time>2020-07-01T13:31:54Z</time>
      </trkpt>
      <trkpt lat="47.19959" lon="0.8323">
        <ele>60.78</ele>
        <time>2020-07-01T13:31:55Z</time>
      </trkpt>
      <trkpt lat="47.19949" lon="0.83229">
        <ele>61.14</ele>
        <time>2020-07-01T13:31:56Z</time>
      </trkpt>
      <trkpt lat="47.1994" lon="0.83229">
        <ele>60.78</ele>
        <time>2020-07-01T13:31:57Z</time>
      </trkpt>
      <trkpt lat="47.19929" lon="0.83227">
        <ele>59.3</ele>
        <time>2020-07-01T13:31:58Z</time>
      </trkpt>
      <trkpt lat="47.1992" lon="0.83226">
        <ele>57.75</ele>
        <time>2020-07-01T13:31:59Z</time>
      </trkpt>
      <trkpt lat="47.1991" lon="0.83225">
        <ele>57.86</ele>
        <time>2020-07-01T13:32:00Z</time>
      </trkpt>
      <trkpt lat="47.19901" lon="0.83225">
        <ele>59.16</ele>
        <time>2020-07-01T13:32:01Z</time>
      </trkpt>
      <trkpt lat="47.19891" lon="0.83225">
        <ele>60.6</ele>
        <time>2020-07-01T13:32:02Z</time>
      </trkpt>
      <trkpt lat="47.19883" lon="0.83226">
        <ele>59.89</ele>
        <time>2020-07-01T13:32:03Z</time>
      </trkpt>
      <trkpt lat="47.19875" lon="0.83229">
        <ele>58.62</ele>
        <time>2020-07-01T13:32:04Z</time>
      </trkpt>
      <trkpt lat="47.19868" lon="0.83231">
        <ele>57.64</ele>
        <time>2020-07-01T13:32:05Z</time>
      </trkpt>
      <trkpt lat="47.19861" lon="0.83234">
        <ele>56.84</ele>
        <time>2020-07-01T13:32:06Z</time>
      </trkpt>
      <trkpt lat="47.19854" lon="0.83237">
        <ele>56.45</ele>
        <time>2020-07-01T13:32:07Z</time>
      </trkpt>
      <trkpt lat="47.19847" lon="0.8324">
        <ele>55.41</ele>
        <time>2020-07-01T13:32:08Z</time>
      </trkpt>
      <trkpt lat="47.1984" lon="0.83243">
        <ele>53.71</ele>
        <time>2020-07-01T13:32:09Z</time>
      </trkpt>
      <trkpt lat="47.19832" lon="0.83246">
        <ele>51.54</ele>
        <time>2020-07-01T13:32:10Z</time>
      </trkpt>
      <trkpt lat="47.19825" lon="0.83248">
        <ele>51.47</ele>
        <time>2020-07-01T13:32:11Z</time>
      </trkpt>
      <trkpt lat="47.19818" lon="0.83251">
        <ele>51.74</ele>
        <time>2020-07-01T13:32:12Z</time>
      </trkpt>
      <trkpt lat="47.1981" lon="0.83253">
        <ele>52.75</ele>
        <time>2020-07-01T13:32:13Z</time>
      </trkpt>
      <trkpt lat="47.19802" lon="0.83255">
        <ele>53.27</ele>
        <time>2020-07-01T13:32:14Z</time>
      </trkpt>
      <trkpt lat="47.19795" lon="0.83258">
        <ele>53.14</ele>
        <time>2020-07-01T13:32:15Z</time>
      </trkpt>
      <trkpt lat="47.19787" lon="0.83263">
        <ele>52.69</ele>
        <time>2020-07-01T13:32:16Z</time>
      </trkpt>
      <trkpt lat="47.19778" lon="0.83267">
        <ele>51.8</ele>
        <time>2020-07-01T13:32:17Z</time>
      </trkpt>
      <trkpt lat="47.19771" lon="0.83273">
        <ele>52.28</ele>
        <time>2020-07-01T13:32:18Z</time>
      </trkpt>
      <trkpt lat="47.19763" lon="0.83279">
        <ele>53.21</ele>
        <time>2020-07-01T13:32:19Z</time>
      </trkpt>
      <trkpt lat="47.19757" lon="0.83284">
        <ele>54.33</ele>
        <time>2020-07-01T13:32:20Z</time>
      </trkpt>
      <trkpt lat="47.19752" lon="0.83288">
        <ele>55.13</ele>
        <time>2020-07-01T13:32:21Z</time>
      </trkpt>
      <trkpt lat="47.19749" lon="0.83288">
        <ele>55.48</ele>
        <time>2020-07-01T13:32:22Z</time>
      </trkpt>
      <trkpt lat="47.19746" lon="0.83286">
        <ele>55.7</ele>
        <time>2020-07-01T13:32:24Z</time>
      </trkpt>
      <trkpt lat="47.19745" lon="0.83278">
        <ele>55.2</ele>
        <time>2020-07-01T13:32:25Z</time>
      </trkpt>
      <trkpt lat="47.19744" lon="0.83267">
        <ele>55.6</ele>
        <time>2020-07-01T13:32:26Z</time>
      </trkpt>
      <trkpt lat="47.19742" lon="0.83255">
        <ele>56.11</ele>
        <time>2020-07-01T13:32:27Z</time>
      </trkpt>
      <trkpt lat="47.19738" lon="0.83243">
        <ele>57.26</ele>
        <time>2020-07-01T13:32:28Z</time>
      </trkpt>
      <trkpt lat="47.19733" lon="0.83232">
        <ele>59.1</ele>
        <time>2020-07-01T13:32:29Z</time>
      </trkpt>
      <trkpt lat="47.1973" lon="0.83223">
        <ele>60.76</ele>
        <time>2020-07-01T13:32:30Z</time>
      </trkpt>
      <trkpt lat="47.19727" lon="0.83215">
        <ele>63</ele>
        <time>2020-07-01T13:32:31Z</time>
      </trkpt>
      <trkpt lat="47.19723" lon="0.83209">
        <ele>65.18</ele>
        <time>2020-07-01T13:32:32Z</time>
      </trkpt>
      <trkpt lat="47.19718" lon="0.83203">
        <ele>67.24</ele>
        <time>2020-07-01T13:32:33Z</time>
      </trkpt>
      <trkpt lat="47.19715" lon="0.83197">
        <ele>68.92</ele>
        <time>2020-07-01T13:32:34Z</time>
      </trkpt>
      <trkpt lat="47.19712" lon="0.83189">
        <ele>70.75</ele>
        <time>2020-07-01T13:32:35Z</time>
      </trkpt>
      <trkpt lat="47.1971" lon="0.83179">
        <ele>72.55</ele>
        <time>2020-07-01T13:32:36Z</time>
      </trkpt>
      <trkpt lat="47.19709" lon="0.83169">
        <ele>74.18</ele>
        <time>2020-07-01T13:32:37Z</time>
      </trkpt>
      <trkpt lat="47.19707" lon="0.83157">
        <ele>74.2</ele>
        <time>2020-07-01T13:32:38Z</time>
      </trkpt>
      <trkpt lat="47.19706" lon="0.83145">
        <ele>73.92</ele>
        <time>2020-07-01T13:32:39Z</time>
      </trkpt>
      <trkpt lat="47.19705" lon="0.83132">
        <ele>73.17</ele>
        <time>2020-07-01T13:32:40Z</time>
      </trkpt>
      <trkpt lat="47.19704" lon="0.83119">
        <ele>72.01</ele>
        <time>2020-07-01T13:32:41Z</time>
      </trkpt>
      <trkpt lat="47.19703" lon="0.83105">
        <ele>70.95</ele>
        <time>2020-07-01T13:32:42Z</time>
      </trkpt>
      <trkpt lat="47.19702" lon="0.8309">
        <ele>70.1</ele>
        <time>2020-07-01T13:32:43Z</time>
      </trkpt>
      <trkpt lat="47.19701" lon="0.83075">
        <ele>69.99</ele>
        <time>2020-07-01T13:32:44Z</time>
      </trkpt>
      <trkpt lat="47.197" lon="0.83061">
        <ele>70.44</ele>
        <time>2020-07-01T13:32:45Z</time>
      </trkpt>
      <trkpt lat="47.197" lon="0.83048">
        <ele>72.99</ele>
        <time>2020-07-01T13:32:46Z</time>
      </trkpt>
      <trkpt lat="47.19699" lon="0.83034">
        <ele>77.67</ele>
        <time>2020-07-01T13:32:47Z</time>
      </trkpt>
      <trkpt lat="47.19699" lon="0.8302">
        <ele>79.83</ele>
        <time>2020-07-01T13:32:48Z</time>
      </trkpt>
      <trkpt lat="47.19699" lon="0.83007">
        <ele>80.06</ele>
        <time>2020-07-01T13:32:49Z</time>
      </trkpt>
      <trkpt lat="47.19698" lon="0.82994">
        <ele>78.29</ele>
        <time>2020-07-01T13:32:50Z</time>
      </trkpt>
      <trkpt lat="47.19698" lon="0.82981">
        <ele>73.8</ele>
        <time>2020-07-01T13:32:51Z</time>
      </trkpt>
      <trkpt lat="47.19698" lon="0.82969">
        <ele>71.01</ele>
        <time>2020-07-01T13:32:52Z</time>
      </trkpt>
      <trkpt lat="47.19698" lon="0.82957">
        <ele>71.93</ele>
        <time>2020-07-01T13:32:53Z</time>
      </trkpt>
      <trkpt lat="47.19698" lon="0.82944">
        <ele>72.97</ele>
        <time>2020-07-01T13:32:54Z</time>
      </trkpt>
      <trkpt lat="47.19698" lon="0.82933">
        <ele>74.8</ele>
        <time>2020-07-01T13:32:55Z</time>
      </trkpt>
      <trkpt lat="47.19697" lon="0.82922">
        <ele>76.46</ele>
        <time>2020-07-01T13:32:56Z</time>
      </trkpt>
      <trkpt lat="47.19697" lon="0.82912">
        <ele>78.16</ele>
        <time>2020-07-01T13:32:57Z</time>
      </trkpt>
      <trkpt lat="47.19696" lon="0.82904">
        <ele>79.43</ele>
        <time>2020-07-01T13:32:58Z</time>
      </trkpt>
      <trkpt lat="47.19694" lon="0.82896">
        <ele>80.62</ele>
        <time>2020-07-01T13:32:59Z</time>
      </trkpt>
      <trkpt lat="47.1969" lon="0.82889">
        <ele>80.86</ele>
        <time>2020-07-01T13:33:00Z</time>
      </trkpt>
      <trkpt lat="47.19685" lon="0.82883">
        <ele>79.98</ele>
        <time>2020-07-01T13:33:01Z</time>
      </trkpt>
      <trkpt lat="47.19679" lon="0.82876">
        <ele>79.4</ele>
        <time>2020-07-01T13:33:02Z</time>
      </trkpt>
      <trkpt lat="47.19673" lon="0.82869">
        <ele>79.36</ele>
        <time>2020-07-01T13:33:03Z</time>
      </trkpt>
      <trkpt lat="47.19667" lon="0.82862">
        <ele>79.87</ele>
        <time>2020-07-01T13:33:04Z</time>
      </trkpt>
      <trkpt lat="47.1966" lon="0.82856">
        <ele>81.02</ele>
        <time>2020-07-01T13:33:05Z</time>
      </trkpt>
      <trkpt lat="47.19652" lon="0.82851">
        <ele>81.49</ele>
        <time>2020-07-01T13:33:06Z</time>
      </trkpt>
      <trkpt lat="47.19645" lon="0.82847">
        <ele>81.36</ele>
        <time>2020-07-01T13:33:07Z</time>
      </trkpt>
      <trkpt lat="47.19638" lon="0.82842">
        <ele>80.81</ele>
        <time>2020-07-01T13:33:08Z</time>
      </trkpt>
      <trkpt lat="47.1963" lon="0.82838">
        <ele>82.5</ele>
        <time>2020-07-01T13:33:09Z</time>
      </trkpt>
      <trkpt lat="47.19623" lon="0.82834">
        <ele>84.21</ele>
        <time>2020-07-01T13:33:10Z</time>
      </trkpt>
      <trkpt lat="47.19615" lon="0.82829">
        <ele>85.71</ele>
        <time>2020-07-01T13:33:11Z</time>
      </trkpt>
      <trkpt lat="47.19607" lon="0.82824">
        <ele>85.07</ele>
        <time>2020-07-01T13:33:12Z</time>
      </trkpt>
      <trkpt lat="47.19599" lon="0.8282">
        <ele>83.69</ele>
        <time>2020-07-01T13:33:13Z</time>
      </trkpt>
      <trkpt lat="47.1959" lon="0.82816">
        <ele>82.62</ele>
        <time>2020-07-01T13:33:14Z</time>
      </trkpt>
      <trkpt lat="47.19581" lon="0.82811">
        <ele>82.12</ele>
        <time>2020-07-01T13:33:15Z</time>
      </trkpt>
      <trkpt lat="47.19573" lon="0.82807">
        <ele>83.25</ele>
        <time>2020-07-01T13:33:16Z</time>
      </trkpt>
      <trkpt lat="47.19565" lon="0.82803">
        <ele>84.93</ele>
        <time>2020-07-01T13:33:17Z</time>
      </trkpt>
      <trkpt lat="47.19558" lon="0.82798">
        <ele>86.25</ele>
        <time>2020-07-01T13:33:18Z</time>
      </trkpt>
      <trkpt lat="47.19551" lon="0.82791">
        <ele>86.89</ele>
        <time>2020-07-01T13:33:19Z</time>
      </trkpt>
      <trkpt lat="47.19544" lon="0.82784">
        <ele>87.38</ele>
        <time>2020-07-01T13:33:20Z</time>
      </trkpt>
      <trkpt lat="47.19536" lon="0.82777">
        <ele>88.09</ele>
        <time>2020-07-01T13:33:21Z</time>
      </trkpt>
      <trkpt lat="47.19529" lon="0.8277">
        <ele>88.6</ele>
        <time>2020-07-01T13:33:22Z</time>
      </trkpt>
      <trkpt lat="47.19521" lon="0.82763">
        <ele>88.61</ele>
        <time>2020-07-01T13:33:23Z</time>
      </trkpt>
      <trkpt lat="47.19513" lon="0.82756">
        <ele>88.94</ele>
        <time>2020-07-01T13:33:24Z</time>
      </trkpt>
      <trkpt lat="47.19506" lon="0.82749">
        <ele>89.57</ele>
        <time>2020-07-01T13:33:25Z</time>
      </trkpt>
      <trkpt lat="47.19499" lon="0.82743">
        <ele>90.01</ele>
        <time>2020-07-01T13:33:26Z</time>
      </trkpt>
      <trkpt lat="47.19491" lon="0.82737">
        <ele>89.87</ele>
        <time>2020-07-01T13:33:27Z</time>
      </trkpt>
      <trkpt lat="47.19483" lon="0.82731">
        <ele>89.36</ele>
        <time>2020-07-01T13:33:28Z</time>
      </trkpt>
      <trkpt lat="47.19476" lon="0.82725">
        <ele>88.53</ele>
        <time>2020-07-01T13:33:29Z</time>
      </trkpt>
      <trkpt lat="47.19468" lon="0.82718">
        <ele>87.42</ele>
        <time>2020-07-01T13:33:30Z</time>
      </trkpt>
      <trkpt lat="47.19461" lon="0.82712">
        <ele>86.57</ele>
        <time>2020-07-01T13:33:31Z</time>
      </trkpt>
      <trkpt lat="47.19454" lon="0.82704">
        <ele>85.81</ele>
        <time>2020-07-01T13:33:32Z</time>
      </trkpt>
      <trkpt lat="47.19447" lon="0.82695">
        <ele>85.19</ele>
        <time>2020-07-01T13:33:33Z</time>
      </trkpt>
      <trkpt lat="47.1944" lon="0.82686">
        <ele>86.33</ele>
        <time>2020-07-01T13:33:34Z</time>
      </trkpt>
      <trkpt lat="47.19433" lon="0.82676">
        <ele>87.79</ele>
        <time>2020-07-01T13:33:35Z</time>
      </trkpt>
      <trkpt lat="47.19426" lon="0.82666">
        <ele>89.06</ele>
        <time>2020-07-01T13:33:36Z</time>
      </trkpt>
      <trkpt lat="47.19419" lon="0.82658">
        <ele>90.14</ele>
        <time>2020-07-01T13:33:37Z</time>
      </trkpt>
      <trkpt lat="47.1941" lon="0.8265">
        <ele>91.5</ele>
        <time>2020-07-01T13:33:38Z</time>
      </trkpt>
      <trkpt lat="47.19402" lon="0.82643">
        <ele>92.49</ele>
        <time>2020-07-01T13:33:39Z</time>
      </trkpt>
      <trkpt lat="47.19393" lon="0.82637">
        <ele>92.79</ele>
        <time>2020-07-01T13:33:40Z</time>
      </trkpt>
      <trkpt lat="47.19384" lon="0.82631">
        <ele>90.68</ele>
        <time>2020-07-01T13:33:41Z</time>
      </trkpt>
      <trkpt lat="47.19377" lon="0.82625">
        <ele>88.22</ele>
        <time>2020-07-01T13:33:42Z</time>
      </trkpt>
      <trkpt lat="47.1937" lon="0.82619">
        <ele>85.86</ele>
        <time>2020-07-01T13:33:43Z</time>
      </trkpt>
      <trkpt lat="47.19364" lon="0.82611">
        <ele>83.62</ele>
        <time>2020-07-01T13:33:44Z</time>
      </trkpt>
      <trkpt lat="47.19359" lon="0.82603">
        <ele>83.37</ele>
        <time>2020-07-01T13:33:45Z</time>
      </trkpt>
      <trkpt lat="47.19354" lon="0.82594">
        <ele>84.5</ele>
        <time>2020-07-01T13:33:46Z</time>
      </trkpt>
      <trkpt lat="47.1935" lon="0.82584">
        <ele>85.77</ele>
        <time>2020-07-01T13:33:47Z</time>
      </trkpt>
      <trkpt lat="47.19346" lon="0.82573">
        <ele>86.71</ele>
        <time>2020-07-01T13:33:48Z</time>
      </trkpt>
      <trkpt lat="47.19342" lon="0.82563">
        <ele>86.99</ele>
        <time>2020-07-01T13:33:49Z</time>
      </trkpt>
      <trkpt lat="47.19338" lon="0.82553">
        <ele>86.39</ele>
        <time>2020-07-01T13:33:50Z</time>
      </trkpt>
      <trkpt lat="47.19334" lon="0.82544">
        <ele>84.91</ele>
        <time>2020-07-01T13:33:51Z</time>
      </trkpt>
      <trkpt lat="47.1933" lon="0.82536">
        <ele>83.96</ele>
        <time>2020-07-01T13:33:52Z</time>
      </trkpt>
      <trkpt lat="47.19327" lon="0.82529">
        <ele>83.13</ele>
        <time>2020-07-01T13:33:53Z</time>
      </trkpt>
      <trkpt lat="47.19323" lon="0.82521">
        <ele>81.96</ele>
        <time>2020-07-01T13:33:54Z</time>
      </trkpt>
      <trkpt lat="47.19321" lon="0.82514">
        <ele>80.74</ele>
        <time>2020-07-01T13:33:55Z</time>
      </trkpt>
      <trkpt lat="47.19318" lon="0.82508">
        <ele>80.01</ele>
        <time>2020-07-01T13:33:56Z</time>
      </trkpt>
      <trkpt lat="47.19316" lon="0.82502">
        <ele>79.16</ele>
        <time>2020-07-01T13:33:57Z</time>
      </trkpt>
      <trkpt lat="47.19313" lon="0.82494">
        <ele>79.32</ele>
        <time>2020-07-01T13:33:58Z</time>
      </trkpt>
      <trkpt lat="47.19309" lon="0.82487">
        <ele>79.43</ele>
        <time>2020-07-01T13:33:59Z</time>
      </trkpt>
      <trkpt lat="47.19305" lon="0.82481">
        <ele>79.05</ele>
        <time>2020-07-01T13:34:00Z</time>
      </trkpt>
      <trkpt lat="47.19301" lon="0.82476">
        <ele>79.25</ele>
        <time>2020-07-01T13:34:01Z</time>
      </trkpt>
      <trkpt lat="47.19295" lon="0.82471">
        <ele>80.03</ele>
        <time>2020-07-01T13:34:02Z</time>
      </trkpt>
      <trkpt lat="47.19288" lon="0.82465">
        <ele>81.41</ele>
        <time>2020-07-01T13:34:03Z</time>
      </trkpt>
      <trkpt lat="47.1928" lon="0.82458">
        <ele>81.9</ele>
        <time>2020-07-01T13:34:04Z</time>
      </trkpt>
      <trkpt lat="47.19272" lon="0.8245">
        <ele>82.4</ele>
        <time>2020-07-01T13:34:05Z</time>
      </trkpt>
      <trkpt lat="47.19263" lon="0.82443">
        <ele>83.63</ele>
        <time>2020-07-01T13:34:06Z</time>
      </trkpt>
      <trkpt lat="47.19255" lon="0.82434">
        <ele>84.79</ele>
        <time>2020-07-01T13:34:07Z</time>
      </trkpt>
      <trkpt lat="47.19247" lon="0.82426">
        <ele>85.52</ele>
        <time>2020-07-01T13:34:08Z</time>
      </trkpt>
      <trkpt lat="47.19239" lon="0.82418">
        <ele>85.48</ele>
        <time>2020-07-01T13:34:09Z</time>
      </trkpt>
      <trkpt lat="47.19231" lon="0.82411">
        <ele>85.75</ele>
        <time>2020-07-01T13:34:10Z</time>
      </trkpt>
      <trkpt lat="47.19225" lon="0.82405">
        <ele>85.94</ele>
        <time>2020-07-01T13:34:11Z</time>
      </trkpt>
      <trkpt lat="47.19218" lon="0.82398">
        <ele>86.1</ele>
        <time>2020-07-01T13:34:12Z</time>
      </trkpt>
      <trkpt lat="47.19212" lon="0.82391">
        <ele>85.77</ele>
        <time>2020-07-01T13:34:13Z</time>
      </trkpt>
      <trkpt lat="47.19206" lon="0.82382">
        <ele>84.8</ele>
        <time>2020-07-01T13:34:14Z</time>
      </trkpt>
      <trkpt lat="47.19199" lon="0.82372">
        <ele>82.72</ele>
        <time>2020-07-01T13:34:15Z</time>
      </trkpt>
      <trkpt lat="47.19193" lon="0.82363">
        <ele>80.06</ele>
        <time>2020-07-01T13:34:16Z</time>
      </trkpt>
      <trkpt lat="47.19187" lon="0.82353">
        <ele>78.37</ele>
        <time>2020-07-01T13:34:17Z</time>
      </trkpt>
      <trkpt lat="47.1918" lon="0.82343">
        <ele>76.75</ele>
        <time>2020-07-01T13:34:18Z</time>
      </trkpt>
      <trkpt lat="47.19174" lon="0.82331">
        <ele>75.67</ele>
        <time>2020-07-01T13:34:19Z</time>
      </trkpt>
      <trkpt lat="47.19167" lon="0.82319">
        <ele>77.11</ele>
        <time>2020-07-01T13:34:20Z</time>
      </trkpt>
      <trkpt lat="47.1916" lon="0.82309">
        <ele>80.46</ele>
        <time>2020-07-01T13:34:21Z</time>
      </trkpt>
      <trkpt lat="47.19153" lon="0.82298">
        <ele>82.33</ele>
        <time>2020-07-01T13:34:22Z</time>
      </trkpt>
      <trkpt lat="47.19146" lon="0.82288">
        <ele>83.25</ele>
        <time>2020-07-01T13:34:23Z</time>
      </trkpt>
      <trkpt lat="47.19138" lon="0.82279">
        <ele>83.95</ele>
        <time>2020-07-01T13:34:24Z</time>
      </trkpt>
      <trkpt lat="47.19129" lon="0.82271">
        <ele>81.27</ele>
        <time>2020-07-01T13:34:25Z</time>
      </trkpt>
      <trkpt lat="47.19121" lon="0.82263">
        <ele>79.83</ele>
        <time>2020-07-01T13:34:26Z</time>
      </trkpt>
      <trkpt lat="47.19112" lon="0.82257">
        <ele>80.13</ele>
        <time>2020-07-01T13:34:27Z</time>
      </trkpt>
      <trkpt lat="47.19105" lon="0.8225">
        <ele>81.54</ele>
        <time>2020-07-01T13:34:28Z</time>
      </trkpt>
      <trkpt lat="47.19099" lon="0.82243">
        <ele>82.91</ele>
        <time>2020-07-01T13:34:29Z</time>
      </trkpt>
      <trkpt lat="47.19093" lon="0.82236">
        <ele>84.39</ele>
        <time>2020-07-01T13:34:30Z</time>
      </trkpt>
      <trkpt lat="47.19088" lon="0.82228">
        <ele>85.69</ele>
        <time>2020-07-01T13:34:31Z</time>
      </trkpt>
      <trkpt lat="47.19082" lon="0.8222">
        <ele>86.62</ele>
        <time>2020-07-01T13:34:32Z</time>
      </trkpt>
      <trkpt lat="47.19076" lon="0.82212">
        <ele>85.2</ele>
        <time>2020-07-01T13:34:33Z</time>
      </trkpt>
      <trkpt lat="47.1907" lon="0.82203">
        <ele>83.82</ele>
        <time>2020-07-01T13:34:34Z</time>
      </trkpt>
      <trkpt lat="47.19064" lon="0.82194">
        <ele>82.58</ele>
        <time>2020-07-01T13:34:35Z</time>
      </trkpt>
      <trkpt lat="47.19058" lon="0.82185">
        <ele>81.53</ele>
        <time>2020-07-01T13:34:36Z</time>
      </trkpt>
      <trkpt lat="47.19052" lon="0.82177">
        <ele>80.41</ele>
        <time>2020-07-01T13:34:37Z</time>
      </trkpt>
      <trkpt lat="47.19046" lon="0.82169">
        <ele>79.16</ele>
        <time>2020-07-01T13:34:38Z</time>
      </trkpt>
      <trkpt lat="47.1904" lon="0.82162">
        <ele>77.98</ele>
        <time>2020-07-01T13:34:39Z</time>
      </trkpt>
      <trkpt lat="47.19035" lon="0.82156">
        <ele>77.01</ele>
        <time>2020-07-01T13:34:40Z</time>
      </trkpt>
      <trkpt lat="47.19032" lon="0.82151">
        <ele>76.33</ele>
        <time>2020-07-01T13:34:41Z</time>
      </trkpt>
      <trkpt lat="47.19034" lon="0.82155">
        <ele>76.83</ele>
        <time>2020-07-01T13:34:56Z</time>
      </trkpt>
      <trkpt lat="47.19037" lon="0.8216">
        <ele>77.52</ele>
        <time>2020-07-01T13:34:57Z</time>
      </trkpt>
      <trkpt lat="47.19043" lon="0.82167">
        <ele>78.67</ele>
        <time>2020-07-01T13:34:58Z</time>
      </trkpt>
      <trkpt lat="47.19048" lon="0.82174">
        <ele>79.78</ele>
        <time>2020-07-01T13:34:59Z</time>
      </trkpt>
      <trkpt lat="47.19051" lon="0.82183">
        <ele>80.78</ele>
        <time>2020-07-01T13:35:00Z</time>
      </trkpt>
      <trkpt lat="47.19053" lon="0.82194">
        <ele>81.78</ele>
        <time>2020-07-01T13:35:01Z</time>
      </trkpt>
      <trkpt lat="47.19053" lon="0.82206">
        <ele>82.61</ele>
        <time>2020-07-01T13:35:02Z</time>
      </trkpt>
      <trkpt lat="47.19054" lon="0.82218">
        <ele>83.54</ele>
        <time>2020-07-01T13:35:03Z</time>
      </trkpt>
      <trkpt lat="47.19055" lon="0.82231">
        <ele>84.58</ele>
        <time>2020-07-01T13:35:04Z</time>
      </trkpt>
      <trkpt lat="47.19055" lon="0.82243">
        <ele>85.47</ele>
        <time>2020-07-01T13:35:05Z</time>
      </trkpt>
      <trkpt lat="47.19056" lon="0.82255">
        <ele>86.19</ele>
        <time>2020-07-01T13:35:06Z</time>
      </trkpt>
      <trkpt lat="47.19057" lon="0.82268">
        <ele>86.67</ele>
        <time>2020-07-01T13:35:07Z</time>
      </trkpt>
      <trkpt lat="47.19058" lon="0.82281">
        <ele>87.11</ele>
        <time>2020-07-01T13:35:08Z</time>
      </trkpt>
      <trkpt lat="47.1906" lon="0.82293">
        <ele>87.46</ele>
        <time>2020-07-01T13:35:09Z</time>
      </trkpt>
      <trkpt lat="47.19061" lon="0.82303">
        <ele>87.73</ele>
        <time>2020-07-01T13:35:10Z</time>
      </trkpt>
      <trkpt lat="47.19061" lon="0.82309">
        <ele>87.88</ele>
        <time>2020-07-01T13:35:11Z</time>
      </trkpt>
      <trkpt lat="47.19059" lon="0.82313">
        <ele>88.08</ele>
        <time>2020-07-01T13:35:13Z</time>
      </trkpt>
      <trkpt lat="47.19054" lon="0.82313">
        <ele>88.5</ele>
        <time>2020-07-01T13:35:14Z</time>
      </trkpt>
      <trkpt lat="47.19048" lon="0.82314">
        <ele>89.45</ele>
        <time>2020-07-01T13:35:15Z</time>
      </trkpt>
      <trkpt lat="47.19041" lon="0.82314">
        <ele>90.51</ele>
        <time>2020-07-01T13:35:16Z</time>
      </trkpt>
      <trkpt lat="47.19034" lon="0.82314">
        <ele>91.58</ele>
        <time>2020-07-01T13:35:17Z</time>
      </trkpt>
      <trkpt lat="47.19026" lon="0.82315">
        <ele>93.17</ele>
        <time>2020-07-01T13:35:18Z</time>
      </trkpt>
      <trkpt lat="47.19017" lon="0.82315">
        <ele>95.54</ele>
        <time>2020-07-01T13:35:19Z</time>
      </trkpt>
      <trkpt lat="47.19009" lon="0.82316">
        <ele>97.78</ele>
        <time>2020-07-01T13:35:20Z</time>
      </trkpt>
      <trkpt lat="47.19001" lon="0.82317">
        <ele>99.98</ele>
        <time>2020-07-01T13:35:21Z</time>
      </trkpt>
      <trkpt lat="47.18994" lon="0.82319">
        <ele>99.92</ele>
        <time>2020-07-01T13:35:22Z</time>
      </trkpt>
      <trkpt lat="47.18988" lon="0.82324">
        <ele>99.84</ele>
        <time>2020-07-01T13:35:23Z</time>
      </trkpt>
      <trkpt lat="47.18982" lon="0.8233">
        <ele>99.77</ele>
        <time>2020-07-01T13:35:24Z</time>
      </trkpt>
      <trkpt lat="47.18976" lon="0.82336">
        <ele>99.54</ele>
        <time>2020-07-01T13:35:25Z</time>
      </trkpt>
      <trkpt lat="47.1897" lon="0.82341">
        <ele>99.36</ele>
        <time>2020-07-01T13:35:26Z</time>
      </trkpt>
      <trkpt lat="47.18963" lon="0.82345">
        <ele>99.75</ele>
        <time>2020-07-01T13:35:27Z</time>
      </trkpt>
      <trkpt lat="47.18955" lon="0.8235">
        <ele>100.22</ele>
        <time>2020-07-01T13:35:28Z</time>
      </trkpt>
      <trkpt lat="47.18948" lon="0.82354">
        <ele>100.62</ele>
        <time>2020-07-01T13:35:29Z</time>
      </trkpt>
      <trkpt lat="47.18941" lon="0.82358">
        <ele>100.17</ele>
        <time>2020-07-01T13:35:30Z</time>
      </trkpt>
      <trkpt lat="47.18934" lon="0.82361">
        <ele>98.74</ele>
        <time>2020-07-01T13:35:31Z</time>
      </trkpt>
      <trkpt lat="47.18928" lon="0.82364">
        <ele>97.7</ele>
        <time>2020-07-01T13:35:32Z</time>
      </trkpt>
      <trkpt lat="47.18923" lon="0.82366">
        <ele>96.76</ele>
        <time>2020-07-01T13:35:33Z</time>
      </trkpt>
      <trkpt lat="47.18919" lon="0.82367">
        <ele>95.95</ele>
        <time>2020-07-01T13:35:34Z</time>
      </trkpt>
      <trkpt lat="47.18914" lon="0.82366">
        <ele>94.58</ele>
        <time>2020-07-01T13:35:35Z</time>
      </trkpt>
      <trkpt lat="47.1891" lon="0.82365">
        <ele>93.36</ele>
        <time>2020-07-01T13:35:36Z</time>
      </trkpt>
      <trkpt lat="47.18905" lon="0.82361">
        <ele>91.65</ele>
        <time>2020-07-01T13:35:37Z</time>
      </trkpt>
      <trkpt lat="47.18899" lon="0.82358">
        <ele>90.1</ele>
        <time>2020-07-01T13:35:38Z</time>
      </trkpt>
      <trkpt lat="47.18893" lon="0.82355">
        <ele>88.59</ele>
        <time>2020-07-01T13:35:39Z</time>
      </trkpt>
      <trkpt lat="47.18886" lon="0.82353">
        <ele>87.58</ele>
        <time>2020-07-01T13:35:40Z</time>
      </trkpt>
      <trkpt lat="47.18879" lon="0.82352">
        <ele>87.66</ele>
        <time>2020-07-01T13:35:41Z</time>
      </trkpt>
      <trkpt lat="47.18872" lon="0.82352">
        <ele>87.66</ele>
        <time>2020-07-01T13:35:42Z</time>
      </trkpt>
      <trkpt lat="47.18865" lon="0.82352">
        <ele>87.66</ele>
        <time>2020-07-01T13:35:43Z</time>
      </trkpt>
      <trkpt lat="47.18858" lon="0.82353">
        <ele>88.38</ele>
        <time>2020-07-01T13:35:44Z</time>
      </trkpt>
      <trkpt lat="47.18849" lon="0.82355">
        <ele>90.64</ele>
        <time>2020-07-01T13:35:45Z</time>
      </trkpt>
      <trkpt lat="47.1884" lon="0.82359">
        <ele>93.06</ele>
        <time>2020-07-01T13:35:46Z</time>
      </trkpt>
      <trkpt lat="47.1883" lon="0.82362">
        <ele>95.11</ele>
        <time>2020-07-01T13:35:47Z</time>
      </trkpt>
      <trkpt lat="47.18821" lon="0.82365">
        <ele>95.31</ele>
        <time>2020-07-01T13:35:48Z</time>
      </trkpt>
      <trkpt lat="47.18812" lon="0.82369">
        <ele>95.26</ele>
        <time>2020-07-01T13:35:49Z</time>
      </trkpt>
      <trkpt lat="47.18803" lon="0.82371">
        <ele>94.45</ele>
        <time>2020-07-01T13:35:50Z</time>
      </trkpt>
      <trkpt lat="47.18794" lon="0.82374">
        <ele>92.5</ele>
        <time>2020-07-01T13:35:51Z</time>
      </trkpt>
      <trkpt lat="47.18785" lon="0.82377">
        <ele>90.56</ele>
        <time>2020-07-01T13:35:52Z</time>
      </trkpt>
      <trkpt lat="47.18777" lon="0.8238">
        <ele>88.84</ele>
        <time>2020-07-01T13:35:53Z</time>
      </trkpt>
      <trkpt lat="47.18769" lon="0.82381">
        <ele>87.19</ele>
        <time>2020-07-01T13:35:54Z</time>
      </trkpt>
      <trkpt lat="47.18764" lon="0.82381">
        <ele>86.16</ele>
        <time>2020-07-01T13:35:55Z</time>
      </trkpt>
      <trkpt lat="47.18759" lon="0.82381">
        <ele>85.14</ele>
        <time>2020-07-01T13:35:56Z</time>
      </trkpt>
      <trkpt lat="47.18756" lon="0.82381">
        <ele>84.52</ele>
        <time>2020-07-01T13:35:57Z</time>
      </trkpt>
      <trkpt lat="47.18754" lon="0.82378">
        <ele>84.2</ele>
        <time>2020-07-01T13:35:58Z</time>
      </trkpt>
      <trkpt lat="47.18752" lon="0.82374">
        <ele>83.93</ele>
        <time>2020-07-01T13:35:59Z</time>
      </trkpt>
      <trkpt lat="47.1875" lon="0.82369">
        <ele>83.72</ele>
        <time>2020-07-01T13:36:00Z</time>
      </trkpt>
      <trkpt lat="47.18748" lon="0.82361">
        <ele>84.22</ele>
        <time>2020-07-01T13:36:01Z</time>
      </trkpt>
      <trkpt lat="47.18747" lon="0.82352">
        <ele>84.62</ele>
        <time>2020-07-01T13:36:02Z</time>
      </trkpt>
      <trkpt lat="47.18745" lon="0.82343">
        <ele>85.07</ele>
        <time>2020-07-01T13:36:03Z</time>
      </trkpt>
      <trkpt lat="47.18744" lon="0.82332">
        <ele>85.46</ele>
        <time>2020-07-01T13:36:04Z</time>
      </trkpt>
      <trkpt lat="47.18742" lon="0.8232">
        <ele>85.78</ele>
        <time>2020-07-01T13:36:05Z</time>
      </trkpt>
      <trkpt lat="47.1874" lon="0.82308">
        <ele>85.98</ele>
        <time>2020-07-01T13:36:06Z</time>
      </trkpt>
      <trkpt lat="47.18738" lon="0.82294">
        <ele>86.83</ele>
        <time>2020-07-01T13:36:07Z</time>
      </trkpt>
      <trkpt lat="47.18736" lon="0.8228">
        <ele>87.84</ele>
        <time>2020-07-01T13:36:08Z</time>
      </trkpt>
      <trkpt lat="47.18736" lon="0.82266">
        <ele>90.32</ele>
        <time>2020-07-01T13:36:09Z</time>
      </trkpt>
      <trkpt lat="47.18736" lon="0.82251">
        <ele>93.27</ele>
        <time>2020-07-01T13:36:10Z</time>
      </trkpt>
      <trkpt lat="47.18736" lon="0.82237">
        <ele>93.93</ele>
        <time>2020-07-01T13:36:11Z</time>
      </trkpt>
      <trkpt lat="47.18738" lon="0.82224">
        <ele>95.18</ele>
        <time>2020-07-01T13:36:12Z</time>
      </trkpt>
      <trkpt lat="47.1874" lon="0.82211">
        <ele>94.52</ele>
        <time>2020-07-01T13:36:13Z</time>
      </trkpt>
      <trkpt lat="47.18742" lon="0.82199">
        <ele>93.15</ele>
        <time>2020-07-01T13:36:14Z</time>
      </trkpt>
      <trkpt lat="47.18742" lon="0.82189">
        <ele>92.79</ele>
        <time>2020-07-01T13:36:15Z</time>
      </trkpt>
      <trkpt lat="47.18742" lon="0.82179">
        <ele>93.45</ele>
        <time>2020-07-01T13:36:16Z</time>
      </trkpt>
      <trkpt lat="47.18742" lon="0.8217">
        <ele>94.05</ele>
        <time>2020-07-01T13:36:17Z</time>
      </trkpt>
      <trkpt lat="47.1874" lon="0.82163">
        <ele>93.78</ele>
        <time>2020-07-01T13:36:18Z</time>
      </trkpt>
      <trkpt lat="47.18735" lon="0.82161">
        <ele>92.52</ele>
        <time>2020-07-01T13:36:19Z</time>
      </trkpt>
      <trkpt lat="47.18727" lon="0.82161">
        <ele>90.56</ele>
        <time>2020-07-01T13:36:20Z</time>
      </trkpt>
      <trkpt lat="47.18718" lon="0.82161">
        <ele>89.15</ele>
        <time>2020-07-01T13:36:21Z</time>
      </trkpt>
      <trkpt lat="47.1871" lon="0.82163">
        <ele>88.84</ele>
        <time>2020-07-01T13:36:22Z</time>
      </trkpt>
      <trkpt lat="47.18701" lon="0.82165">
        <ele>88.38</ele>
        <time>2020-07-01T13:36:23Z</time>
      </trkpt>
      <trkpt lat="47.18692" lon="0.82168">
        <ele>87.75</ele>
        <time>2020-07-01T13:36:24Z</time>
      </trkpt>
      <trkpt lat="47.18683" lon="0.8217">
        <ele>86.37</ele>
        <time>2020-07-01T13:36:25Z</time>
      </trkpt>
      <trkpt lat="47.18673" lon="0.82173">
        <ele>84.88</ele>
        <time>2020-07-01T13:36:26Z</time>
      </trkpt>
      <trkpt lat="47.18664" lon="0.82176">
        <ele>83.97</ele>
        <time>2020-07-01T13:36:27Z</time>
      </trkpt>
      <trkpt lat="47.18655" lon="0.8218">
        <ele>84.05</ele>
        <time>2020-07-01T13:36:28Z</time>
      </trkpt>
      <trkpt lat="47.18645" lon="0.82183">
        <ele>83.71</ele>
        <time>2020-07-01T13:36:29Z</time>
      </trkpt>
      <trkpt lat="47.18636" lon="0.82187">
        <ele>83.5</ele>
        <time>2020-07-01T13:36:30Z</time>
      </trkpt>
      <trkpt lat="47.18626" lon="0.8219">
        <ele>84.33</ele>
        <time>2020-07-01T13:36:31Z</time>
      </trkpt>
      <trkpt lat="47.18617" lon="0.82193">
        <ele>85.29</ele>
        <time>2020-07-01T13:36:32Z</time>
      </trkpt>
      <trkpt lat="47.18608" lon="0.82194">
        <ele>85.97</ele>
        <time>2020-07-01T13:36:33Z</time>
      </trkpt>
      <trkpt lat="47.18599" lon="0.82195">
        <ele>86.08</ele>
        <time>2020-07-01T13:36:34Z</time>
      </trkpt>
      <trkpt lat="47.1859" lon="0.82195">
        <ele>86.12</ele>
        <time>2020-07-01T13:36:35Z</time>
      </trkpt>
      <trkpt lat="47.18581" lon="0.82194">
        <ele>86.04</ele>
        <time>2020-07-01T13:36:36Z</time>
      </trkpt>
      <trkpt lat="47.18572" lon="0.82194">
        <ele>86.37</ele>
        <time>2020-07-01T13:36:37Z</time>
      </trkpt>
      <trkpt lat="47.18563" lon="0.82194">
        <ele>86.7</ele>
        <time>2020-07-01T13:36:38Z</time>
      </trkpt>
      <trkpt lat="47.18555" lon="0.82194">
        <ele>86.97</ele>
        <time>2020-07-01T13:36:39Z</time>
      </trkpt>
      <trkpt lat="47.18546" lon="0.82195">
        <ele>87.06</ele>
        <time>2020-07-01T13:36:40Z</time>
      </trkpt>
      <trkpt lat="47.18538" lon="0.82196">
        <ele>87.12</ele>
        <time>2020-07-01T13:36:41Z</time>
      </trkpt>
      <trkpt lat="47.1853" lon="0.82199">
        <ele>87.2</ele>
        <time>2020-07-01T13:36:42Z</time>
      </trkpt>
      <trkpt lat="47.18521" lon="0.82202">
        <ele>88.12</ele>
        <time>2020-07-01T13:36:43Z</time>
      </trkpt>
      <trkpt lat="47.18513" lon="0.82205">
        <ele>89.1</ele>
        <time>2020-07-01T13:36:44Z</time>
      </trkpt>
      <trkpt lat="47.18505" lon="0.82208">
        <ele>89.97</ele>
        <time>2020-07-01T13:36:45Z</time>
      </trkpt>
      <trkpt lat="47.18497" lon="0.82211">
        <ele>89.74</ele>
        <time>2020-07-01T13:36:46Z</time>
      </trkpt>
      <trkpt lat="47.18491" lon="0.82215">
        <ele>88.16</ele>
        <time>2020-07-01T13:36:47Z</time>
      </trkpt>
      <trkpt lat="47.18489" lon="0.8222">
        <ele>87.37</ele>
        <time>2020-07-01T13:36:48Z</time>
      </trkpt>
      <trkpt lat="47.18489" lon="0.82227">
        <ele>87.47</ele>
        <time>2020-07-01T13:36:49Z</time>
      </trkpt>
      <trkpt lat="47.18489" lon="0.82234">
        <ele>87.82</ele>
        <time>2020-07-01T13:36:50Z</time>
      </trkpt>
      <trkpt lat="47.18491" lon="0.82242">
        <ele>88.67</ele>
        <time>2020-07-01T13:36:51Z</time>
      </trkpt>
      <trkpt lat="47.18496" lon="0.82251">
        <ele>90.25</ele>
        <time>2020-07-01T13:36:52Z</time>
      </trkpt>
      <trkpt lat="47.18502" lon="0.82261">
        <ele>92</ele>
        <time>2020-07-01T13:36:53Z</time>
      </trkpt>
      <trkpt lat="47.18508" lon="0.82272">
        <ele>92.18</ele>
        <time>2020-07-01T13:36:54Z</time>
      </trkpt>
      <trkpt lat="47.18514" lon="0.82284">
        <ele>92.26</ele>
        <time>2020-07-01T13:36:55Z</time>
      </trkpt>
      <trkpt lat="47.1852" lon="0.82296">
        <ele>92.55</ele>
        <time>2020-07-01T13:36:56Z</time>
      </trkpt>
      <trkpt lat="47.18526" lon="0.82309">
        <ele>92.64</ele>
        <time>2020-07-01T13:36:57Z</time>
      </trkpt>
      <trkpt lat="47.18532" lon="0.82322">
        <ele>92.61</ele>
        <time>2020-07-01T13:36:58Z</time>
      </trkpt>
      <trkpt lat="47.18538" lon="0.82335">
        <ele>92.2</ele>
        <time>2020-07-01T13:36:59Z</time>
      </trkpt>
      <trkpt lat="47.18544" lon="0.82348">
        <ele>91.3</ele>
        <time>2020-07-01T13:37:00Z</time>
      </trkpt>
      <trkpt lat="47.18549" lon="0.82362">
        <ele>90.46</ele>
        <time>2020-07-01T13:37:01Z</time>
      </trkpt>
      <trkpt lat="47.18554" lon="0.82377">
        <ele>90.42</ele>
        <time>2020-07-01T13:37:02Z</time>
      </trkpt>
      <trkpt lat="47.18558" lon="0.82391">
        <ele>90.8</ele>
        <time>2020-07-01T13:37:03Z</time>
      </trkpt>
      <trkpt lat="47.18562" lon="0.82406">
        <ele>90.63</ele>
        <time>2020-07-01T13:37:04Z</time>
      </trkpt>
      <trkpt lat="47.18566" lon="0.82421">
        <ele>90.02</ele>
        <time>2020-07-01T13:37:05Z</time>
      </trkpt>
      <trkpt lat="47.1857" lon="0.82436">
        <ele>89.07</ele>
        <time>2020-07-01T13:37:06Z</time>
      </trkpt>
      <trkpt lat="47.18574" lon="0.82451">
        <ele>88.42</ele>
        <time>2020-07-01T13:37:07Z</time>
      </trkpt>
      <trkpt lat="47.18578" lon="0.82466">
        <ele>88.25</ele>
        <time>2020-07-01T13:37:08Z</time>
      </trkpt>
      <trkpt lat="47.18582" lon="0.82481">
        <ele>88.7</ele>
        <time>2020-07-01T13:37:09Z</time>
      </trkpt>
      <trkpt lat="47.18586" lon="0.82495">
        <ele>89.54</ele>
        <time>2020-07-01T13:37:10Z</time>
      </trkpt>
      <trkpt lat="47.18589" lon="0.82509">
        <ele>90.83</ele>
        <time>2020-07-01T13:37:11Z</time>
      </trkpt>
      <trkpt lat="47.18592" lon="0.82523">
        <ele>92.43</ele>
        <time>2020-07-01T13:37:12Z</time>
      </trkpt>
      <trkpt lat="47.18593" lon="0.82536">
        <ele>93</ele>
        <time>2020-07-01T13:37:13Z</time>
      </trkpt>
      <trkpt lat="47.18593" lon="0.82549">
        <ele>93</ele>
        <time>2020-07-01T13:37:14Z</time>
      </trkpt>
      <trkpt lat="47.18593" lon="0.82562">
        <ele>93.77</ele>
        <time>2020-07-01T13:37:15Z</time>
      </trkpt>
      <trkpt lat="47.18592" lon="0.82573">
        <ele>95.12</ele>
        <time>2020-07-01T13:37:16Z</time>
      </trkpt>
      <trkpt lat="47.1859" lon="0.82582">
        <ele>96.35</ele>
        <time>2020-07-01T13:37:17Z</time>
      </trkpt>
      <trkpt lat="47.18587" lon="0.82588">
        <ele>96.76</ele>
        <time>2020-07-01T13:37:18Z</time>
      </trkpt>
      <trkpt lat="47.18583" lon="0.82593">
        <ele>96.92</ele>
        <time>2020-07-01T13:37:19Z</time>
      </trkpt>
      <trkpt lat="47.18578" lon="0.82598">
        <ele>95.77</ele>
        <time>2020-07-01T13:37:20Z</time>
      </trkpt>
      <trkpt lat="47.18572" lon="0.82604">
        <ele>94.65</ele>
        <time>2020-07-01T13:37:21Z</time>
      </trkpt>
      <trkpt lat="47.18565" lon="0.82611">
        <ele>93.69</ele>
        <time>2020-07-01T13:37:22Z</time>
      </trkpt>
      <trkpt lat="47.18557" lon="0.82618">
        <ele>91.76</ele>
        <time>2020-07-01T13:37:23Z</time>
      </trkpt>
      <trkpt lat="47.1855" lon="0.82625">
        <ele>90.4</ele>
        <time>2020-07-01T13:37:24Z</time>
      </trkpt>
      <trkpt lat="47.18542" lon="0.82632">
        <ele>89.03</ele>
        <time>2020-07-01T13:37:25Z</time>
      </trkpt>
      <trkpt lat="47.18534" lon="0.82639">
        <ele>87.66</ele>
        <time>2020-07-01T13:37:26Z</time>
      </trkpt>
      <trkpt lat="47.18527" lon="0.82647">
        <ele>86.18</ele>
        <time>2020-07-01T13:37:27Z</time>
      </trkpt>
      <trkpt lat="47.18519" lon="0.82654">
        <ele>85.63</ele>
        <time>2020-07-01T13:37:28Z</time>
      </trkpt>
      <trkpt lat="47.18511" lon="0.82661">
        <ele>84.5</ele>
        <time>2020-07-01T13:37:29Z</time>
      </trkpt>
      <trkpt lat="47.18503" lon="0.82668">
        <ele>82.97</ele>
        <time>2020-07-01T13:37:30Z</time>
      </trkpt>
      <trkpt lat="47.18496" lon="0.82675">
        <ele>83.06</ele>
        <time>2020-07-01T13:37:31Z</time>
      </trkpt>
      <trkpt lat="47.18488" lon="0.82682">
        <ele>84.13</ele>
        <time>2020-07-01T13:37:32Z</time>
      </trkpt>
      <trkpt lat="47.1848" lon="0.82689">
        <ele>85.05</ele>
        <time>2020-07-01T13:37:33Z</time>
      </trkpt>
      <trkpt lat="47.18472" lon="0.82696">
        <ele>85.74</ele>
        <time>2020-07-01T13:37:34Z</time>
      </trkpt>
      <trkpt lat="47.18464" lon="0.82702">
        <ele>85.72</ele>
        <time>2020-07-01T13:37:35Z</time>
      </trkpt>
      <trkpt lat="47.18457" lon="0.82708">
        <ele>86.26</ele>
        <time>2020-07-01T13:37:36Z</time>
      </trkpt>
      <trkpt lat="47.18451" lon="0.82713">
        <ele>87.25</ele>
        <time>2020-07-01T13:37:37Z</time>
      </trkpt>
      <trkpt lat="47.18446" lon="0.82718">
        <ele>88.45</ele>
        <time>2020-07-01T13:37:38Z</time>
      </trkpt>
      <trkpt lat="47.18445" lon="0.82722">
        <ele>88.83</ele>
        <time>2020-07-01T13:37:39Z</time>
      </trkpt>
      <trkpt lat="47.18445" lon="0.82728">
        <ele>88.25</ele>
        <time>2020-07-01T13:37:40Z</time>
      </trkpt>
      <trkpt lat="47.18446" lon="0.82736">
        <ele>87.29</ele>
        <time>2020-07-01T13:37:41Z</time>
      </trkpt>
      <trkpt lat="47.18449" lon="0.82745">
        <ele>86.3</ele>
        <time>2020-07-01T13:37:42Z</time>
      </trkpt>
      <trkpt lat="47.18454" lon="0.82754">
        <ele>85.53</ele>
        <time>2020-07-01T13:37:43Z</time>
      </trkpt>
      <trkpt lat="47.18459" lon="0.82764">
        <ele>85.09</ele>
        <time>2020-07-01T13:37:44Z</time>
      </trkpt>
      <trkpt lat="47.18464" lon="0.82775">
        <ele>85.67</ele>
        <time>2020-07-01T13:37:45Z</time>
      </trkpt>
      <trkpt lat="47.18469" lon="0.82788">
        <ele>88.18</ele>
        <time>2020-07-01T13:37:46Z</time>
      </trkpt>
      <trkpt lat="47.18474" lon="0.828">
        <ele>90.62</ele>
        <time>2020-07-01T13:37:47Z</time>
      </trkpt>
      <trkpt lat="47.18479" lon="0.82812">
        <ele>92.55</ele>
        <time>2020-07-01T13:37:48Z</time>
      </trkpt>
      <trkpt lat="47.18484" lon="0.82823">
        <ele>94.25</ele>
        <time>2020-07-01T13:37:49Z</time>
      </trkpt>
      <trkpt lat="47.18489" lon="0.82836">
        <ele>96.1</ele>
        <time>2020-07-01T13:37:50Z</time>
      </trkpt>
      <trkpt lat="47.18494" lon="0.82848">
        <ele>98.24</ele>
        <time>2020-07-01T13:37:51Z</time>
      </trkpt>
      <trkpt lat="47.18499" lon="0.8286">
        <ele>99.91</ele>
        <time>2020-07-01T13:37:52Z</time>
      </trkpt>
      <trkpt lat="47.18505" lon="0.82871">
        <ele>98.9</ele>
        <time>2020-07-01T13:37:53Z</time>
      </trkpt>
      <trkpt lat="47.18511" lon="0.82884">
        <ele>97.14</ele>
        <time>2020-07-01T13:37:54Z</time>
      </trkpt>
      <trkpt lat="47.18516" lon="0.82897">
        <ele>94.23</ele>
        <time>2020-07-01T13:37:55Z</time>
      </trkpt>
      <trkpt lat="47.18522" lon="0.8291">
        <ele>90.23</ele>
        <time>2020-07-01T13:37:56Z</time>
      </trkpt>
      <trkpt lat="47.18527" lon="0.82923">
        <ele>87.32</ele>
        <time>2020-07-01T13:37:57Z</time>
      </trkpt>
      <trkpt lat="47.18533" lon="0.82937">
        <ele>85.68</ele>
        <time>2020-07-01T13:37:58Z</time>
      </trkpt>
      <trkpt lat="47.18538" lon="0.8295">
        <ele>84.17</ele>
        <time>2020-07-01T13:37:59Z</time>
      </trkpt>
      <trkpt lat="47.18544" lon="0.82963">
        <ele>82.36</ele>
        <time>2020-07-01T13:38:00Z</time>
      </trkpt>
      <trkpt lat="47.1855" lon="0.82977">
        <ele>81.55</ele>
        <time>2020-07-01T13:38:01Z</time>
      </trkpt>
      <trkpt lat="47.18555" lon="0.82991">
        <ele>82.75</ele>
        <time>2020-07-01T13:38:02Z</time>
      </trkpt>
      <trkpt lat="47.18561" lon="0.83005">
        <ele>82.92</ele>
        <time>2020-07-01T13:38:03Z</time>
      </trkpt>
      <trkpt lat="47.18567" lon="0.83019">
        <ele>82.75</ele>
        <time>2020-07-01T13:38:04Z</time>
      </trkpt>
      <trkpt lat="47.18572" lon="0.83033">
        <ele>81.63</ele>
        <time>2020-07-01T13:38:05Z</time>
      </trkpt>
      <trkpt lat="47.18577" lon="0.83045">
        <ele>78.9</ele>
        <time>2020-07-01T13:38:06Z</time>
      </trkpt>
      <trkpt lat="47.18583" lon="0.83057">
        <ele>75.8</ele>
        <time>2020-07-01T13:38:07Z</time>
      </trkpt>
      <trkpt lat="47.18587" lon="0.83068">
        <ele>71.8</ele>
        <time>2020-07-01T13:38:08Z</time>
      </trkpt>
      <trkpt lat="47.18592" lon="0.83079">
        <ele>67.24</ele>
        <time>2020-07-01T13:38:09Z</time>
      </trkpt>
      <trkpt lat="47.18598" lon="0.83092">
        <ele>65.13</ele>
        <time>2020-07-01T13:38:10Z</time>
      </trkpt>
      <trkpt lat="47.18604" lon="0.83106">
        <ele>66.14</ele>
        <time>2020-07-01T13:38:11Z</time>
      </trkpt>
      <trkpt lat="47.1861" lon="0.8312">
        <ele>63.77</ele>
        <time>2020-07-01T13:38:12Z</time>
      </trkpt>
      <trkpt lat="47.18616" lon="0.83135">
        <ele>58.95</ele>
        <time>2020-07-01T13:38:13Z</time>
      </trkpt>
      <trkpt lat="47.18622" lon="0.83149">
        <ele>57.05</ele>
        <time>2020-07-01T13:38:14Z</time>
      </trkpt>
      <trkpt lat="47.18628" lon="0.83163">
        <ele>55.92</ele>
        <time>2020-07-01T13:38:15Z</time>
      </trkpt>
      <trkpt lat="47.18633" lon="0.83176">
        <ele>54.97</ele>
        <time>2020-07-01T13:38:16Z</time>
      </trkpt>
      <trkpt lat="47.18639" lon="0.83188">
        <ele>54.46</ele>
        <time>2020-07-01T13:38:17Z</time>
      </trkpt>
      <trkpt lat="47.18645" lon="0.83199">
        <ele>53.85</ele>
        <time>2020-07-01T13:38:18Z</time>
      </trkpt>
      <trkpt lat="47.18653" lon="0.83208">
        <ele>53.99</ele>
        <time>2020-07-01T13:38:19Z</time>
      </trkpt>
      <trkpt lat="47.18661" lon="0.83216">
        <ele>54.44</ele>
        <time>2020-07-01T13:38:20Z</time>
      </trkpt>
      <trkpt lat="47.1867" lon="0.83224">
        <ele>55.11</ele>
        <time>2020-07-01T13:38:21Z</time>
      </trkpt>
      <trkpt lat="47.18679" lon="0.83231">
        <ele>56.11</ele>
        <time>2020-07-01T13:38:22Z</time>
      </trkpt>
      <trkpt lat="47.18688" lon="0.83239">
        <ele>58.41</ele>
        <time>2020-07-01T13:38:23Z</time>
      </trkpt>
      <trkpt lat="47.18697" lon="0.83246">
        <ele>61.81</ele>
        <time>2020-07-01T13:38:24Z</time>
      </trkpt>
      <trkpt lat="47.18706" lon="0.8325">
        <ele>64.91</ele>
        <time>2020-07-01T13:38:25Z</time>
      </trkpt>
      <trkpt lat="47.18715" lon="0.83252">
        <ele>67.13</ele>
        <time>2020-07-01T13:38:26Z</time>
      </trkpt>
      <trkpt lat="47.18737" lon="0.83253">
        <ele>68.18</ele>
        <time>2020-07-01T13:38:27Z</time>
      </trkpt>
      <trkpt lat="47.18742" lon="0.83254">
        <ele>68.11</ele>
        <time>2020-07-01T13:38:29Z</time>
      </trkpt>
      <trkpt lat="47.1875" lon="0.83254">
        <ele>67.86</ele>
        <time>2020-07-01T13:38:30Z</time>
      </trkpt>
      <trkpt lat="47.1876" lon="0.83255">
        <ele>66.32</ele>
        <time>2020-07-01T13:38:31Z</time>
      </trkpt>
      <trkpt lat="47.18768" lon="0.83256">
        <ele>65</ele>
        <time>2020-07-01T13:38:32Z</time>
      </trkpt>
      <trkpt lat="47.18776" lon="0.83257">
        <ele>63.59</ele>
        <time>2020-07-01T13:38:33Z</time>
      </trkpt>
      <trkpt lat="47.18784" lon="0.83258">
        <ele>62.84</ele>
        <time>2020-07-01T13:38:34Z</time>
      </trkpt>
      <trkpt lat="47.1879" lon="0.83259">
        <ele>62.44</ele>
        <time>2020-07-01T13:38:35Z</time>
      </trkpt>
      <trkpt lat="47.18795" lon="0.8326">
        <ele>62.12</ele>
        <time>2020-07-01T13:38:36Z</time>
      </trkpt>
      <trkpt lat="47.18798" lon="0.83262">
        <ele>61.98</ele>
        <time>2020-07-01T13:38:37Z</time>
      </trkpt>
      <trkpt lat="47.188" lon="0.8327">
        <ele>62.12</ele>
        <time>2020-07-01T13:38:39Z</time>
      </trkpt>
      <trkpt lat="47.188" lon="0.83276">
        <ele>62.34</ele>
        <time>2020-07-01T13:38:40Z</time>
      </trkpt>
      <trkpt lat="47.188" lon="0.83284">
        <ele>62.62</ele>
        <time>2020-07-01T13:38:41Z</time>
      </trkpt>
      <trkpt lat="47.18799" lon="0.83292">
        <ele>62.98</ele>
        <time>2020-07-01T13:38:42Z</time>
      </trkpt>
      <trkpt lat="47.18797" lon="0.833">
        <ele>63.42</ele>
        <time>2020-07-01T13:38:43Z</time>
      </trkpt>
      <trkpt lat="47.18794" lon="0.83308">
        <ele>64.27</ele>
        <time>2020-07-01T13:38:44Z</time>
      </trkpt>
      <trkpt lat="47.1879" lon="0.83315">
        <ele>65.82</ele>
        <time>2020-07-01T13:38:45Z</time>
      </trkpt>
      <trkpt lat="47.18785" lon="0.83323">
        <ele>67.62</ele>
        <time>2020-07-01T13:38:46Z</time>
      </trkpt>
      <trkpt lat="47.18781" lon="0.83331">
        <ele>69.35</ele>
        <time>2020-07-01T13:38:47Z</time>
      </trkpt>
      <trkpt lat="47.18776" lon="0.83341">
        <ele>71.35</ele>
        <time>2020-07-01T13:38:48Z</time>
      </trkpt>
      <trkpt lat="47.18772" lon="0.8335">
        <ele>72.94</ele>
        <time>2020-07-01T13:38:49Z</time>
      </trkpt>
      <trkpt lat="47.18768" lon="0.83359">
        <ele>74.16</ele>
        <time>2020-07-01T13:38:50Z</time>
      </trkpt>
      <trkpt lat="47.18764" lon="0.83367">
        <ele>75.03</ele>
        <time>2020-07-01T13:38:51Z</time>
      </trkpt>
      <trkpt lat="47.18761" lon="0.83374">
        <ele>75.72</ele>
        <time>2020-07-01T13:38:52Z</time>
      </trkpt>
      <trkpt lat="47.18757" lon="0.83382">
        <ele>76.44</ele>
        <time>2020-07-01T13:38:53Z</time>
      </trkpt>
      <trkpt lat="47.18754" lon="0.83389">
        <ele>77.02</ele>
        <time>2020-07-01T13:38:54Z</time>
      </trkpt>
      <trkpt lat="47.18751" lon="0.83397">
        <ele>78.72</ele>
        <time>2020-07-01T13:38:55Z</time>
      </trkpt>
      <trkpt lat="47.18748" lon="0.83404">
        <ele>80.3</ele>
        <time>2020-07-01T13:38:56Z</time>
      </trkpt>
      <trkpt lat="47.18745" lon="0.83412">
        <ele>82.02</ele>
        <time>2020-07-01T13:38:57Z</time>
      </trkpt>
      <trkpt lat="47.18743" lon="0.8342">
        <ele>83.39</ele>
        <time>2020-07-01T13:38:58Z</time>
      </trkpt>
      <trkpt lat="47.18742" lon="0.83429">
        <ele>84.46</ele>
        <time>2020-07-01T13:38:59Z</time>
      </trkpt>
      <trkpt lat="47.18742" lon="0.83438">
        <ele>85.53</ele>
        <time>2020-07-01T13:39:00Z</time>
      </trkpt>
      <trkpt lat="47.18742" lon="0.83447">
        <ele>86.46</ele>
        <time>2020-07-01T13:39:01Z</time>
      </trkpt>
      <trkpt lat="47.18743" lon="0.83455">
        <ele>86.92</ele>
        <time>2020-07-01T13:39:02Z</time>
      </trkpt>
      <trkpt lat="47.18745" lon="0.83463">
        <ele>87.21</ele>
        <time>2020-07-01T13:39:03Z</time>
      </trkpt>
      <trkpt lat="47.18748" lon="0.83472">
        <ele>87.28</ele>
        <time>2020-07-01T13:39:04Z</time>
      </trkpt>
      <trkpt lat="47.18752" lon="0.83481">
        <ele>86.51</ele>
        <time>2020-07-01T13:39:05Z</time>
      </trkpt>
      <trkpt lat="47.18756" lon="0.83488">
        <ele>86.03</ele>
        <time>2020-07-01T13:39:06Z</time>
      </trkpt>
      <trkpt lat="47.1876" lon="0.83496">
        <ele>85.68</ele>
        <time>2020-07-01T13:39:07Z</time>
      </trkpt>
      <trkpt lat="47.18765" lon="0.83502">
        <ele>85.24</ele>
        <time>2020-07-01T13:39:08Z</time>
      </trkpt>
      <trkpt lat="47.18769" lon="0.83509">
        <ele>84.34</ele>
        <time>2020-07-01T13:39:09Z</time>
      </trkpt>
      <trkpt lat="47.18774" lon="0.83515">
        <ele>83.52</ele>
        <time>2020-07-01T13:39:10Z</time>
      </trkpt>
      <trkpt lat="47.1878" lon="0.8352">
        <ele>82.39</ele>
        <time>2020-07-01T13:39:11Z</time>
      </trkpt>
      <trkpt lat="47.18787" lon="0.83526">
        <ele>80.74</ele>
        <time>2020-07-01T13:39:12Z</time>
      </trkpt>
      <trkpt lat="47.18792" lon="0.83531">
        <ele>79.96</ele>
        <time>2020-07-01T13:39:13Z</time>
      </trkpt>
      <trkpt lat="47.18798" lon="0.83536">
        <ele>79.36</ele>
        <time>2020-07-01T13:39:14Z</time>
      </trkpt>
      <trkpt lat="47.18802" lon="0.83544">
        <ele>79.38</ele>
        <time>2020-07-01T13:39:15Z</time>
      </trkpt>
      <trkpt lat="47.18806" lon="0.83553">
        <ele>79.86</ele>
        <time>2020-07-01T13:39:16Z</time>
      </trkpt>
      <trkpt lat="47.18811" lon="0.83563">
        <ele>81.61</ele>
        <time>2020-07-01T13:39:17Z</time>
      </trkpt>
      <trkpt lat="47.18817" lon="0.83572">
        <ele>83.36</ele>
        <time>2020-07-01T13:39:18Z</time>
      </trkpt>
      <trkpt lat="47.18823" lon="0.8358">
        <ele>84.85</ele>
        <time>2020-07-01T13:39:19Z</time>
      </trkpt>
      <trkpt lat="47.18826" lon="0.83587">
        <ele>85.92</ele>
        <time>2020-07-01T13:39:20Z</time>
      </trkpt>
      <trkpt lat="47.18829" lon="0.83595">
        <ele>87.39</ele>
        <time>2020-07-01T13:39:21Z</time>
      </trkpt>
      <trkpt lat="47.18832" lon="0.83602">
        <ele>89.07</ele>
        <time>2020-07-01T13:39:22Z</time>
      </trkpt>
      <trkpt lat="47.18835" lon="0.8361">
        <ele>90.74</ele>
        <time>2020-07-01T13:39:23Z</time>
      </trkpt>
      <trkpt lat="47.1884" lon="0.83617">
        <ele>91.03</ele>
        <time>2020-07-01T13:39:24Z</time>
      </trkpt>
      <trkpt lat="47.18848" lon="0.83623">
        <ele>90.65</ele>
        <time>2020-07-01T13:39:25Z</time>
      </trkpt>
      <trkpt lat="47.18856" lon="0.83628">
        <ele>89.91</ele>
        <time>2020-07-01T13:39:26Z</time>
      </trkpt>
      <trkpt lat="47.18864" lon="0.83634">
        <ele>89.23</ele>
        <time>2020-07-01T13:39:27Z</time>
      </trkpt>
      <trkpt lat="47.18873" lon="0.83638">
        <ele>89.42</ele>
        <time>2020-07-01T13:39:28Z</time>
      </trkpt>
      <trkpt lat="47.1888" lon="0.8364">
        <ele>89.76</ele>
        <time>2020-07-01T13:39:29Z</time>
      </trkpt>
      <trkpt lat="47.18887" lon="0.83641">
        <ele>90.08</ele>
        <time>2020-07-01T13:39:30Z</time>
      </trkpt>
      <trkpt lat="47.18893" lon="0.83642">
        <ele>90.22</ele>
        <time>2020-07-01T13:39:31Z</time>
      </trkpt>
      <trkpt lat="47.189" lon="0.83643">
        <ele>90.3</ele>
        <time>2020-07-01T13:39:32Z</time>
      </trkpt>
      <trkpt lat="47.18905" lon="0.83643">
        <ele>90.3</ele>
        <time>2020-07-01T13:39:33Z</time>
      </trkpt>
      <trkpt lat="47.18911" lon="0.83645">
        <ele>90.44</ele>
        <time>2020-07-01T13:39:34Z</time>
      </trkpt>
      <trkpt lat="47.18918" lon="0.83649">
        <ele>90.34</ele>
        <time>2020-07-01T13:39:35Z</time>
      </trkpt>
      <trkpt lat="47.18925" lon="0.83653">
        <ele>88.46</ele>
        <time>2020-07-01T13:39:36Z</time>
      </trkpt>
      <trkpt lat="47.18933" lon="0.83658">
        <ele>86.05</ele>
        <time>2020-07-01T13:39:37Z</time>
      </trkpt>
      <trkpt lat="47.18942" lon="0.83663">
        <ele>82.98</ele>
        <time>2020-07-01T13:39:38Z</time>
      </trkpt>
      <trkpt lat="47.18951" lon="0.83667">
        <ele>81.52</ele>
        <time>2020-07-01T13:39:39Z</time>
      </trkpt>
      <trkpt lat="47.18962" lon="0.8367">
        <ele>80.62</ele>
        <time>2020-07-01T13:39:40Z</time>
      </trkpt>
      <trkpt lat="47.18972" lon="0.83673">
        <ele>79.79</ele>
        <time>2020-07-01T13:39:41Z</time>
      </trkpt>
      <trkpt lat="47.18981" lon="0.83676">
        <ele>80.09</ele>
        <time>2020-07-01T13:39:42Z</time>
      </trkpt>
      <trkpt lat="47.18991" lon="0.83679">
        <ele>80.53</ele>
        <time>2020-07-01T13:39:43Z</time>
      </trkpt>
      <trkpt lat="47.19" lon="0.83682">
        <ele>81</ele>
        <time>2020-07-01T13:39:44Z</time>
      </trkpt>
      <trkpt lat="47.1901" lon="0.83686">
        <ele>81.97</ele>
        <time>2020-07-01T13:39:45Z</time>
      </trkpt>
      <trkpt lat="47.1902" lon="0.8369">
        <ele>83.04</ele>
        <time>2020-07-01T13:39:46Z</time>
      </trkpt>
      <trkpt lat="47.1903" lon="0.83693">
        <ele>83.72</ele>
        <time>2020-07-01T13:39:47Z</time>
      </trkpt>
      <trkpt lat="47.19041" lon="0.83695">
        <ele>82.59</ele>
        <time>2020-07-01T13:39:48Z</time>
      </trkpt>
      <trkpt lat="47.1905" lon="0.83696">
        <ele>81.69</ele>
        <time>2020-07-01T13:39:49Z</time>
      </trkpt>
      <trkpt lat="47.19059" lon="0.83698">
        <ele>81.94</ele>
        <time>2020-07-01T13:39:50Z</time>
      </trkpt>
      <trkpt lat="47.19068" lon="0.83699">
        <ele>83.72</ele>
        <time>2020-07-01T13:39:51Z</time>
      </trkpt>
      <trkpt lat="47.19077" lon="0.837">
        <ele>85.41</ele>
        <time>2020-07-01T13:39:52Z</time>
      </trkpt>
      <trkpt lat="47.19085" lon="0.83702">
        <ele>86.08</ele>
        <time>2020-07-01T13:39:53Z</time>
      </trkpt>
      <trkpt lat="47.19092" lon="0.83703">
        <ele>84.49</ele>
        <time>2020-07-01T13:39:54Z</time>
      </trkpt>
      <trkpt lat="47.191" lon="0.83706">
        <ele>82.72</ele>
        <time>2020-07-01T13:39:55Z</time>
      </trkpt>
      <trkpt lat="47.19107" lon="0.83708">
        <ele>81.31</ele>
        <time>2020-07-01T13:39:56Z</time>
      </trkpt>
      <trkpt lat="47.19115" lon="0.83711">
        <ele>80.23</ele>
        <time>2020-07-01T13:39:57Z</time>
      </trkpt>
      <trkpt lat="47.19123" lon="0.83714">
        <ele>79.77</ele>
        <time>2020-07-01T13:39:58Z</time>
      </trkpt>
      <trkpt lat="47.19131" lon="0.83719">
        <ele>79.84</ele>
        <time>2020-07-01T13:39:59Z</time>
      </trkpt>
      <trkpt lat="47.19139" lon="0.83725">
        <ele>80.2</ele>
        <time>2020-07-01T13:40:00Z</time>
      </trkpt>
      <trkpt lat="47.19146" lon="0.83733">
        <ele>80.42</ele>
        <time>2020-07-01T13:40:01Z</time>
      </trkpt>
      <trkpt lat="47.19153" lon="0.83741">
        <ele>80.5</ele>
        <time>2020-07-01T13:40:02Z</time>
      </trkpt>
      <trkpt lat="47.1916" lon="0.8375">
        <ele>80.48</ele>
        <time>2020-07-01T13:40:03Z</time>
      </trkpt>
      <trkpt lat="47.19167" lon="0.8376">
        <ele>80.33</ele>
        <time>2020-07-01T13:40:04Z</time>
      </trkpt>
      <trkpt lat="47.19173" lon="0.8377">
        <ele>80.1</ele>
        <time>2020-07-01T13:40:05Z</time>
      </trkpt>
      <trkpt lat="47.19179" lon="0.83779">
        <ele>79.69</ele>
        <time>2020-07-01T13:40:06Z</time>
      </trkpt>
      <trkpt lat="47.19184" lon="0.83787">
        <ele>79.34</ele>
        <time>2020-07-01T13:40:07Z</time>
      </trkpt>
      <trkpt lat="47.19188" lon="0.83796">
        <ele>79.2</ele>
        <time>2020-07-01T13:40:08Z</time>
      </trkpt>
      <trkpt lat="47.19192" lon="0.83806">
        <ele>79.2</ele>
        <time>2020-07-01T13:40:09Z</time>
      </trkpt>
      <trkpt lat="47.19197" lon="0.83817">
        <ele>80.04</ele>
        <time>2020-07-01T13:40:10Z</time>
      </trkpt>
      <trkpt lat="47.19202" lon="0.83829">
        <ele>80.86</ele>
        <time>2020-07-01T13:40:11Z</time>
      </trkpt>
      <trkpt lat="47.19207" lon="0.83843">
        <ele>80.3</ele>
        <time>2020-07-01T13:40:12Z</time>
      </trkpt>
      <trkpt lat="47.19213" lon="0.83857">
        <ele>79.3</ele>
        <time>2020-07-01T13:40:13Z</time>
      </trkpt>
      <trkpt lat="47.19218" lon="0.83871">
        <ele>79.14</ele>
        <time>2020-07-01T13:40:14Z</time>
      </trkpt>
      <trkpt lat="47.19222" lon="0.83883">
        <ele>79.76</ele>
        <time>2020-07-01T13:40:15Z</time>
      </trkpt>
      <trkpt lat="47.19226" lon="0.83894">
        <ele>80.39</ele>
        <time>2020-07-01T13:40:16Z</time>
      </trkpt>
      <trkpt lat="47.1923" lon="0.83904">
        <ele>80.73</ele>
        <time>2020-07-01T13:40:17Z</time>
      </trkpt>
      <trkpt lat="47.19233" lon="0.83915">
        <ele>80.98</ele>
        <time>2020-07-01T13:40:18Z</time>
      </trkpt>
      <trkpt lat="47.19236" lon="0.83924">
        <ele>80.69</ele>
        <time>2020-07-01T13:40:19Z</time>
      </trkpt>
      <trkpt lat="47.19239" lon="0.83932">
        <ele>80.48</ele>
        <time>2020-07-01T13:40:20Z</time>
      </trkpt>
      <trkpt lat="47.1924" lon="0.83937">
        <ele>80.21</ele>
        <time>2020-07-01T13:40:21Z</time>
      </trkpt>
      <trkpt lat="47.1924" lon="0.83944">
        <ele>79.52</ele>
        <time>2020-07-01T13:40:23Z</time>
      </trkpt>
      <trkpt lat="47.19237" lon="0.83949">
        <ele>79.36</ele>
        <time>2020-07-01T13:40:24Z</time>
      </trkpt>
      <trkpt lat="47.19231" lon="0.83955">
        <ele>79.01</ele>
        <time>2020-07-01T13:40:25Z</time>
      </trkpt>
      <trkpt lat="47.19223" lon="0.83963">
        <ele>79.13</ele>
        <time>2020-07-01T13:40:26Z</time>
      </trkpt>
      <trkpt lat="47.19213" lon="0.83971">
        <ele>81.33</ele>
        <time>2020-07-01T13:40:27Z</time>
      </trkpt>
      <trkpt lat="47.19204" lon="0.8398">
        <ele>82.59</ele>
        <time>2020-07-01T13:40:28Z</time>
      </trkpt>
      <trkpt lat="47.19195" lon="0.83988">
        <ele>83.53</ele>
        <time>2020-07-01T13:40:29Z</time>
      </trkpt>
      <trkpt lat="47.19187" lon="0.83994">
        <ele>82.56</ele>
        <time>2020-07-01T13:40:30Z</time>
      </trkpt>
      <trkpt lat="47.1918" lon="0.84">
        <ele>81.4</ele>
        <time>2020-07-01T13:40:31Z</time>
      </trkpt>
      <trkpt lat="47.19174" lon="0.84005">
        <ele>80.34</ele>
        <time>2020-07-01T13:40:32Z</time>
      </trkpt>
      <trkpt lat="47.1917" lon="0.8401">
        <ele>80.2</ele>
        <time>2020-07-01T13:40:33Z</time>
      </trkpt>
      <trkpt lat="47.1917" lon="0.84015">
        <ele>80.51</ele>
        <time>2020-07-01T13:40:34Z</time>
      </trkpt>
      <trkpt lat="47.1917" lon="0.84021">
        <ele>80.87</ele>
        <time>2020-07-01T13:40:35Z</time>
      </trkpt>
      <trkpt lat="47.19171" lon="0.84028">
        <ele>81.06</ele>
        <time>2020-07-01T13:40:36Z</time>
      </trkpt>
      <trkpt lat="47.19174" lon="0.84036">
        <ele>80.37</ele>
        <time>2020-07-01T13:40:37Z</time>
      </trkpt>
      <trkpt lat="47.19178" lon="0.84045">
        <ele>80.08</ele>
        <time>2020-07-01T13:40:38Z</time>
      </trkpt>
      <trkpt lat="47.19181" lon="0.84054">
        <ele>80.43</ele>
        <time>2020-07-01T13:40:39Z</time>
      </trkpt>
      <trkpt lat="47.19185" lon="0.84065">
        <ele>80.77</ele>
        <time>2020-07-01T13:40:40Z</time>
      </trkpt>
      <trkpt lat="47.1919" lon="0.84076">
        <ele>81.34</ele>
        <time>2020-07-01T13:40:41Z</time>
      </trkpt>
      <trkpt lat="47.19195" lon="0.84087">
        <ele>81.99</ele>
        <time>2020-07-01T13:40:42Z</time>
      </trkpt>
      <trkpt lat="47.192" lon="0.84099">
        <ele>81.77</ele>
        <time>2020-07-01T13:40:43Z</time>
      </trkpt>
      <trkpt lat="47.19204" lon="0.84112">
        <ele>81.39</ele>
        <time>2020-07-01T13:40:44Z</time>
      </trkpt>
      <trkpt lat="47.19209" lon="0.84125">
        <ele>82.5</ele>
        <time>2020-07-01T13:40:45Z</time>
      </trkpt>
      <trkpt lat="47.19215" lon="0.84138">
        <ele>84.35</ele>
        <time>2020-07-01T13:40:46Z</time>
      </trkpt>
      <trkpt lat="47.1922" lon="0.84152">
        <ele>86.69</ele>
        <time>2020-07-01T13:40:47Z</time>
      </trkpt>
      <trkpt lat="47.19225" lon="0.84167">
        <ele>89.24</ele>
        <time>2020-07-01T13:40:48Z</time>
      </trkpt>
      <trkpt lat="47.19231" lon="0.84181">
        <ele>91.34</ele>
        <time>2020-07-01T13:40:49Z</time>
      </trkpt>
      <trkpt lat="47.19236" lon="0.84195">
        <ele>93.5</ele>
        <time>2020-07-01T13:40:50Z</time>
      </trkpt>
      <trkpt lat="47.19241" lon="0.8421">
        <ele>94.21</ele>
        <time>2020-07-01T13:40:51Z</time>
      </trkpt>
      <trkpt lat="47.19247" lon="0.84224">
        <ele>94.66</ele>
        <time>2020-07-01T13:40:52Z</time>
      </trkpt>
      <trkpt lat="47.19252" lon="0.84238">
        <ele>93.84</ele>
        <time>2020-07-01T13:40:53Z</time>
      </trkpt>
      <trkpt lat="47.19258" lon="0.84253">
        <ele>93</ele>
        <time>2020-07-01T13:40:54Z</time>
      </trkpt>
      <trkpt lat="47.19263" lon="0.84268">
        <ele>91.83</ele>
        <time>2020-07-01T13:40:55Z</time>
      </trkpt>
      <trkpt lat="47.19269" lon="0.84283">
        <ele>90.8</ele>
        <time>2020-07-01T13:40:56Z</time>
      </trkpt>
      <trkpt lat="47.19274" lon="0.84298">
        <ele>89.54</ele>
        <time>2020-07-01T13:40:57Z</time>
      </trkpt>
      <trkpt lat="47.1928" lon="0.84313">
        <ele>89.26</ele>
        <time>2020-07-01T13:40:58Z</time>
      </trkpt>
      <trkpt lat="47.19286" lon="0.84327">
        <ele>89.5</ele>
        <time>2020-07-01T13:40:59Z</time>
      </trkpt>
      <trkpt lat="47.19291" lon="0.84342">
        <ele>88.09</ele>
        <time>2020-07-01T13:41:00Z</time>
      </trkpt>
      <trkpt lat="47.19297" lon="0.84357">
        <ele>85.37</ele>
        <time>2020-07-01T13:41:01Z</time>
      </trkpt>
      <trkpt lat="47.19302" lon="0.84372">
        <ele>83.42</ele>
        <time>2020-07-01T13:41:02Z</time>
      </trkpt>
      <trkpt lat="47.19308" lon="0.84387">
        <ele>82.3</ele>
        <time>2020-07-01T13:41:03Z</time>
      </trkpt>
      <trkpt lat="47.19314" lon="0.84402">
        <ele>83.18</ele>
        <time>2020-07-01T13:41:04Z</time>
      </trkpt>
      <trkpt lat="47.19319" lon="0.84416">
        <ele>84.86</ele>
        <time>2020-07-01T13:41:05Z</time>
      </trkpt>
      <trkpt lat="47.19324" lon="0.84431">
        <ele>85.48</ele>
        <time>2020-07-01T13:41:06Z</time>
      </trkpt>
      <trkpt lat="47.1933" lon="0.84445">
        <ele>84.98</ele>
        <time>2020-07-01T13:41:07Z</time>
      </trkpt>
      <trkpt lat="47.19335" lon="0.84458">
        <ele>84.33</ele>
        <time>2020-07-01T13:41:08Z</time>
      </trkpt>
      <trkpt lat="47.1934" lon="0.8447">
        <ele>83.36</ele>
        <time>2020-07-01T13:41:09Z</time>
      </trkpt>
      <trkpt lat="47.19344" lon="0.84484">
        <ele>83.01</ele>
        <time>2020-07-01T13:41:10Z</time>
      </trkpt>
      <trkpt lat="47.19349" lon="0.84497">
        <ele>82.81</ele>
        <time>2020-07-01T13:41:11Z</time>
      </trkpt>
      <trkpt lat="47.19354" lon="0.8451">
        <ele>83.14</ele>
        <time>2020-07-01T13:41:12Z</time>
      </trkpt>
      <trkpt lat="47.1936" lon="0.84524">
        <ele>83.77</ele>
        <time>2020-07-01T13:41:13Z</time>
      </trkpt>
      <trkpt lat="47.19365" lon="0.84539">
        <ele>85.11</ele>
        <time>2020-07-01T13:41:14Z</time>
      </trkpt>
      <trkpt lat="47.19371" lon="0.84553">
        <ele>86.24</ele>
        <time>2020-07-01T13:41:15Z</time>
      </trkpt>
      <trkpt lat="47.19376" lon="0.84567">
        <ele>86.7</ele>
        <time>2020-07-01T13:41:16Z</time>
      </trkpt>
      <trkpt lat="47.19382" lon="0.84581">
        <ele>86.52</ele>
        <time>2020-07-01T13:41:17Z</time>
      </trkpt>
      <trkpt lat="47.19387" lon="0.84595">
        <ele>86.61</ele>
        <time>2020-07-01T13:41:18Z</time>
      </trkpt>
      <trkpt lat="47.19393" lon="0.84609">
        <ele>86.64</ele>
        <time>2020-07-01T13:41:19Z</time>
      </trkpt>
      <trkpt lat="47.19398" lon="0.84624">
        <ele>85.72</ele>
        <time>2020-07-01T13:41:20Z</time>
      </trkpt>
      <trkpt lat="47.19403" lon="0.84638">
        <ele>85.03</ele>
        <time>2020-07-01T13:41:21Z</time>
      </trkpt>
      <trkpt lat="47.19409" lon="0.84653">
        <ele>83.39</ele>
        <time>2020-07-01T13:41:22Z</time>
      </trkpt>
      <trkpt lat="47.19414" lon="0.84667">
        <ele>81.27</ele>
        <time>2020-07-01T13:41:23Z</time>
      </trkpt>
      <trkpt lat="47.1942" lon="0.84681">
        <ele>80.49</ele>
        <time>2020-07-01T13:41:24Z</time>
      </trkpt>
      <trkpt lat="47.19425" lon="0.84696">
        <ele>79.09</ele>
        <time>2020-07-01T13:41:25Z</time>
      </trkpt>
      <trkpt lat="47.1943" lon="0.8471">
        <ele>80.1</ele>
        <time>2020-07-01T13:41:26Z</time>
      </trkpt>
      <trkpt lat="47.19435" lon="0.84724">
        <ele>81.7</ele>
        <time>2020-07-01T13:41:27Z</time>
      </trkpt>
      <trkpt lat="47.1944" lon="0.84739">
        <ele>85.3</ele>
        <time>2020-07-01T13:41:28Z</time>
      </trkpt>
      <trkpt lat="47.19446" lon="0.84753">
        <ele>88.1</ele>
        <time>2020-07-01T13:41:29Z</time>
      </trkpt>
      <trkpt lat="47.19452" lon="0.84768">
        <ele>88.58</ele>
        <time>2020-07-01T13:41:30Z</time>
      </trkpt>
      <trkpt lat="47.19457" lon="0.84782">
        <ele>88.78</ele>
        <time>2020-07-01T13:41:31Z</time>
      </trkpt>
      <trkpt lat="47.19463" lon="0.84797">
        <ele>88.92</ele>
        <time>2020-07-01T13:41:32Z</time>
      </trkpt>
      <trkpt lat="47.19468" lon="0.84812">
        <ele>89.28</ele>
        <time>2020-07-01T13:41:33Z</time>
      </trkpt>
      <trkpt lat="47.19473" lon="0.84827">
        <ele>89.72</ele>
        <time>2020-07-01T13:41:34Z</time>
      </trkpt>
      <trkpt lat="47.19479" lon="0.84842">
        <ele>89.12</ele>
        <time>2020-07-01T13:41:35Z</time>
      </trkpt>
      <trkpt lat="47.19484" lon="0.84856">
        <ele>88.56</ele>
        <time>2020-07-01T13:41:36Z</time>
      </trkpt>
      <trkpt lat="47.1949" lon="0.84871">
        <ele>88.06</ele>
        <time>2020-07-01T13:41:37Z</time>
      </trkpt>
      <trkpt lat="47.19495" lon="0.84885">
        <ele>87.25</ele>
        <time>2020-07-01T13:41:38Z</time>
      </trkpt>
      <trkpt lat="47.195" lon="0.84899">
        <ele>87</ele>
        <time>2020-07-01T13:41:39Z</time>
      </trkpt>
      <trkpt lat="47.19505" lon="0.84913">
        <ele>86.57</ele>
        <time>2020-07-01T13:41:40Z</time>
      </trkpt>
      <trkpt lat="47.19511" lon="0.84928">
        <ele>87.35</ele>
        <time>2020-07-01T13:41:41Z</time>
      </trkpt>
      <trkpt lat="47.19516" lon="0.84942">
        <ele>88.72</ele>
        <time>2020-07-01T13:41:42Z</time>
      </trkpt>
      <trkpt lat="47.19521" lon="0.84957">
        <ele>90.7</ele>
        <time>2020-07-01T13:41:43Z</time>
      </trkpt>
      <trkpt lat="47.19527" lon="0.84971">
        <ele>92.8</ele>
        <time>2020-07-01T13:41:44Z</time>
      </trkpt>
      <trkpt lat="47.19532" lon="0.84985">
        <ele>91.93</ele>
        <time>2020-07-01T13:41:45Z</time>
      </trkpt>
      <trkpt lat="47.19538" lon="0.84999">
        <ele>90.7</ele>
        <time>2020-07-01T13:41:46Z</time>
      </trkpt>
      <trkpt lat="47.19543" lon="0.85013">
        <ele>89.56</ele>
        <time>2020-07-01T13:41:47Z</time>
      </trkpt>
      <trkpt lat="47.19548" lon="0.85027">
        <ele>88.77</ele>
        <time>2020-07-01T13:41:48Z</time>
      </trkpt>
      <trkpt lat="47.19554" lon="0.85042">
        <ele>88.4</ele>
        <time>2020-07-01T13:41:49Z</time>
      </trkpt>
      <trkpt lat="47.19559" lon="0.85056">
        <ele>88.23</ele>
        <time>2020-07-01T13:41:50Z</time>
      </trkpt>
      <trkpt lat="47.19565" lon="0.85069">
        <ele>88.36</ele>
        <time>2020-07-01T13:41:51Z</time>
      </trkpt>
      <trkpt lat="47.1957" lon="0.85083">
        <ele>88.57</ele>
        <time>2020-07-01T13:41:52Z</time>
      </trkpt>
      <trkpt lat="47.19575" lon="0.85098">
        <ele>88.57</ele>
        <time>2020-07-01T13:41:53Z</time>
      </trkpt>
      <trkpt lat="47.1958" lon="0.85113">
        <ele>88.56</ele>
        <time>2020-07-01T13:41:54Z</time>
      </trkpt>
      <trkpt lat="47.19585" lon="0.85127">
        <ele>88.63</ele>
        <time>2020-07-01T13:41:55Z</time>
      </trkpt>
      <trkpt lat="47.19591" lon="0.85142">
        <ele>88.59</ele>
        <time>2020-07-01T13:41:56Z</time>
      </trkpt>
      <trkpt lat="47.19596" lon="0.85156">
        <ele>87.63</ele>
        <time>2020-07-01T13:41:57Z</time>
      </trkpt>
      <trkpt lat="47.19601" lon="0.8517">
        <ele>86.23</ele>
        <time>2020-07-01T13:41:58Z</time>
      </trkpt>
      <trkpt lat="47.19607" lon="0.85184">
        <ele>85.87</ele>
        <time>2020-07-01T13:41:59Z</time>
      </trkpt>
      <trkpt lat="47.19612" lon="0.85198">
        <ele>86.42</ele>
        <time>2020-07-01T13:42:00Z</time>
      </trkpt>
      <trkpt lat="47.19617" lon="0.85212">
        <ele>88.11</ele>
        <time>2020-07-01T13:42:01Z</time>
      </trkpt>
      <trkpt lat="47.19623" lon="0.85226">
        <ele>89.51</ele>
        <time>2020-07-01T13:42:02Z</time>
      </trkpt>
      <trkpt lat="47.19628" lon="0.8524">
        <ele>89.86</ele>
        <time>2020-07-01T13:42:03Z</time>
      </trkpt>
      <trkpt lat="47.19633" lon="0.85254">
        <ele>89.86</ele>
        <time>2020-07-01T13:42:03Z</time>
      </trkpt>
      <trkpt lat="47.19638" lon="0.85267">
        <ele>89.39</ele>
        <time>2020-07-01T13:42:04Z</time>
      </trkpt>
      <trkpt lat="47.19643" lon="0.8528">
        <ele>88.68</ele>
        <time>2020-07-01T13:42:05Z</time>
      </trkpt>
      <trkpt lat="47.19653" lon="0.85304">
        <ele>87.02</ele>
        <time>2020-07-01T13:42:08Z</time>
      </trkpt>
      <trkpt lat="47.19656" lon="0.85307">
        <ele>86.51</ele>
        <time>2020-07-01T13:42:10Z</time>
      </trkpt>
      <trkpt lat="47.1966" lon="0.85312">
        <ele>85.97</ele>
        <time>2020-07-01T13:42:11Z</time>
      </trkpt>
      <trkpt lat="47.19665" lon="0.85319">
        <ele>85.61</ele>
        <time>2020-07-01T13:42:12Z</time>
      </trkpt>
      <trkpt lat="47.19672" lon="0.85326">
        <ele>86.53</ele>
        <time>2020-07-01T13:42:13Z</time>
      </trkpt>
      <trkpt lat="47.1968" lon="0.85334">
        <ele>88.76</ele>
        <time>2020-07-01T13:42:14Z</time>
      </trkpt>
      <trkpt lat="47.19687" lon="0.85343">
        <ele>87.84</ele>
        <time>2020-07-01T13:42:15Z</time>
      </trkpt>
      <trkpt lat="47.19696" lon="0.85352">
        <ele>85</ele>
        <time>2020-07-01T13:42:16Z</time>
      </trkpt>
      <trkpt lat="47.19704" lon="0.85362">
        <ele>80.29</ele>
        <time>2020-07-01T13:42:17Z</time>
      </trkpt>
      <trkpt lat="47.19713" lon="0.85371">
        <ele>79.61</ele>
        <time>2020-07-01T13:42:18Z</time>
      </trkpt>
      <trkpt lat="47.19721" lon="0.85381">
        <ele>80.58</ele>
        <time>2020-07-01T13:42:19Z</time>
      </trkpt>
      <trkpt lat="47.1973" lon="0.85391">
        <ele>81.98</ele>
        <time>2020-07-01T13:42:20Z</time>
      </trkpt>
      <trkpt lat="47.19739" lon="0.85401">
        <ele>81.74</ele>
        <time>2020-07-01T13:42:21Z</time>
      </trkpt>
      <trkpt lat="47.19749" lon="0.85411">
        <ele>81.23</ele>
        <time>2020-07-01T13:42:22Z</time>
      </trkpt>
      <trkpt lat="47.19758" lon="0.85422">
        <ele>84.01</ele>
        <time>2020-07-01T13:42:23Z</time>
      </trkpt>
      <trkpt lat="47.19767" lon="0.85432">
        <ele>86.11</ele>
        <time>2020-07-01T13:42:24Z</time>
      </trkpt>
      <trkpt lat="47.19776" lon="0.85442">
        <ele>84.71</ele>
        <time>2020-07-01T13:42:24Z</time>
      </trkpt>
      <trkpt lat="47.19793" lon="0.85462">
        <ele>87.59</ele>
        <time>2020-07-01T13:42:27Z</time>
      </trkpt>
      <trkpt lat="47.19803" lon="0.85472">
        <ele>88.25</ele>
        <time>2020-07-01T13:42:28Z</time>
      </trkpt>
      <trkpt lat="47.19812" lon="0.85481">
        <ele>85.29</ele>
        <time>2020-07-01T13:42:29Z</time>
      </trkpt>
      <trkpt lat="47.1982" lon="0.8549">
        <ele>81.83</ele>
        <time>2020-07-01T13:42:30Z</time>
      </trkpt>
      <trkpt lat="47.19828" lon="0.855">
        <ele>78.11</ele>
        <time>2020-07-01T13:42:31Z</time>
      </trkpt>
      <trkpt lat="47.19836" lon="0.85509">
        <ele>75.03</ele>
        <time>2020-07-01T13:42:32Z</time>
      </trkpt>
      <trkpt lat="47.19844" lon="0.85519">
        <ele>73.62</ele>
        <time>2020-07-01T13:42:33Z</time>
      </trkpt>
      <trkpt lat="47.19851" lon="0.85528">
        <ele>72.73</ele>
        <time>2020-07-01T13:42:34Z</time>
      </trkpt>
      <trkpt lat="47.1986" lon="0.85538">
        <ele>72.07</ele>
        <time>2020-07-01T13:42:35Z</time>
      </trkpt>
      <trkpt lat="47.19868" lon="0.85547">
        <ele>72.93</ele>
        <time>2020-07-01T13:42:36Z</time>
      </trkpt>
      <trkpt lat="47.19878" lon="0.85558">
        <ele>75.25</ele>
        <time>2020-07-01T13:42:37Z</time>
      </trkpt>
      <trkpt lat="47.19887" lon="0.85568">
        <ele>78.33</ele>
        <time>2020-07-01T13:42:38Z</time>
      </trkpt>
      <trkpt lat="47.19896" lon="0.85578">
        <ele>81.11</ele>
        <time>2020-07-01T13:42:39Z</time>
      </trkpt>
      <trkpt lat="47.19906" lon="0.85589">
        <ele>84.72</ele>
        <time>2020-07-01T13:42:40Z</time>
      </trkpt>
      <trkpt lat="47.19915" lon="0.85599">
        <ele>87.68</ele>
        <time>2020-07-01T13:42:41Z</time>
      </trkpt>
      <trkpt lat="47.19924" lon="0.85609">
        <ele>89.05</ele>
        <time>2020-07-01T13:42:42Z</time>
      </trkpt>
      <trkpt lat="47.19933" lon="0.85619">
        <ele>89.26</ele>
        <time>2020-07-01T13:42:43Z</time>
      </trkpt>
      <trkpt lat="47.19942" lon="0.8563">
        <ele>86.79</ele>
        <time>2020-07-01T13:42:44Z</time>
      </trkpt>
      <trkpt lat="47.19951" lon="0.8564">
        <ele>84.13</ele>
        <time>2020-07-01T13:42:45Z</time>
      </trkpt>
      <trkpt lat="47.1996" lon="0.8565">
        <ele>83.34</ele>
        <time>2020-07-01T13:42:46Z</time>
      </trkpt>
      <trkpt lat="47.19969" lon="0.8566">
        <ele>82.31</ele>
        <time>2020-07-01T13:42:47Z</time>
      </trkpt>
      <trkpt lat="47.19977" lon="0.85669">
        <ele>82.36</ele>
        <time>2020-07-01T13:42:48Z</time>
      </trkpt>
      <trkpt lat="47.19986" lon="0.85679">
        <ele>83.21</ele>
        <time>2020-07-01T13:42:49Z</time>
      </trkpt>
      <trkpt lat="47.19994" lon="0.85689">
        <ele>84.2</ele>
        <time>2020-07-01T13:42:50Z</time>
      </trkpt>
      <trkpt lat="47.20002" lon="0.85698">
        <ele>86.54</ele>
        <time>2020-07-01T13:42:51Z</time>
      </trkpt>
      <trkpt lat="47.2001" lon="0.85707">
        <ele>90.52</ele>
        <time>2020-07-01T13:42:52Z</time>
      </trkpt>
      <trkpt lat="47.20017" lon="0.85716">
        <ele>93.25</ele>
        <time>2020-07-01T13:42:53Z</time>
      </trkpt>
      <trkpt lat="47.20026" lon="0.85724">
        <ele>95.06</ele>
        <time>2020-07-01T13:42:54Z</time>
      </trkpt>
      <trkpt lat="47.20034" lon="0.85733">
        <ele>94.87</ele>
        <time>2020-07-01T13:42:55Z</time>
      </trkpt>
      <trkpt lat="47.20043" lon="0.85742">
        <ele>93.62</ele>
        <time>2020-07-01T13:42:56Z</time>
      </trkpt>
      <trkpt lat="47.20051" lon="0.85752">
        <ele>92.09</ele>
        <time>2020-07-01T13:42:57Z</time>
      </trkpt>
      <trkpt lat="47.2006" lon="0.85762">
        <ele>90.2</ele>
        <time>2020-07-01T13:42:58Z</time>
      </trkpt>
      <trkpt lat="47.20068" lon="0.85771">
        <ele>88.78</ele>
        <time>2020-07-01T13:42:59Z</time>
      </trkpt>
      <trkpt lat="47.20077" lon="0.85781">
        <ele>86.86</ele>
        <time>2020-07-01T13:43:00Z</time>
      </trkpt>
      <trkpt lat="47.20086" lon="0.85791">
        <ele>85.87</ele>
        <time>2020-07-01T13:43:01Z</time>
      </trkpt>
      <trkpt lat="47.20095" lon="0.85801">
        <ele>84.66</ele>
        <time>2020-07-01T13:43:02Z</time>
      </trkpt>
      <trkpt lat="47.20103" lon="0.8581">
        <ele>83.49</ele>
        <time>2020-07-01T13:43:03Z</time>
      </trkpt>
      <trkpt lat="47.20111" lon="0.85818">
        <ele>82.91</ele>
        <time>2020-07-01T13:43:04Z</time>
      </trkpt>
      <trkpt lat="47.20118" lon="0.85826">
        <ele>83.54</ele>
        <time>2020-07-01T13:43:05Z</time>
      </trkpt>
      <trkpt lat="47.20123" lon="0.85833">
        <ele>83.98</ele>
        <time>2020-07-01T13:43:06Z</time>
      </trkpt>
      <trkpt lat="47.20128" lon="0.85839">
        <ele>84.74</ele>
        <time>2020-07-01T13:43:07Z</time>
      </trkpt>
      <trkpt lat="47.20133" lon="0.85843">
        <ele>85.32</ele>
        <time>2020-07-01T13:43:08Z</time>
      </trkpt>
      <trkpt lat="47.20137" lon="0.85845">
        <ele>85.65</ele>
        <time>2020-07-01T13:43:09Z</time>
      </trkpt>
      <trkpt lat="47.20142" lon="0.85845">
        <ele>86.08</ele>
        <time>2020-07-01T13:43:10Z</time>
      </trkpt>
      <trkpt lat="47.20145" lon="0.85844">
        <ele>86.33</ele>
        <time>2020-07-01T13:43:11Z</time>
      </trkpt>
      <trkpt lat="47.20148" lon="0.85837">
        <ele>85.8</ele>
        <time>2020-07-01T13:43:12Z</time>
      </trkpt>
      <trkpt lat="47.20152" lon="0.85828">
        <ele>85.7</ele>
        <time>2020-07-01T13:43:13Z</time>
      </trkpt>
      <trkpt lat="47.20156" lon="0.85817">
        <ele>85.88</ele>
        <time>2020-07-01T13:43:14Z</time>
      </trkpt>
      <trkpt lat="47.2016" lon="0.85806">
        <ele>86.06</ele>
        <time>2020-07-01T13:43:15Z</time>
      </trkpt>
      <trkpt lat="47.20165" lon="0.85794">
        <ele>85.15</ele>
        <time>2020-07-01T13:43:16Z</time>
      </trkpt>
      <trkpt lat="47.2017" lon="0.85783">
        <ele>84.35</ele>
        <time>2020-07-01T13:43:17Z</time>
      </trkpt>
      <trkpt lat="47.20175" lon="0.8577">
        <ele>83.74</ele>
        <time>2020-07-01T13:43:18Z</time>
      </trkpt>
      <trkpt lat="47.20181" lon="0.85758">
        <ele>83.81</ele>
        <time>2020-07-01T13:43:19Z</time>
      </trkpt>
      <trkpt lat="47.20186" lon="0.85746">
        <ele>84.26</ele>
        <time>2020-07-01T13:43:20Z</time>
      </trkpt>
      <trkpt lat="47.20191" lon="0.85734">
        <ele>85.4</ele>
        <time>2020-07-01T13:43:21Z</time>
      </trkpt>
      <trkpt lat="47.20196" lon="0.85722">
        <ele>86.09</ele>
        <time>2020-07-01T13:43:22Z</time>
      </trkpt>
      <trkpt lat="47.20201" lon="0.85711">
        <ele>84.88</ele>
        <time>2020-07-01T13:43:23Z</time>
      </trkpt>
      <trkpt lat="47.20205" lon="0.857">
        <ele>83.14</ele>
        <time>2020-07-01T13:43:24Z</time>
      </trkpt>
      <trkpt lat="47.20209" lon="0.8569">
        <ele>81.88</ele>
        <time>2020-07-01T13:43:25Z</time>
      </trkpt>
      <trkpt lat="47.20212" lon="0.85682">
        <ele>81.57</ele>
        <time>2020-07-01T13:43:26Z</time>
      </trkpt>
      <trkpt lat="47.20214" lon="0.85677">
        <ele>81.41</ele>
        <time>2020-07-01T13:43:27Z</time>
      </trkpt>
      <trkpt lat="47.20216" lon="0.85681">
        <ele>81.34</ele>
        <time>2020-07-01T13:43:33Z</time>
      </trkpt>
      <trkpt lat="47.20217" lon="0.85678">
        <ele>81.26</ele>
        <time>2020-07-01T13:43:47Z</time>
      </trkpt>
      <trkpt lat="47.20219" lon="0.85673">
        <ele>81.14</ele>
        <time>2020-07-01T13:44:06Z</time>
      </trkpt>
      <trkpt lat="47.20221" lon="0.85667">
        <ele>81.04</ele>
        <time>2020-07-01T13:44:07Z</time>
      </trkpt>
      <trkpt lat="47.20224" lon="0.85659">
        <ele>81.5</ele>
        <time>2020-07-01T13:44:08Z</time>
      </trkpt>
      <trkpt lat="47.20228" lon="0.85649">
        <ele>81.88</ele>
        <time>2020-07-01T13:44:09Z</time>
      </trkpt>
      <trkpt lat="47.20232" lon="0.85638">
        <ele>81.87</ele>
        <time>2020-07-01T13:44:10Z</time>
      </trkpt>
      <trkpt lat="47.20237" lon="0.85628">
        <ele>80.65</ele>
        <time>2020-07-01T13:44:11Z</time>
      </trkpt>
      <trkpt lat="47.20241" lon="0.85618">
        <ele>79.73</ele>
        <time>2020-07-01T13:44:12Z</time>
      </trkpt>
      <trkpt lat="47.20246" lon="0.85607">
        <ele>79.42</ele>
        <time>2020-07-01T13:44:13Z</time>
      </trkpt>
      <trkpt lat="47.20251" lon="0.85595">
        <ele>80.18</ele>
        <time>2020-07-01T13:44:14Z</time>
      </trkpt>
      <trkpt lat="47.20255" lon="0.85584">
        <ele>80.96</ele>
        <time>2020-07-01T13:44:15Z</time>
      </trkpt>
      <trkpt lat="47.20261" lon="0.85571">
        <ele>80.46</ele>
        <time>2020-07-01T13:44:16Z</time>
      </trkpt>
      <trkpt lat="47.20266" lon="0.85559">
        <ele>80.26</ele>
        <time>2020-07-01T13:44:17Z</time>
      </trkpt>
      <trkpt lat="47.20271" lon="0.85546">
        <ele>79.91</ele>
        <time>2020-07-01T13:44:18Z</time>
      </trkpt>
      <trkpt lat="47.20276" lon="0.85534">
        <ele>79.37</ele>
        <time>2020-07-01T13:44:19Z</time>
      </trkpt>
      <trkpt lat="47.20282" lon="0.85521">
        <ele>79.63</ele>
        <time>2020-07-01T13:44:20Z</time>
      </trkpt>
      <trkpt lat="47.20287" lon="0.85509">
        <ele>80.09</ele>
        <time>2020-07-01T13:44:21Z</time>
      </trkpt>
      <trkpt lat="47.20293" lon="0.85497">
        <ele>80.72</ele>
        <time>2020-07-01T13:44:22Z</time>
      </trkpt>
      <trkpt lat="47.20298" lon="0.85484">
        <ele>81.11</ele>
        <time>2020-07-01T13:44:23Z</time>
      </trkpt>
      <trkpt lat="47.20304" lon="0.85472">
        <ele>80.92</ele>
        <time>2020-07-01T13:44:24Z</time>
      </trkpt>
      <trkpt lat="47.20309" lon="0.8546">
        <ele>79.24</ele>
        <time>2020-07-01T13:44:25Z</time>
      </trkpt>
      <trkpt lat="47.20315" lon="0.85448">
        <ele>77.32</ele>
        <time>2020-07-01T13:44:26Z</time>
      </trkpt>
      <trkpt lat="47.2032" lon="0.85436">
        <ele>77.11</ele>
        <time>2020-07-01T13:44:27Z</time>
      </trkpt>
      <trkpt lat="47.20325" lon="0.85424">
        <ele>78.84</ele>
        <time>2020-07-01T13:44:28Z</time>
      </trkpt>
      <trkpt lat="47.2033" lon="0.85413">
        <ele>81.07</ele>
        <time>2020-07-01T13:44:29Z</time>
      </trkpt>
      <trkpt lat="47.20335" lon="0.854">
        <ele>80.72</ele>
        <time>2020-07-01T13:44:30Z</time>
      </trkpt>
      <trkpt lat="47.2034" lon="0.85389">
        <ele>80.24</ele>
        <time>2020-07-01T13:44:31Z</time>
      </trkpt>
      <trkpt lat="47.20344" lon="0.85377">
        <ele>81.24</ele>
        <time>2020-07-01T13:44:32Z</time>
      </trkpt>
      <trkpt lat="47.20349" lon="0.85365">
        <ele>82.28</ele>
        <time>2020-07-01T13:44:33Z</time>
      </trkpt>
      <trkpt lat="47.20355" lon="0.85353">
        <ele>82.25</ele>
        <time>2020-07-01T13:44:34Z</time>
      </trkpt>
      <trkpt lat="47.2036" lon="0.85342">
        <ele>80.48</ele>
        <time>2020-07-01T13:44:35Z</time>
      </trkpt>
      <trkpt lat="47.20365" lon="0.8533">
        <ele>80.38</ele>
        <time>2020-07-01T13:44:36Z</time>
      </trkpt>
      <trkpt lat="47.2037" lon="0.85318">
        <ele>83.69</ele>
        <time>2020-07-01T13:44:37Z</time>
      </trkpt>
      <trkpt lat="47.20375" lon="0.85307">
        <ele>85.71</ele>
        <time>2020-07-01T13:44:38Z</time>
      </trkpt>
      <trkpt lat="47.2038" lon="0.85295">
        <ele>86.92</ele>
        <time>2020-07-01T13:44:39Z</time>
      </trkpt>
      <trkpt lat="47.20385" lon="0.85283">
        <ele>87.92</ele>
        <time>2020-07-01T13:44:40Z</time>
      </trkpt>
      <trkpt lat="47.2039" lon="0.85272">
        <ele>88.78</ele>
        <time>2020-07-01T13:44:41Z</time>
      </trkpt>
      <trkpt lat="47.20395" lon="0.8526">
        <ele>89.11</ele>
        <time>2020-07-01T13:44:42Z</time>
      </trkpt>
      <trkpt lat="47.204" lon="0.85248">
        <ele>88.16</ele>
        <time>2020-07-01T13:44:43Z</time>
      </trkpt>
      <trkpt lat="47.20405" lon="0.85237">
        <ele>85.84</ele>
        <time>2020-07-01T13:44:44Z</time>
      </trkpt>
      <trkpt lat="47.20409" lon="0.85225">
        <ele>84.06</ele>
        <time>2020-07-01T13:44:45Z</time>
      </trkpt>
      <trkpt lat="47.20414" lon="0.85214">
        <ele>82.24</ele>
        <time>2020-07-01T13:44:46Z</time>
      </trkpt>
      <trkpt lat="47.2042" lon="0.85202">
        <ele>81.67</ele>
        <time>2020-07-01T13:44:47Z</time>
      </trkpt>
      <trkpt lat="47.20425" lon="0.8519">
        <ele>81.75</ele>
        <time>2020-07-01T13:44:48Z</time>
      </trkpt>
      <trkpt lat="47.2043" lon="0.85179">
        <ele>81.79</ele>
        <time>2020-07-01T13:44:49Z</time>
      </trkpt>
      <trkpt lat="47.20435" lon="0.85167">
        <ele>81.99</ele>
        <time>2020-07-01T13:44:50Z</time>
      </trkpt>
      <trkpt lat="47.2044" lon="0.85156">
        <ele>81.23</ele>
        <time>2020-07-01T13:44:51Z</time>
      </trkpt>
      <trkpt lat="47.20445" lon="0.85144">
        <ele>80.46</ele>
        <time>2020-07-01T13:44:52Z</time>
      </trkpt>
      <trkpt lat="47.2045" lon="0.85132">
        <ele>81.1</ele>
        <time>2020-07-01T13:44:53Z</time>
      </trkpt>
      <trkpt lat="47.20455" lon="0.85121">
        <ele>81.81</ele>
        <time>2020-07-01T13:44:54Z</time>
      </trkpt>
      <trkpt lat="47.20459" lon="0.8511">
        <ele>82.08</ele>
        <time>2020-07-01T13:44:55Z</time>
      </trkpt>
      <trkpt lat="47.20464" lon="0.85098">
        <ele>82.49</ele>
        <time>2020-07-01T13:44:56Z</time>
      </trkpt>
      <trkpt lat="47.20469" lon="0.85086">
        <ele>82.28</ele>
        <time>2020-07-01T13:44:57Z</time>
      </trkpt>
      <trkpt lat="47.20474" lon="0.85075">
        <ele>82.02</ele>
        <time>2020-07-01T13:44:58Z</time>
      </trkpt>
      <trkpt lat="47.2048" lon="0.85063">
        <ele>81.41</ele>
        <time>2020-07-01T13:44:59Z</time>
      </trkpt>
      <trkpt lat="47.20485" lon="0.85052">
        <ele>80.7</ele>
        <time>2020-07-01T13:45:00Z</time>
      </trkpt>
      <trkpt lat="47.2049" lon="0.85039">
        <ele>79.8</ele>
        <time>2020-07-01T13:45:01Z</time>
      </trkpt>
      <trkpt lat="47.20495" lon="0.85027">
        <ele>78.93</ele>
        <time>2020-07-01T13:45:02Z</time>
      </trkpt>
      <trkpt lat="47.205" lon="0.85015">
        <ele>78.46</ele>
        <time>2020-07-01T13:45:03Z</time>
      </trkpt>
      <trkpt lat="47.20505" lon="0.85004">
        <ele>78.32</ele>
        <time>2020-07-01T13:45:04Z</time>
      </trkpt>
      <trkpt lat="47.2051" lon="0.84992">
        <ele>78.68</ele>
        <time>2020-07-01T13:45:05Z</time>
      </trkpt>
      <trkpt lat="47.20515" lon="0.8498">
        <ele>79.15</ele>
        <time>2020-07-01T13:45:06Z</time>
      </trkpt>
      <trkpt lat="47.20519" lon="0.84969">
        <ele>79.54</ele>
        <time>2020-07-01T13:45:07Z</time>
      </trkpt>
      <trkpt lat="47.20524" lon="0.84957">
        <ele>80.04</ele>
        <time>2020-07-01T13:45:08Z</time>
      </trkpt>
      <trkpt lat="47.20529" lon="0.84945">
        <ele>81.07</ele>
        <time>2020-07-01T13:45:09Z</time>
      </trkpt>
      <trkpt lat="47.20534" lon="0.84933">
        <ele>83.23</ele>
        <time>2020-07-01T13:45:10Z</time>
      </trkpt>
      <trkpt lat="47.20539" lon="0.84922">
        <ele>85.12</ele>
        <time>2020-07-01T13:45:11Z</time>
      </trkpt>
      <trkpt lat="47.20544" lon="0.84911">
        <ele>85.88</ele>
        <time>2020-07-01T13:45:12Z</time>
      </trkpt>
      <trkpt lat="47.20549" lon="0.849">
        <ele>85.79</ele>
        <time>2020-07-01T13:45:13Z</time>
      </trkpt>
      <trkpt lat="47.20554" lon="0.84889">
        <ele>85.84</ele>
        <time>2020-07-01T13:45:14Z</time>
      </trkpt>
      <trkpt lat="47.20558" lon="0.84879">
        <ele>85.2</ele>
        <time>2020-07-01T13:45:15Z</time>
      </trkpt>
      <trkpt lat="47.20561" lon="0.84871">
        <ele>84.52</ele>
        <time>2020-07-01T13:45:16Z</time>
      </trkpt>
      <trkpt lat="47.20564" lon="0.84864">
        <ele>83.9</ele>
        <time>2020-07-01T13:45:17Z</time>
      </trkpt>
      <trkpt lat="47.20566" lon="0.84859">
        <ele>83.36</ele>
        <time>2020-07-01T13:45:18Z</time>
      </trkpt>
      <trkpt lat="47.20568" lon="0.84857">
        <ele>83.08</ele>
        <time>2020-07-01T13:45:20Z</time>
      </trkpt>
      <trkpt lat="47.20569" lon="0.84863">
        <ele>83.65</ele>
        <time>2020-07-01T13:45:22Z</time>
      </trkpt>
      <trkpt lat="47.20566" lon="0.84865">
        <ele>83.9</ele>
        <time>2020-07-01T13:45:27Z</time>
      </trkpt>
      <trkpt lat="47.20568" lon="0.84863">
        <ele>83.69</ele>
        <time>2020-07-01T13:47:45Z</time>
      </trkpt>
      <trkpt lat="47.20568" lon="0.84857">
        <ele>83.08</ele>
        <time>2020-07-01T13:48:10Z</time>
      </trkpt>
      <trkpt lat="47.2057" lon="0.84852">
        <ele>82.52</ele>
        <time>2020-07-01T13:48:11Z</time>
      </trkpt>
      <trkpt lat="47.20572" lon="0.84846">
        <ele>81.98</ele>
        <time>2020-07-01T13:48:12Z</time>
      </trkpt>
      <trkpt lat="47.20575" lon="0.8484">
        <ele>81.63</ele>
        <time>2020-07-01T13:48:13Z</time>
      </trkpt>
      <trkpt lat="47.20578" lon="0.84834">
        <ele>81.47</ele>
        <time>2020-07-01T13:48:14Z</time>
      </trkpt>
      <trkpt lat="47.20581" lon="0.84828">
        <ele>81.52</ele>
        <time>2020-07-01T13:48:15Z</time>
      </trkpt>
      <trkpt lat="47.20584" lon="0.84822">
        <ele>81.56</ele>
        <time>2020-07-01T13:48:16Z</time>
      </trkpt>
      <trkpt lat="47.20586" lon="0.84816">
        <ele>81.22</ele>
        <time>2020-07-01T13:48:17Z</time>
      </trkpt>
      <trkpt lat="47.20589" lon="0.84809">
        <ele>80.74</ele>
        <time>2020-07-01T13:48:18Z</time>
      </trkpt>
      <trkpt lat="47.20592" lon="0.84804">
        <ele>80.35</ele>
        <time>2020-07-01T13:48:19Z</time>
      </trkpt>
      <trkpt lat="47.20595" lon="0.84797">
        <ele>80.19</ele>
        <time>2020-07-01T13:48:20Z</time>
      </trkpt>
      <trkpt lat="47.20597" lon="0.84792">
        <ele>80.24</ele>
        <time>2020-07-01T13:48:21Z</time>
      </trkpt>
      <trkpt lat="47.20599" lon="0.84786">
        <ele>80.45</ele>
        <time>2020-07-01T13:48:21Z</time>
      </trkpt>
      <trkpt lat="47.20604" lon="0.84783">
        <ele>80.91</ele>
        <time>2020-07-01T13:48:22Z</time>
      </trkpt>
      <trkpt lat="47.20606" lon="0.84776">
        <ele>81.11</ele>
        <time>2020-07-01T13:48:23Z</time>
      </trkpt>
      <trkpt lat="47.20607" lon="0.84771">
        <ele>80.24</ele>
        <time>2020-07-01T13:48:27Z</time>
      </trkpt>
      <trkpt lat="47.20609" lon="0.84766">
        <ele>79.36</ele>
        <time>2020-07-01T13:48:31Z</time>
      </trkpt>
      <trkpt lat="47.20611" lon="0.8476">
        <ele>78.16</ele>
        <time>2020-07-01T13:48:32Z</time>
      </trkpt>
      <trkpt lat="47.20613" lon="0.84752">
        <ele>77.22</ele>
        <time>2020-07-01T13:48:33Z</time>
      </trkpt>
      <trkpt lat="47.20616" lon="0.84744">
        <ele>77.73</ele>
        <time>2020-07-01T13:48:34Z</time>
      </trkpt>
      <trkpt lat="47.20619" lon="0.84734">
        <ele>77.77</ele>
        <time>2020-07-01T13:48:35Z</time>
      </trkpt>
      <trkpt lat="47.20622" lon="0.84724">
        <ele>77.03</ele>
        <time>2020-07-01T13:48:36Z</time>
      </trkpt>
      <trkpt lat="47.20625" lon="0.84714">
        <ele>76.85</ele>
        <time>2020-07-01T13:48:37Z</time>
      </trkpt>
      <trkpt lat="47.20629" lon="0.84705">
        <ele>77.25</ele>
        <time>2020-07-01T13:48:38Z</time>
      </trkpt>
      <trkpt lat="47.20633" lon="0.84695">
        <ele>77.93</ele>
        <time>2020-07-01T13:48:39Z</time>
      </trkpt>
      <trkpt lat="47.20638" lon="0.84685">
        <ele>78.17</ele>
        <time>2020-07-01T13:48:40Z</time>
      </trkpt>
      <trkpt lat="47.20642" lon="0.84675">
        <ele>77.16</ele>
        <time>2020-07-01T13:48:41Z</time>
      </trkpt>
      <trkpt lat="47.20647" lon="0.84665">
        <ele>76.33</ele>
        <time>2020-07-01T13:48:42Z</time>
      </trkpt>
      <trkpt lat="47.20652" lon="0.84656">
        <ele>77.26</ele>
        <time>2020-07-01T13:48:43Z</time>
      </trkpt>
      <trkpt lat="47.20658" lon="0.84648">
        <ele>78.59</ele>
        <time>2020-07-01T13:48:44Z</time>
      </trkpt>
      <trkpt lat="47.20663" lon="0.84639">
        <ele>80.71</ele>
        <time>2020-07-01T13:48:45Z</time>
      </trkpt>
      <trkpt lat="47.20669" lon="0.84631">
        <ele>82.79</ele>
        <time>2020-07-01T13:48:46Z</time>
      </trkpt>
      <trkpt lat="47.20674" lon="0.84624">
        <ele>84.72</ele>
        <time>2020-07-01T13:48:47Z</time>
      </trkpt>
      <trkpt lat="47.20679" lon="0.84616">
        <ele>86.61</ele>
        <time>2020-07-01T13:48:48Z</time>
      </trkpt>
      <trkpt lat="47.20685" lon="0.84608">
        <ele>87.94</ele>
        <time>2020-07-01T13:48:49Z</time>
      </trkpt>
      <trkpt lat="47.2069" lon="0.84601">
        <ele>88.27</ele>
        <time>2020-07-01T13:48:50Z</time>
      </trkpt>
      <trkpt lat="47.20696" lon="0.84594">
        <ele>88.4</ele>
        <time>2020-07-01T13:48:51Z</time>
      </trkpt>
      <trkpt lat="47.20702" lon="0.84589">
        <ele>88.37</ele>
        <time>2020-07-01T13:48:52Z</time>
      </trkpt>
      <trkpt lat="47.20709" lon="0.84583">
        <ele>88.53</ele>
        <time>2020-07-01T13:48:53Z</time>
      </trkpt>
      <trkpt lat="47.20716" lon="0.84578">
        <ele>89.03</ele>
        <time>2020-07-01T13:48:54Z</time>
      </trkpt>
      <trkpt lat="47.20724" lon="0.84571">
        <ele>89.93</ele>
        <time>2020-07-01T13:48:55Z</time>
      </trkpt>
      <trkpt lat="47.20732" lon="0.84566">
        <ele>90.29</ele>
        <time>2020-07-01T13:48:56Z</time>
      </trkpt>
      <trkpt lat="47.2074" lon="0.84559">
        <ele>90.35</ele>
        <time>2020-07-01T13:48:57Z</time>
      </trkpt>
      <trkpt lat="47.20748" lon="0.84553">
        <ele>91.04</ele>
        <time>2020-07-01T13:48:58Z</time>
      </trkpt>
      <trkpt lat="47.20757" lon="0.84546">
        <ele>93.68</ele>
        <time>2020-07-01T13:48:59Z</time>
      </trkpt>
      <trkpt lat="47.20766" lon="0.84539">
        <ele>95.3</ele>
        <time>2020-07-01T13:49:00Z</time>
      </trkpt>
      <trkpt lat="47.20774" lon="0.84533">
        <ele>95.75</ele>
        <time>2020-07-01T13:49:01Z</time>
      </trkpt>
      <trkpt lat="47.20783" lon="0.84526">
        <ele>94.08</ele>
        <time>2020-07-01T13:49:02Z</time>
      </trkpt>
      <trkpt lat="47.20793" lon="0.84519">
        <ele>91.1</ele>
        <time>2020-07-01T13:49:03Z</time>
      </trkpt>
      <trkpt lat="47.20802" lon="0.84511">
        <ele>89.76</ele>
        <time>2020-07-01T13:49:04Z</time>
      </trkpt>
      <trkpt lat="47.20811" lon="0.84504">
        <ele>89.27</ele>
        <time>2020-07-01T13:49:05Z</time>
      </trkpt>
      <trkpt lat="47.20821" lon="0.84496">
        <ele>87.84</ele>
        <time>2020-07-01T13:49:06Z</time>
      </trkpt>
      <trkpt lat="47.2083" lon="0.84489">
        <ele>85.56</ele>
        <time>2020-07-01T13:49:07Z</time>
      </trkpt>
      <trkpt lat="47.2084" lon="0.84481">
        <ele>84.09</ele>
        <time>2020-07-01T13:49:08Z</time>
      </trkpt>
      <trkpt lat="47.20849" lon="0.84474">
        <ele>83.96</ele>
        <time>2020-07-01T13:49:09Z</time>
      </trkpt>
      <trkpt lat="47.20858" lon="0.84467">
        <ele>84.21</ele>
        <time>2020-07-01T13:49:10Z</time>
      </trkpt>
      <trkpt lat="47.20867" lon="0.8446">
        <ele>82.93</ele>
        <time>2020-07-01T13:49:10Z</time>
      </trkpt>
      <trkpt lat="47.20875" lon="0.84454">
        <ele>81.31</ele>
        <time>2020-07-01T13:49:11Z</time>
      </trkpt>
      <trkpt lat="47.20883" lon="0.84447">
        <ele>80.04</ele>
        <time>2020-07-01T13:49:12Z</time>
      </trkpt>
      <trkpt lat="47.21028" lon="0.84378">
        <ele>87.41</ele>
        <time>2020-07-01T13:49:37Z</time>
      </trkpt>
      <trkpt lat="47.21031" lon="0.84379">
        <ele>87.58</ele>
        <time>2020-07-01T13:49:53Z</time>
      </trkpt>
      <trkpt lat="47.21034" lon="0.84379">
        <ele>87.79</ele>
        <time>2020-07-01T13:49:54Z</time>
      </trkpt>
      <trkpt lat="47.2104" lon="0.84379">
        <ele>88.21</ele>
        <time>2020-07-01T13:49:55Z</time>
      </trkpt>
      <trkpt lat="47.21048" lon="0.84379">
        <ele>88.76</ele>
        <time>2020-07-01T13:49:56Z</time>
      </trkpt>
      <trkpt lat="47.21057" lon="0.8438">
        <ele>89.33</ele>
        <time>2020-07-01T13:49:57Z</time>
      </trkpt>
      <trkpt lat="47.21065" lon="0.8438">
        <ele>89.14</ele>
        <time>2020-07-01T13:49:58Z</time>
      </trkpt>
      <trkpt lat="47.21075" lon="0.84381">
        <ele>89.03</ele>
        <time>2020-07-01T13:49:59Z</time>
      </trkpt>
      <trkpt lat="47.21085" lon="0.84382">
        <ele>89.08</ele>
        <time>2020-07-01T13:50:00Z</time>
      </trkpt>
      <trkpt lat="47.21095" lon="0.84383">
        <ele>89.6</ele>
        <time>2020-07-01T13:50:01Z</time>
      </trkpt>
      <trkpt lat="47.21105" lon="0.84384">
        <ele>89.98</ele>
        <time>2020-07-01T13:50:02Z</time>
      </trkpt>
      <trkpt lat="47.21116" lon="0.84385">
        <ele>91.27</ele>
        <time>2020-07-01T13:50:03Z</time>
      </trkpt>
      <trkpt lat="47.21127" lon="0.84387">
        <ele>93.92</ele>
        <time>2020-07-01T13:50:04Z</time>
      </trkpt>
      <trkpt lat="47.21137" lon="0.84388">
        <ele>96.44</ele>
        <time>2020-07-01T13:50:05Z</time>
      </trkpt>
      <trkpt lat="47.21147" lon="0.84389">
        <ele>97.31</ele>
        <time>2020-07-01T13:50:06Z</time>
      </trkpt>
      <trkpt lat="47.21158" lon="0.8439">
        <ele>97.81</ele>
        <time>2020-07-01T13:50:07Z</time>
      </trkpt>
      <trkpt lat="47.21169" lon="0.84391">
        <ele>97.56</ele>
        <time>2020-07-01T13:50:08Z</time>
      </trkpt>
      <trkpt lat="47.2118" lon="0.84392">
        <ele>94.86</ele>
        <time>2020-07-01T13:50:09Z</time>
      </trkpt>
      <trkpt lat="47.21191" lon="0.84393">
        <ele>92.16</ele>
        <time>2020-07-01T13:50:10Z</time>
      </trkpt>
      <trkpt lat="47.21202" lon="0.84394">
        <ele>88.7</ele>
        <time>2020-07-01T13:50:11Z</time>
      </trkpt>
      <trkpt lat="47.21214" lon="0.84395">
        <ele>84.55</ele>
        <time>2020-07-01T13:50:12Z</time>
      </trkpt>
      <trkpt lat="47.21225" lon="0.84396">
        <ele>81.37</ele>
        <time>2020-07-01T13:50:13Z</time>
      </trkpt>
      <trkpt lat="47.21236" lon="0.84397">
        <ele>79.89</ele>
        <time>2020-07-01T13:50:14Z</time>
      </trkpt>
      <trkpt lat="47.21245" lon="0.84398">
        <ele>78.7</ele>
        <time>2020-07-01T13:50:14Z</time>
      </trkpt>
      <trkpt lat="47.21252" lon="0.844">
        <ele>78.21</ele>
        <time>2020-07-01T13:50:15Z</time>
      </trkpt>
      <trkpt lat="47.21259" lon="0.84401">
        <ele>78.35</ele>
        <time>2020-07-01T13:50:15Z</time>
      </trkpt>
      <trkpt lat="47.21264" lon="0.84401">
        <ele>78.37</ele>
        <time>2020-07-01T13:50:18Z</time>
      </trkpt>
      <trkpt lat="47.21267" lon="0.84401">
        <ele>78.39</ele>
        <time>2020-07-01T13:50:19Z</time>
      </trkpt>
      <trkpt lat="47.21272" lon="0.84401">
        <ele>78.41</ele>
        <time>2020-07-01T13:50:20Z</time>
      </trkpt>
      <trkpt lat="47.21279" lon="0.844">
        <ele>78.55</ele>
        <time>2020-07-01T13:50:21Z</time>
      </trkpt>
      <trkpt lat="47.21287" lon="0.84399">
        <ele>79.48</ele>
        <time>2020-07-01T13:50:22Z</time>
      </trkpt>
      <trkpt lat="47.21296" lon="0.84397">
        <ele>80.45</ele>
        <time>2020-07-01T13:50:23Z</time>
      </trkpt>
      <trkpt lat="47.21306" lon="0.84395">
        <ele>81.58</ele>
        <time>2020-07-01T13:50:24Z</time>
      </trkpt>
      <trkpt lat="47.21316" lon="0.84393">
        <ele>84.78</ele>
        <time>2020-07-01T13:50:25Z</time>
      </trkpt>
      <trkpt lat="47.21325" lon="0.8439">
        <ele>87.94</ele>
        <time>2020-07-01T13:50:26Z</time>
      </trkpt>
      <trkpt lat="47.21336" lon="0.84388">
        <ele>90.73</ele>
        <time>2020-07-01T13:50:27Z</time>
      </trkpt>
      <trkpt lat="47.21347" lon="0.84386">
        <ele>90.24</ele>
        <time>2020-07-01T13:50:28Z</time>
      </trkpt>
      <trkpt lat="47.21357" lon="0.84384">
        <ele>90.14</ele>
        <time>2020-07-01T13:50:29Z</time>
      </trkpt>
      <trkpt lat="47.21369" lon="0.84381">
        <ele>88.46</ele>
        <time>2020-07-01T13:50:30Z</time>
      </trkpt>
      <trkpt lat="47.2138" lon="0.84378">
        <ele>86.17</ele>
        <time>2020-07-01T13:50:31Z</time>
      </trkpt>
      <trkpt lat="47.21392" lon="0.84375">
        <ele>84.44</ele>
        <time>2020-07-01T13:50:32Z</time>
      </trkpt>
      <trkpt lat="47.21404" lon="0.84373">
        <ele>84.64</ele>
        <time>2020-07-01T13:50:33Z</time>
      </trkpt>
      <trkpt lat="47.21416" lon="0.8437">
        <ele>85.43</ele>
        <time>2020-07-01T13:50:34Z</time>
      </trkpt>
      <trkpt lat="47.21427" lon="0.84368">
        <ele>86.57</ele>
        <time>2020-07-01T13:50:35Z</time>
      </trkpt>
      <trkpt lat="47.21439" lon="0.84365">
        <ele>87.56</ele>
        <time>2020-07-01T13:50:36Z</time>
      </trkpt>
      <trkpt lat="47.21451" lon="0.84362">
        <ele>85.62</ele>
        <time>2020-07-01T13:50:37Z</time>
      </trkpt>
      <trkpt lat="47.21463" lon="0.8436">
        <ele>81.44</ele>
        <time>2020-07-01T13:50:38Z</time>
      </trkpt>
      <trkpt lat="47.21475" lon="0.84357">
        <ele>78.78</ele>
        <time>2020-07-01T13:50:39Z</time>
      </trkpt>
      <trkpt lat="47.21487" lon="0.84354">
        <ele>79.95</ele>
        <time>2020-07-01T13:50:40Z</time>
      </trkpt>
      <trkpt lat="47.21498" lon="0.84352">
        <ele>80.86</ele>
        <time>2020-07-01T13:50:41Z</time>
      </trkpt>
      <trkpt lat="47.21509" lon="0.8435">
        <ele>82.43</ele>
        <time>2020-07-01T13:50:42Z</time>
      </trkpt>
      <trkpt lat="47.21519" lon="0.84348">
        <ele>83.87</ele>
        <time>2020-07-01T13:50:43Z</time>
      </trkpt>
      <trkpt lat="47.21529" lon="0.84346">
        <ele>85.06</ele>
        <time>2020-07-01T13:50:44Z</time>
      </trkpt>
      <trkpt lat="47.21538" lon="0.84344">
        <ele>85.42</ele>
        <time>2020-07-01T13:50:45Z</time>
      </trkpt>
      <trkpt lat="47.21546" lon="0.84343">
        <ele>85.68</ele>
        <time>2020-07-01T13:50:46Z</time>
      </trkpt>
      <trkpt lat="47.21555" lon="0.8434">
        <ele>85.71</ele>
        <time>2020-07-01T13:50:47Z</time>
      </trkpt>
      <trkpt lat="47.21563" lon="0.84337">
        <ele>86.36</ele>
        <time>2020-07-01T13:50:48Z</time>
      </trkpt>
      <trkpt lat="47.21572" lon="0.84332">
        <ele>87.3</ele>
        <time>2020-07-01T13:50:49Z</time>
      </trkpt>
      <trkpt lat="47.21581" lon="0.84328">
        <ele>88.46</ele>
        <time>2020-07-01T13:50:50Z</time>
      </trkpt>
      <trkpt lat="47.21591" lon="0.84324">
        <ele>87.84</ele>
        <time>2020-07-01T13:50:51Z</time>
      </trkpt>
      <trkpt lat="47.21601" lon="0.8432">
        <ele>86.89</ele>
        <time>2020-07-01T13:50:52Z</time>
      </trkpt>
      <trkpt lat="47.21612" lon="0.84317">
        <ele>86.1</ele>
        <time>2020-07-01T13:50:53Z</time>
      </trkpt>
      <trkpt lat="47.21622" lon="0.84313">
        <ele>85.57</ele>
        <time>2020-07-01T13:50:54Z</time>
      </trkpt>
      <trkpt lat="47.21633" lon="0.84309">
        <ele>85.08</ele>
        <time>2020-07-01T13:50:55Z</time>
      </trkpt>
      <trkpt lat="47.21644" lon="0.84306">
        <ele>85.69</ele>
        <time>2020-07-01T13:50:56Z</time>
      </trkpt>
      <trkpt lat="47.21655" lon="0.84302">
        <ele>87.54</ele>
        <time>2020-07-01T13:50:57Z</time>
      </trkpt>
      <trkpt lat="47.21666" lon="0.84298">
        <ele>88.93</ele>
        <time>2020-07-01T13:50:58Z</time>
      </trkpt>
      <trkpt lat="47.21677" lon="0.84294">
        <ele>89.65</ele>
        <time>2020-07-01T13:50:59Z</time>
      </trkpt>
      <trkpt lat="47.21688" lon="0.8429">
        <ele>90.01</ele>
        <time>2020-07-01T13:51:00Z</time>
      </trkpt>
      <trkpt lat="47.217" lon="0.84287">
        <ele>89.8</ele>
        <time>2020-07-01T13:51:01Z</time>
      </trkpt>
      <trkpt lat="47.21711" lon="0.84283">
        <ele>89.23</ele>
        <time>2020-07-01T13:51:02Z</time>
      </trkpt>
      <trkpt lat="47.21723" lon="0.84279">
        <ele>88.94</ele>
        <time>2020-07-01T13:51:03Z</time>
      </trkpt>
      <trkpt lat="47.21734" lon="0.84276">
        <ele>87.99</ele>
        <time>2020-07-01T13:51:04Z</time>
      </trkpt>
      <trkpt lat="47.21745" lon="0.84272">
        <ele>86.91</ele>
        <time>2020-07-01T13:51:05Z</time>
      </trkpt>
      <trkpt lat="47.21757" lon="0.84268">
        <ele>88</ele>
        <time>2020-07-01T13:51:06Z</time>
      </trkpt>
      <trkpt lat="47.21768" lon="0.84264">
        <ele>90.86</ele>
        <time>2020-07-01T13:51:07Z</time>
      </trkpt>
      <trkpt lat="47.2178" lon="0.8426">
        <ele>94.16</ele>
        <time>2020-07-01T13:51:08Z</time>
      </trkpt>
      <trkpt lat="47.21792" lon="0.84256">
        <ele>95.89</ele>
        <time>2020-07-01T13:51:09Z</time>
      </trkpt>
      <trkpt lat="47.21803" lon="0.84253">
        <ele>97.4</ele>
        <time>2020-07-01T13:51:10Z</time>
      </trkpt>
      <trkpt lat="47.21813" lon="0.8425">
        <ele>98</ele>
        <time>2020-07-01T13:51:11Z</time>
      </trkpt>
      <trkpt lat="47.21822" lon="0.84247">
        <ele>97.8</ele>
        <time>2020-07-01T13:51:12Z</time>
      </trkpt>
      <trkpt lat="47.2183" lon="0.84245">
        <ele>97.78</ele>
        <time>2020-07-01T13:51:13Z</time>
      </trkpt>
      <trkpt lat="47.21838" lon="0.84242">
        <ele>95.48</ele>
        <time>2020-07-01T13:51:14Z</time>
      </trkpt>
      <trkpt lat="47.21845" lon="0.8424">
        <ele>92.03</ele>
        <time>2020-07-01T13:51:15Z</time>
      </trkpt>
      <trkpt lat="47.21851" lon="0.84238">
        <ele>89.03</ele>
        <time>2020-07-01T13:51:16Z</time>
      </trkpt>
      <trkpt lat="47.21856" lon="0.84236">
        <ele>86.48</ele>
        <time>2020-07-01T13:51:17Z</time>
      </trkpt>
      <trkpt lat="47.21862" lon="0.84233">
        <ele>83.89</ele>
        <time>2020-07-01T13:51:18Z</time>
      </trkpt>
      <trkpt lat="47.21869" lon="0.8423">
        <ele>84.66</ele>
        <time>2020-07-01T13:51:19Z</time>
      </trkpt>
      <trkpt lat="47.21878" lon="0.84225">
        <ele>86</ele>
        <time>2020-07-01T13:51:20Z</time>
      </trkpt>
      <trkpt lat="47.21888" lon="0.84221">
        <ele>87.98</ele>
        <time>2020-07-01T13:51:21Z</time>
      </trkpt>
      <trkpt lat="47.21899" lon="0.84215">
        <ele>90.6</ele>
        <time>2020-07-01T13:51:22Z</time>
      </trkpt>
      <trkpt lat="47.2191" lon="0.84209">
        <ele>93.23</ele>
        <time>2020-07-01T13:51:23Z</time>
      </trkpt>
      <trkpt lat="47.21921" lon="0.84204">
        <ele>95.76</ele>
        <time>2020-07-01T13:51:24Z</time>
      </trkpt>
      <trkpt lat="47.21933" lon="0.84199">
        <ele>97.85</ele>
        <time>2020-07-01T13:51:25Z</time>
      </trkpt>
      <trkpt lat="47.21946" lon="0.84194">
        <ele>98.86</ele>
        <time>2020-07-01T13:51:26Z</time>
      </trkpt>
      <trkpt lat="47.21958" lon="0.84188">
        <ele>97.55</ele>
        <time>2020-07-01T13:51:27Z</time>
      </trkpt>
      <trkpt lat="47.2197" lon="0.84183">
        <ele>95.55</ele>
        <time>2020-07-01T13:51:28Z</time>
      </trkpt>
      <trkpt lat="47.21982" lon="0.84177">
        <ele>94.09</ele>
        <time>2020-07-01T13:51:29Z</time>
      </trkpt>
      <trkpt lat="47.21995" lon="0.84173">
        <ele>93.52</ele>
        <time>2020-07-01T13:51:30Z</time>
      </trkpt>
      <trkpt lat="47.22007" lon="0.84168">
        <ele>93.39</ele>
        <time>2020-07-01T13:51:31Z</time>
      </trkpt>
      <trkpt lat="47.2202" lon="0.84162">
        <ele>92.34</ele>
        <time>2020-07-01T13:51:32Z</time>
      </trkpt>
      <trkpt lat="47.22032" lon="0.84157">
        <ele>90.3</ele>
        <time>2020-07-01T13:51:33Z</time>
      </trkpt>
      <trkpt lat="47.22045" lon="0.84151">
        <ele>87.91</ele>
        <time>2020-07-01T13:51:34Z</time>
      </trkpt>
      <trkpt lat="47.22057" lon="0.84146">
        <ele>85.96</ele>
        <time>2020-07-01T13:51:35Z</time>
      </trkpt>
      <trkpt lat="47.22069" lon="0.84141">
        <ele>83.55</ele>
        <time>2020-07-01T13:51:36Z</time>
      </trkpt>
      <trkpt lat="47.22081" lon="0.84136">
        <ele>81.46</ele>
        <time>2020-07-01T13:51:37Z</time>
      </trkpt>
      <trkpt lat="47.22094" lon="0.84131">
        <ele>81.67</ele>
        <time>2020-07-01T13:51:38Z</time>
      </trkpt>
      <trkpt lat="47.22106" lon="0.84126">
        <ele>82.28</ele>
        <time>2020-07-01T13:51:39Z</time>
      </trkpt>
      <trkpt lat="47.22118" lon="0.8412">
        <ele>82.57</ele>
        <time>2020-07-01T13:51:40Z</time>
      </trkpt>
      <trkpt lat="47.22129" lon="0.84115">
        <ele>81.65</ele>
        <time>2020-07-01T13:51:41Z</time>
      </trkpt>
      <trkpt lat="47.22141" lon="0.8411">
        <ele>80.84</ele>
        <time>2020-07-01T13:51:42Z</time>
      </trkpt>
      <trkpt lat="47.22153" lon="0.84105">
        <ele>83.88</ele>
        <time>2020-07-01T13:51:43Z</time>
      </trkpt>
      <trkpt lat="47.22165" lon="0.841">
        <ele>84.44</ele>
        <time>2020-07-01T13:51:44Z</time>
      </trkpt>
      <trkpt lat="47.22178" lon="0.84095">
        <ele>85.33</ele>
        <time>2020-07-01T13:51:45Z</time>
      </trkpt>
      <trkpt lat="47.2219" lon="0.84089">
        <ele>87.27</ele>
        <time>2020-07-01T13:51:46Z</time>
      </trkpt>
      <trkpt lat="47.22203" lon="0.84084">
        <ele>88.41</ele>
        <time>2020-07-01T13:51:47Z</time>
      </trkpt>
      <trkpt lat="47.22215" lon="0.84079">
        <ele>87.8</ele>
        <time>2020-07-01T13:51:48Z</time>
      </trkpt>
      <trkpt lat="47.22227" lon="0.84073">
        <ele>87.85</ele>
        <time>2020-07-01T13:51:49Z</time>
      </trkpt>
      <trkpt lat="47.22239" lon="0.84068">
        <ele>88.2</ele>
        <time>2020-07-01T13:51:50Z</time>
      </trkpt>
      <trkpt lat="47.22252" lon="0.84064">
        <ele>87.81</ele>
        <time>2020-07-01T13:51:51Z</time>
      </trkpt>
      <trkpt lat="47.22264" lon="0.84059">
        <ele>85.3</ele>
        <time>2020-07-01T13:51:52Z</time>
      </trkpt>
      <trkpt lat="47.22276" lon="0.84054">
        <ele>83.36</ele>
        <time>2020-07-01T13:51:53Z</time>
      </trkpt>
      <trkpt lat="47.22287" lon="0.84049">
        <ele>80.84</ele>
        <time>2020-07-01T13:51:54Z</time>
      </trkpt>
      <trkpt lat="47.22298" lon="0.84045">
        <ele>79.16</ele>
        <time>2020-07-01T13:51:55Z</time>
      </trkpt>
      <trkpt lat="47.22308" lon="0.84041">
        <ele>77.94</ele>
        <time>2020-07-01T13:51:56Z</time>
      </trkpt>
      <trkpt lat="47.22318" lon="0.84037">
        <ele>77.52</ele>
        <time>2020-07-01T13:51:57Z</time>
      </trkpt>
      <trkpt lat="47.22327" lon="0.84034">
        <ele>77.64</ele>
        <time>2020-07-01T13:51:58Z</time>
      </trkpt>
      <trkpt lat="47.22336" lon="0.84032">
        <ele>79.1</ele>
        <time>2020-07-01T13:51:59Z</time>
      </trkpt>
      <trkpt lat="47.22344" lon="0.84029">
        <ele>82.45</ele>
        <time>2020-07-01T13:52:00Z</time>
      </trkpt>
      <trkpt lat="47.22353" lon="0.84026">
        <ele>87.18</ele>
        <time>2020-07-01T13:52:01Z</time>
      </trkpt>
      <trkpt lat="47.22362" lon="0.84024">
        <ele>91.43</ele>
        <time>2020-07-01T13:52:02Z</time>
      </trkpt>
      <trkpt lat="47.2237" lon="0.84021">
        <ele>91.9</ele>
        <time>2020-07-01T13:52:03Z</time>
      </trkpt>
      <trkpt lat="47.22379" lon="0.84018">
        <ele>92.25</ele>
        <time>2020-07-01T13:52:04Z</time>
      </trkpt>
      <trkpt lat="47.22387" lon="0.84016">
        <ele>92.41</ele>
        <time>2020-07-01T13:52:05Z</time>
      </trkpt>
      <trkpt lat="47.22395" lon="0.84014">
        <ele>92.17</ele>
        <time>2020-07-01T13:52:06Z</time>
      </trkpt>
      <trkpt lat="47.22403" lon="0.84013">
        <ele>91.72</ele>
        <time>2020-07-01T13:52:07Z</time>
      </trkpt>
      <trkpt lat="47.2241" lon="0.84013">
        <ele>91.32</ele>
        <time>2020-07-01T13:52:08Z</time>
      </trkpt>
      <trkpt lat="47.22415" lon="0.84013">
        <ele>91.03</ele>
        <time>2020-07-01T13:52:09Z</time>
      </trkpt>
      <trkpt lat="47.22418" lon="0.84015">
        <ele>91</ele>
        <time>2020-07-01T13:52:10Z</time>
      </trkpt>
      <trkpt lat="47.2242" lon="0.8402">
        <ele>91.18</ele>
        <time>2020-07-01T13:52:11Z</time>
      </trkpt>
      <trkpt lat="47.22422" lon="0.84028">
        <ele>91.42</ele>
        <time>2020-07-01T13:52:12Z</time>
      </trkpt>
      <trkpt lat="47.22423" lon="0.84038">
        <ele>91.06</ele>
        <time>2020-07-01T13:52:13Z</time>
      </trkpt>
      <trkpt lat="47.22425" lon="0.84049">
        <ele>90.41</ele>
        <time>2020-07-01T13:52:14Z</time>
      </trkpt>
      <trkpt lat="47.22428" lon="0.84062">
        <ele>87.76</ele>
        <time>2020-07-01T13:52:15Z</time>
      </trkpt>
      <trkpt lat="47.22432" lon="0.84075">
        <ele>84.08</ele>
        <time>2020-07-01T13:52:16Z</time>
      </trkpt>
      <trkpt lat="47.22436" lon="0.84088">
        <ele>82.17</ele>
        <time>2020-07-01T13:52:17Z</time>
      </trkpt>
      <trkpt lat="47.22439" lon="0.84102">
        <ele>81.8</ele>
        <time>2020-07-01T13:52:18Z</time>
      </trkpt>
      <trkpt lat="47.22443" lon="0.84117">
        <ele>82.06</ele>
        <time>2020-07-01T13:52:19Z</time>
      </trkpt>
      <trkpt lat="47.22446" lon="0.84132">
        <ele>82.74</ele>
        <time>2020-07-01T13:52:20Z</time>
      </trkpt>
      <trkpt lat="47.2245" lon="0.84146">
        <ele>83.2</ele>
        <time>2020-07-01T13:52:21Z</time>
      </trkpt>
      <trkpt lat="47.22454" lon="0.84162">
        <ele>83.55</ele>
        <time>2020-07-01T13:52:22Z</time>
      </trkpt>
      <trkpt lat="47.22458" lon="0.84178">
        <ele>85.81</ele>
        <time>2020-07-01T13:52:23Z</time>
      </trkpt>
      <trkpt lat="47.22462" lon="0.84195">
        <ele>87.42</ele>
        <time>2020-07-01T13:52:24Z</time>
      </trkpt>
      <trkpt lat="47.22465" lon="0.84212">
        <ele>86.56</ele>
        <time>2020-07-01T13:52:25Z</time>
      </trkpt>
      <trkpt lat="47.22469" lon="0.84229">
        <ele>87.08</ele>
        <time>2020-07-01T13:52:26Z</time>
      </trkpt>
      <trkpt lat="47.22473" lon="0.84245">
        <ele>89.83</ele>
        <time>2020-07-01T13:52:27Z</time>
      </trkpt>
      <trkpt lat="47.22477" lon="0.8426">
        <ele>90.06</ele>
        <time>2020-07-01T13:52:28Z</time>
      </trkpt>
      <trkpt lat="47.22481" lon="0.84275">
        <ele>88.87</ele>
        <time>2020-07-01T13:52:29Z</time>
      </trkpt>
      <trkpt lat="47.22484" lon="0.84289">
        <ele>87.9</ele>
        <time>2020-07-01T13:52:30Z</time>
      </trkpt>
      <trkpt lat="47.22486" lon="0.84302">
        <ele>87.14</ele>
        <time>2020-07-01T13:52:31Z</time>
      </trkpt>
      <trkpt lat="47.22488" lon="0.84313">
        <ele>87.03</ele>
        <time>2020-07-01T13:52:32Z</time>
      </trkpt>
      <trkpt lat="47.2249" lon="0.84321">
        <ele>87.15</ele>
        <time>2020-07-01T13:52:33Z</time>
      </trkpt>
      <trkpt lat="47.22493" lon="0.84323">
        <ele>86.95</ele>
        <time>2020-07-01T13:52:34Z</time>
      </trkpt>
      <trkpt lat="47.22497" lon="0.84323">
        <ele>86.55</ele>
        <time>2020-07-01T13:52:35Z</time>
      </trkpt>
      <trkpt lat="47.22502" lon="0.84322">
        <ele>86.17</ele>
        <time>2020-07-01T13:52:36Z</time>
      </trkpt>
      <trkpt lat="47.22508" lon="0.84318">
        <ele>85.93</ele>
        <time>2020-07-01T13:52:37Z</time>
      </trkpt>
      <trkpt lat="47.22515" lon="0.84312">
        <ele>85.75</ele>
        <time>2020-07-01T13:52:38Z</time>
      </trkpt>
      <trkpt lat="47.22522" lon="0.84306">
        <ele>85.8</ele>
        <time>2020-07-01T13:52:39Z</time>
      </trkpt>
      <trkpt lat="47.22529" lon="0.84301">
        <ele>85.92</ele>
        <time>2020-07-01T13:52:40Z</time>
      </trkpt>
      <trkpt lat="47.22536" lon="0.84296">
        <ele>85.83</ele>
        <time>2020-07-01T13:52:41Z</time>
      </trkpt>
      <trkpt lat="47.22542" lon="0.84294">
        <ele>85.63</ele>
        <time>2020-07-01T13:52:42Z</time>
      </trkpt>
      <trkpt lat="47.22547" lon="0.84293">
        <ele>85.43</ele>
        <time>2020-07-01T13:52:43Z</time>
      </trkpt>
      <trkpt lat="47.2255" lon="0.84294">
        <ele>85.65</ele>
        <time>2020-07-01T13:52:44Z</time>
      </trkpt>
      <trkpt lat="47.22553" lon="0.843">
        <ele>87.25</ele>
        <time>2020-07-01T13:52:45Z</time>
      </trkpt>
      <trkpt lat="47.22556" lon="0.84309">
        <ele>89</ele>
        <time>2020-07-01T13:52:46Z</time>
      </trkpt>
      <trkpt lat="47.22559" lon="0.84318">
        <ele>88.46</ele>
        <time>2020-07-01T13:52:47Z</time>
      </trkpt>
      <trkpt lat="47.22564" lon="0.84325">
        <ele>87.27</ele>
        <time>2020-07-01T13:52:48Z</time>
      </trkpt>
      <trkpt lat="47.22571" lon="0.84332">
        <ele>85.5</ele>
        <time>2020-07-01T13:52:49Z</time>
      </trkpt>
      <trkpt lat="47.22578" lon="0.8434">
        <ele>83.26</ele>
        <time>2020-07-01T13:52:50Z</time>
      </trkpt>
      <trkpt lat="47.22586" lon="0.84348">
        <ele>82.05</ele>
        <time>2020-07-01T13:52:51Z</time>
      </trkpt>
      <trkpt lat="47.22593" lon="0.84357">
        <ele>82.3</ele>
        <time>2020-07-01T13:52:52Z</time>
      </trkpt>
      <trkpt lat="47.22601" lon="0.84365">
        <ele>82.64</ele>
        <time>2020-07-01T13:52:53Z</time>
      </trkpt>
      <trkpt lat="47.22611" lon="0.84372">
        <ele>83</ele>
        <time>2020-07-01T13:52:54Z</time>
      </trkpt>
      <trkpt lat="47.22621" lon="0.84377">
        <ele>83.15</ele>
        <time>2020-07-01T13:52:55Z</time>
      </trkpt>
      <trkpt lat="47.22632" lon="0.8438">
        <ele>83.24</ele>
        <time>2020-07-01T13:52:56Z</time>
      </trkpt>
      <trkpt lat="47.22643" lon="0.84382">
        <ele>83.47</ele>
        <time>2020-07-01T13:52:57Z</time>
      </trkpt>
      <trkpt lat="47.22654" lon="0.84383">
        <ele>84.07</ele>
        <time>2020-07-01T13:52:58Z</time>
      </trkpt>
      <trkpt lat="47.22665" lon="0.84385">
        <ele>84.76</ele>
        <time>2020-07-01T13:52:59Z</time>
      </trkpt>
      <trkpt lat="47.22675" lon="0.84388">
        <ele>85.27</ele>
        <time>2020-07-01T13:53:00Z</time>
      </trkpt>
      <trkpt lat="47.22684" lon="0.84394">
        <ele>85.92</ele>
        <time>2020-07-01T13:53:01Z</time>
      </trkpt>
      <trkpt lat="47.22693" lon="0.84401">
        <ele>86.8</ele>
        <time>2020-07-01T13:53:02Z</time>
      </trkpt>
      <trkpt lat="47.22702" lon="0.8441">
        <ele>86.56</ele>
        <time>2020-07-01T13:53:03Z</time>
      </trkpt>
      <trkpt lat="47.2271" lon="0.84419">
        <ele>85.84</ele>
        <time>2020-07-01T13:53:04Z</time>
      </trkpt>
      <trkpt lat="47.22719" lon="0.8443">
        <ele>84.94</ele>
        <time>2020-07-01T13:53:05Z</time>
      </trkpt>
      <trkpt lat="47.22726" lon="0.84441">
        <ele>83.92</ele>
        <time>2020-07-01T13:53:06Z</time>
      </trkpt>
      <trkpt lat="47.22734" lon="0.84452">
        <ele>82.69</ele>
        <time>2020-07-01T13:53:07Z</time>
      </trkpt>
      <trkpt lat="47.22742" lon="0.84463">
        <ele>81.83</ele>
        <time>2020-07-01T13:53:07Z</time>
      </trkpt>
      <trkpt lat="47.2275" lon="0.84474">
        <ele>81.19</ele>
        <time>2020-07-01T13:53:08Z</time>
      </trkpt>
      <trkpt lat="47.22759" lon="0.84483">
        <ele>82.29</ele>
        <time>2020-07-01T13:53:09Z</time>
      </trkpt>
      <trkpt lat="47.22787" lon="0.84511">
        <ele>87.38</ele>
        <time>2020-07-01T13:53:12Z</time>
      </trkpt>
      <trkpt lat="47.22792" lon="0.84513">
        <ele>88.64</ele>
        <time>2020-07-01T13:53:13Z</time>
      </trkpt>
      <trkpt lat="47.22802" lon="0.84518">
        <ele>92</ele>
        <time>2020-07-01T13:53:14Z</time>
      </trkpt>
      <trkpt lat="47.22814" lon="0.84525">
        <ele>96.07</ele>
        <time>2020-07-01T13:53:15Z</time>
      </trkpt>
      <trkpt lat="47.22825" lon="0.84532">
        <ele>99.91</ele>
        <time>2020-07-01T13:53:16Z</time>
      </trkpt>
      <trkpt lat="47.22836" lon="0.84539">
        <ele>107.03</ele>
        <time>2020-07-01T13:53:17Z</time>
      </trkpt>
      <trkpt lat="47.22846" lon="0.84548">
        <ele>115.14</ele>
        <time>2020-07-01T13:53:18Z</time>
      </trkpt>
      <trkpt lat="47.22856" lon="0.84556">
        <ele>120.19</ele>
        <time>2020-07-01T13:53:19Z</time>
      </trkpt>
      <trkpt lat="47.22865" lon="0.84565">
        <ele>123.47</ele>
        <time>2020-07-01T13:53:20Z</time>
      </trkpt>
      <trkpt lat="47.22875" lon="0.84573">
        <ele>125.58</ele>
        <time>2020-07-01T13:53:21Z</time>
      </trkpt>
      <trkpt lat="47.22884" lon="0.84581">
        <ele>127.48</ele>
        <time>2020-07-01T13:53:22Z</time>
      </trkpt>
      <trkpt lat="47.22893" lon="0.84588">
        <ele>126.14</ele>
        <time>2020-07-01T13:53:23Z</time>
      </trkpt>
      <trkpt lat="47.22902" lon="0.84596">
        <ele>122.76</ele>
        <time>2020-07-01T13:53:24Z</time>
      </trkpt>
      <trkpt lat="47.2291" lon="0.84603">
        <ele>120.38</ele>
        <time>2020-07-01T13:53:25Z</time>
      </trkpt>
      <trkpt lat="47.22918" lon="0.8461">
        <ele>118.58</ele>
        <time>2020-07-01T13:53:26Z</time>
      </trkpt>
      <trkpt lat="47.22926" lon="0.84617">
        <ele>117.15</ele>
        <time>2020-07-01T13:53:27Z</time>
      </trkpt>
      <trkpt lat="47.22934" lon="0.84625">
        <ele>116.82</ele>
        <time>2020-07-01T13:53:28Z</time>
      </trkpt>
      <trkpt lat="47.22943" lon="0.84632">
        <ele>117.35</ele>
        <time>2020-07-01T13:53:29Z</time>
      </trkpt>
      <trkpt lat="47.22951" lon="0.8464">
        <ele>116.28</ele>
        <time>2020-07-01T13:53:30Z</time>
      </trkpt>
      <trkpt lat="47.2296" lon="0.84648">
        <ele>112.67</ele>
        <time>2020-07-01T13:53:31Z</time>
      </trkpt>
      <trkpt lat="47.22969" lon="0.84655">
        <ele>110.48</ele>
        <time>2020-07-01T13:53:32Z</time>
      </trkpt>
      <trkpt lat="47.22978" lon="0.84663">
        <ele>109.54</ele>
        <time>2020-07-01T13:53:33Z</time>
      </trkpt>
      <trkpt lat="47.22986" lon="0.8467">
        <ele>108.76</ele>
        <time>2020-07-01T13:53:34Z</time>
      </trkpt>
      <trkpt lat="47.22996" lon="0.84677">
        <ele>106.93</ele>
        <time>2020-07-01T13:53:35Z</time>
      </trkpt>
      <trkpt lat="47.23005" lon="0.84684">
        <ele>105.5</ele>
        <time>2020-07-01T13:53:36Z</time>
      </trkpt>
      <trkpt lat="47.23014" lon="0.8469">
        <ele>104.83</ele>
        <time>2020-07-01T13:53:37Z</time>
      </trkpt>
      <trkpt lat="47.23023" lon="0.84698">
        <ele>104.64</ele>
        <time>2020-07-01T13:53:38Z</time>
      </trkpt>
      <trkpt lat="47.23033" lon="0.84706">
        <ele>104.92</ele>
        <time>2020-07-01T13:53:39Z</time>
      </trkpt>
      <trkpt lat="47.23042" lon="0.84714">
        <ele>103.89</ele>
        <time>2020-07-01T13:53:40Z</time>
      </trkpt>
      <trkpt lat="47.23051" lon="0.84722">
        <ele>101.18</ele>
        <time>2020-07-01T13:53:41Z</time>
      </trkpt>
      <trkpt lat="47.2306" lon="0.8473">
        <ele>100.31</ele>
        <time>2020-07-01T13:53:42Z</time>
      </trkpt>
      <trkpt lat="47.23069" lon="0.84738">
        <ele>100.23</ele>
        <time>2020-07-01T13:53:43Z</time>
      </trkpt>
      <trkpt lat="47.23079" lon="0.84746">
        <ele>99.53</ele>
        <time>2020-07-01T13:53:44Z</time>
      </trkpt>
      <trkpt lat="47.23088" lon="0.84754">
        <ele>98.88</ele>
        <time>2020-07-01T13:53:45Z</time>
      </trkpt>
      <trkpt lat="47.23098" lon="0.84762">
        <ele>98.66</ele>
        <time>2020-07-01T13:53:46Z</time>
      </trkpt>
      <trkpt lat="47.23107" lon="0.84769">
        <ele>98.48</ele>
        <time>2020-07-01T13:53:47Z</time>
      </trkpt>
      <trkpt lat="47.23115" lon="0.84776">
        <ele>99.3</ele>
        <time>2020-07-01T13:53:48Z</time>
      </trkpt>
      <trkpt lat="47.23123" lon="0.84782">
        <ele>101.79</ele>
        <time>2020-07-01T13:53:49Z</time>
      </trkpt>
      <trkpt lat="47.2313" lon="0.84788">
        <ele>103.87</ele>
        <time>2020-07-01T13:53:50Z</time>
      </trkpt>
      <trkpt lat="47.23136" lon="0.84791">
        <ele>105.64</ele>
        <time>2020-07-01T13:53:51Z</time>
      </trkpt>
      <trkpt lat="47.23142" lon="0.84791">
        <ele>106.81</ele>
        <time>2020-07-01T13:53:52Z</time>
      </trkpt>
      <trkpt lat="47.23148" lon="0.84791">
        <ele>107.35</ele>
        <time>2020-07-01T13:53:53Z</time>
      </trkpt>
      <trkpt lat="47.23155" lon="0.84789">
        <ele>108.1</ele>
        <time>2020-07-01T13:53:54Z</time>
      </trkpt>
      <trkpt lat="47.23163" lon="0.84783">
        <ele>109.25</ele>
        <time>2020-07-01T13:53:55Z</time>
      </trkpt>
      <trkpt lat="47.23171" lon="0.84776">
        <ele>109.39</ele>
        <time>2020-07-01T13:53:56Z</time>
      </trkpt>
      <trkpt lat="47.2318" lon="0.84769">
        <ele>107.78</ele>
        <time>2020-07-01T13:53:57Z</time>
      </trkpt>
      <trkpt lat="47.23189" lon="0.84762">
        <ele>106</ele>
        <time>2020-07-01T13:53:58Z</time>
      </trkpt>
      <trkpt lat="47.23199" lon="0.84755">
        <ele>104.03</ele>
        <time>2020-07-01T13:53:59Z</time>
      </trkpt>
      <trkpt lat="47.23209" lon="0.84748">
        <ele>101.72</ele>
        <time>2020-07-01T13:54:00Z</time>
      </trkpt>
      <trkpt lat="47.2322" lon="0.84742">
        <ele>99.24</ele>
        <time>2020-07-01T13:54:01Z</time>
      </trkpt>
      <trkpt lat="47.2323" lon="0.84734">
        <ele>97.09</ele>
        <time>2020-07-01T13:54:02Z</time>
      </trkpt>
      <trkpt lat="47.23241" lon="0.84726">
        <ele>94.7</ele>
        <time>2020-07-01T13:54:03Z</time>
      </trkpt>
      <trkpt lat="47.23252" lon="0.84719">
        <ele>92.96</ele>
        <time>2020-07-01T13:54:04Z</time>
      </trkpt>
      <trkpt lat="47.23263" lon="0.84711">
        <ele>93.06</ele>
        <time>2020-07-01T13:54:05Z</time>
      </trkpt>
      <trkpt lat="47.23274" lon="0.84703">
        <ele>93.17</ele>
        <time>2020-07-01T13:54:06Z</time>
      </trkpt>
      <trkpt lat="47.23285" lon="0.84696">
        <ele>93.55</ele>
        <time>2020-07-01T13:54:07Z</time>
      </trkpt>
      <trkpt lat="47.23296" lon="0.84688">
        <ele>95.78</ele>
        <time>2020-07-01T13:54:08Z</time>
      </trkpt>
      <trkpt lat="47.23307" lon="0.8468">
        <ele>97.94</ele>
        <time>2020-07-01T13:54:09Z</time>
      </trkpt>
      <trkpt lat="47.23318" lon="0.84672">
        <ele>98.69</ele>
        <time>2020-07-01T13:54:10Z</time>
      </trkpt>
      <trkpt lat="47.23329" lon="0.84664">
        <ele>98.68</ele>
        <time>2020-07-01T13:54:11Z</time>
      </trkpt>
      <trkpt lat="47.2334" lon="0.84656">
        <ele>95</ele>
        <time>2020-07-01T13:54:12Z</time>
      </trkpt>
      <trkpt lat="47.23351" lon="0.84648">
        <ele>91.55</ele>
        <time>2020-07-01T13:54:13Z</time>
      </trkpt>
      <trkpt lat="47.23362" lon="0.8464">
        <ele>88.9</ele>
        <time>2020-07-01T13:54:14Z</time>
      </trkpt>
      <trkpt lat="47.23374" lon="0.84632">
        <ele>86.19</ele>
        <time>2020-07-01T13:54:15Z</time>
      </trkpt>
      <trkpt lat="47.23385" lon="0.84624">
        <ele>85.21</ele>
        <time>2020-07-01T13:54:16Z</time>
      </trkpt>
      <trkpt lat="47.23396" lon="0.84616">
        <ele>86.31</ele>
        <time>2020-07-01T13:54:17Z</time>
      </trkpt>
      <trkpt lat="47.23407" lon="0.84608">
        <ele>86.53</ele>
        <time>2020-07-01T13:54:18Z</time>
      </trkpt>
      <trkpt lat="47.23418" lon="0.846">
        <ele>87.38</ele>
        <time>2020-07-01T13:54:19Z</time>
      </trkpt>
      <trkpt lat="47.23429" lon="0.84592">
        <ele>88.73</ele>
        <time>2020-07-01T13:54:20Z</time>
      </trkpt>
      <trkpt lat="47.2344" lon="0.84585">
        <ele>88.38</ele>
        <time>2020-07-01T13:54:21Z</time>
      </trkpt>
      <trkpt lat="47.2345" lon="0.84577">
        <ele>88.04</ele>
        <time>2020-07-01T13:54:22Z</time>
      </trkpt>
      <trkpt lat="47.23462" lon="0.84569">
        <ele>88.77</ele>
        <time>2020-07-01T13:54:23Z</time>
      </trkpt>
      <trkpt lat="47.23473" lon="0.84561">
        <ele>89.17</ele>
        <time>2020-07-01T13:54:24Z</time>
      </trkpt>
      <trkpt lat="47.23484" lon="0.84554">
        <ele>90.74</ele>
        <time>2020-07-01T13:54:25Z</time>
      </trkpt>
      <trkpt lat="47.23495" lon="0.84546">
        <ele>92.58</ele>
        <time>2020-07-01T13:54:26Z</time>
      </trkpt>
      <trkpt lat="47.23506" lon="0.84538">
        <ele>93.29</ele>
        <time>2020-07-01T13:54:27Z</time>
      </trkpt>
      <trkpt lat="47.23517" lon="0.84529">
        <ele>91.65</ele>
        <time>2020-07-01T13:54:28Z</time>
      </trkpt>
      <trkpt lat="47.23528" lon="0.84521">
        <ele>88.59</ele>
        <time>2020-07-01T13:54:29Z</time>
      </trkpt>
      <trkpt lat="47.23539" lon="0.84513">
        <ele>87.75</ele>
        <time>2020-07-01T13:54:30Z</time>
      </trkpt>
      <trkpt lat="47.23551" lon="0.84505">
        <ele>88.05</ele>
        <time>2020-07-01T13:54:31Z</time>
      </trkpt>
      <trkpt lat="47.23562" lon="0.84497">
        <ele>88.2</ele>
        <time>2020-07-01T13:54:32Z</time>
      </trkpt>
      <trkpt lat="47.23573" lon="0.8449">
        <ele>87.81</ele>
        <time>2020-07-01T13:54:33Z</time>
      </trkpt>
      <trkpt lat="47.23584" lon="0.84482">
        <ele>87.01</ele>
        <time>2020-07-01T13:54:34Z</time>
      </trkpt>
      <trkpt lat="47.23595" lon="0.84474">
        <ele>87.58</ele>
        <time>2020-07-01T13:54:35Z</time>
      </trkpt>
      <trkpt lat="47.23606" lon="0.84465">
        <ele>90.03</ele>
        <time>2020-07-01T13:54:36Z</time>
      </trkpt>
      <trkpt lat="47.23617" lon="0.84456">
        <ele>89.58</ele>
        <time>2020-07-01T13:54:37Z</time>
      </trkpt>
      <trkpt lat="47.23629" lon="0.84448">
        <ele>87.85</ele>
        <time>2020-07-01T13:54:38Z</time>
      </trkpt>
      <trkpt lat="47.2364" lon="0.8444">
        <ele>86.51</ele>
        <time>2020-07-01T13:54:39Z</time>
      </trkpt>
      <trkpt lat="47.23651" lon="0.84432">
        <ele>84.16</ele>
        <time>2020-07-01T13:54:40Z</time>
      </trkpt>
      <trkpt lat="47.23663" lon="0.84424">
        <ele>81.42</ele>
        <time>2020-07-01T13:54:41Z</time>
      </trkpt>
      <trkpt lat="47.23675" lon="0.84415">
        <ele>79.03</ele>
        <time>2020-07-01T13:54:42Z</time>
      </trkpt>
      <trkpt lat="47.23686" lon="0.84407">
        <ele>78.99</ele>
        <time>2020-07-01T13:54:43Z</time>
      </trkpt>
      <trkpt lat="47.23698" lon="0.84399">
        <ele>80.3</ele>
        <time>2020-07-01T13:54:44Z</time>
      </trkpt>
      <trkpt lat="47.23709" lon="0.84391">
        <ele>82.79</ele>
        <time>2020-07-01T13:54:45Z</time>
      </trkpt>
      <trkpt lat="47.23721" lon="0.84382">
        <ele>83.67</ele>
        <time>2020-07-01T13:54:46Z</time>
      </trkpt>
      <trkpt lat="47.23732" lon="0.84374">
        <ele>83.11</ele>
        <time>2020-07-01T13:54:47Z</time>
      </trkpt>
      <trkpt lat="47.23744" lon="0.84366">
        <ele>82.39</ele>
        <time>2020-07-01T13:54:48Z</time>
      </trkpt>
      <trkpt lat="47.23756" lon="0.84358">
        <ele>82.21</ele>
        <time>2020-07-01T13:54:49Z</time>
      </trkpt>
      <trkpt lat="47.23768" lon="0.8435">
        <ele>82.5</ele>
        <time>2020-07-01T13:54:50Z</time>
      </trkpt>
      <trkpt lat="47.2378" lon="0.84341">
        <ele>82.81</ele>
        <time>2020-07-01T13:54:51Z</time>
      </trkpt>
      <trkpt lat="47.23792" lon="0.84332">
        <ele>83.51</ele>
        <time>2020-07-01T13:54:52Z</time>
      </trkpt>
      <trkpt lat="47.23804" lon="0.84324">
        <ele>84.51</ele>
        <time>2020-07-01T13:54:53Z</time>
      </trkpt>
      <trkpt lat="47.23816" lon="0.84316">
        <ele>85.97</ele>
        <time>2020-07-01T13:54:54Z</time>
      </trkpt>
      <trkpt lat="47.23828" lon="0.84308">
        <ele>87.99</ele>
        <time>2020-07-01T13:54:55Z</time>
      </trkpt>
      <trkpt lat="47.23839" lon="0.843">
        <ele>86.56</ele>
        <time>2020-07-01T13:54:56Z</time>
      </trkpt>
      <trkpt lat="47.2385" lon="0.84292">
        <ele>81.05</ele>
        <time>2020-07-01T13:54:57Z</time>
      </trkpt>
      <trkpt lat="47.23861" lon="0.84284">
        <ele>74.4</ele>
        <time>2020-07-01T13:54:58Z</time>
      </trkpt>
      <trkpt lat="47.23871" lon="0.84276">
        <ele>71.75</ele>
        <time>2020-07-01T13:54:59Z</time>
      </trkpt>
      <trkpt lat="47.23882" lon="0.84269">
        <ele>70.7</ele>
        <time>2020-07-01T13:55:00Z</time>
      </trkpt>
      <trkpt lat="47.23892" lon="0.84262">
        <ele>70.62</ele>
        <time>2020-07-01T13:55:01Z</time>
      </trkpt>
      <trkpt lat="47.23901" lon="0.84255">
        <ele>72.18</ele>
        <time>2020-07-01T13:55:02Z</time>
      </trkpt>
      <trkpt lat="47.2391" lon="0.84248">
        <ele>73.34</ele>
        <time>2020-07-01T13:55:03Z</time>
      </trkpt>
      <trkpt lat="47.23919" lon="0.84242">
        <ele>73.5</ele>
        <time>2020-07-01T13:55:04Z</time>
      </trkpt>
      <trkpt lat="47.23928" lon="0.84235">
        <ele>73.58</ele>
        <time>2020-07-01T13:55:05Z</time>
      </trkpt>
      <trkpt lat="47.23937" lon="0.84229">
        <ele>74.15</ele>
        <time>2020-07-01T13:55:06Z</time>
      </trkpt>
      <trkpt lat="47.23946" lon="0.84222">
        <ele>75.02</ele>
        <time>2020-07-01T13:55:07Z</time>
      </trkpt>
      <trkpt lat="47.23955" lon="0.84216">
        <ele>75.5</ele>
        <time>2020-07-01T13:55:08Z</time>
      </trkpt>
      <trkpt lat="47.23963" lon="0.84211">
        <ele>75.67</ele>
        <time>2020-07-01T13:55:09Z</time>
      </trkpt>
      <trkpt lat="47.2397" lon="0.84206">
        <ele>75.68</ele>
        <time>2020-07-01T13:55:10Z</time>
      </trkpt>
      <trkpt lat="47.23976" lon="0.84201">
        <ele>76.07</ele>
        <time>2020-07-01T13:55:11Z</time>
      </trkpt>
      <trkpt lat="47.23981" lon="0.84198">
        <ele>76.54</ele>
        <time>2020-07-01T13:55:12Z</time>
      </trkpt>
      <trkpt lat="47.23984" lon="0.84196">
        <ele>76.82</ele>
        <time>2020-07-01T13:55:13Z</time>
      </trkpt>
      <trkpt lat="47.23987" lon="0.84193">
        <ele>77.01</ele>
        <time>2020-07-01T13:55:14Z</time>
      </trkpt>
      <trkpt lat="47.23989" lon="0.8419">
        <ele>76.98</ele>
        <time>2020-07-01T13:55:15Z</time>
      </trkpt>
      <trkpt lat="47.23992" lon="0.84184">
        <ele>76.73</ele>
        <time>2020-07-01T13:55:16Z</time>
      </trkpt>
      <trkpt lat="47.23995" lon="0.84175">
        <ele>76.04</ele>
        <time>2020-07-01T13:55:17Z</time>
      </trkpt>
      <trkpt lat="47.23998" lon="0.84165">
        <ele>75.27</ele>
        <time>2020-07-01T13:55:18Z</time>
      </trkpt>
      <trkpt lat="47.24001" lon="0.84153">
        <ele>75.68</ele>
        <time>2020-07-01T13:55:19Z</time>
      </trkpt>
      <trkpt lat="47.24005" lon="0.84139">
        <ele>74.3</ele>
        <time>2020-07-01T13:55:20Z</time>
      </trkpt>
      <trkpt lat="47.24008" lon="0.84125">
        <ele>75.25</ele>
        <time>2020-07-01T13:55:21Z</time>
      </trkpt>
      <trkpt lat="47.24012" lon="0.8411">
        <ele>75.16</ele>
        <time>2020-07-01T13:55:22Z</time>
      </trkpt>
      <trkpt lat="47.24015" lon="0.84095">
        <ele>73.38</ele>
        <time>2020-07-01T13:55:23Z</time>
      </trkpt>
      <trkpt lat="47.24019" lon="0.84079">
        <ele>73.42</ele>
        <time>2020-07-01T13:55:24Z</time>
      </trkpt>
      <trkpt lat="47.24023" lon="0.84063">
        <ele>73.78</ele>
        <time>2020-07-01T13:55:25Z</time>
      </trkpt>
      <trkpt lat="47.24027" lon="0.84048">
        <ele>74.27</ele>
        <time>2020-07-01T13:55:26Z</time>
      </trkpt>
      <trkpt lat="47.2403" lon="0.84034">
        <ele>74.99</ele>
        <time>2020-07-01T13:55:27Z</time>
      </trkpt>
      <trkpt lat="47.24033" lon="0.84021">
        <ele>76.33</ele>
        <time>2020-07-01T13:55:28Z</time>
      </trkpt>
      <trkpt lat="47.24035" lon="0.84011">
        <ele>77.56</ele>
        <time>2020-07-01T13:55:29Z</time>
      </trkpt>
      <trkpt lat="47.24037" lon="0.84002">
        <ele>78.8</ele>
        <time>2020-07-01T13:55:30Z</time>
      </trkpt>
      <trkpt lat="47.2404" lon="0.83997">
        <ele>79.58</ele>
        <time>2020-07-01T13:55:31Z</time>
      </trkpt>
      <trkpt lat="47.24046" lon="0.83993">
        <ele>80.85</ele>
        <time>2020-07-01T13:55:32Z</time>
      </trkpt>
      <trkpt lat="47.24054" lon="0.83991">
        <ele>82.65</ele>
        <time>2020-07-01T13:55:33Z</time>
      </trkpt>
      <trkpt lat="47.24064" lon="0.83989">
        <ele>84.94</ele>
        <time>2020-07-01T13:55:34Z</time>
      </trkpt>
      <trkpt lat="47.24074" lon="0.83988">
        <ele>87.38</ele>
        <time>2020-07-01T13:55:35Z</time>
      </trkpt>
      <trkpt lat="47.24085" lon="0.83986">
        <ele>90.29</ele>
        <time>2020-07-01T13:55:36Z</time>
      </trkpt>
      <trkpt lat="47.24097" lon="0.83983">
        <ele>92.83</ele>
        <time>2020-07-01T13:55:37Z</time>
      </trkpt>
      <trkpt lat="47.24109" lon="0.8398">
        <ele>95.27</ele>
        <time>2020-07-01T13:55:38Z</time>
      </trkpt>
      <trkpt lat="47.24121" lon="0.83975">
        <ele>96.07</ele>
        <time>2020-07-01T13:55:39Z</time>
      </trkpt>
      <trkpt lat="47.24134" lon="0.83971">
        <ele>96.26</ele>
        <time>2020-07-01T13:55:40Z</time>
      </trkpt>
      <trkpt lat="47.24147" lon="0.83967">
        <ele>94.57</ele>
        <time>2020-07-01T13:55:41Z</time>
      </trkpt>
      <trkpt lat="47.24161" lon="0.83965">
        <ele>91.54</ele>
        <time>2020-07-01T13:55:42Z</time>
      </trkpt>
      <trkpt lat="47.24175" lon="0.83964">
        <ele>87.93</ele>
        <time>2020-07-01T13:55:43Z</time>
      </trkpt>
      <trkpt lat="47.24189" lon="0.83963">
        <ele>83.9</ele>
        <time>2020-07-01T13:55:44Z</time>
      </trkpt>
      <trkpt lat="47.24203" lon="0.83963">
        <ele>81.72</ele>
        <time>2020-07-01T13:55:45Z</time>
      </trkpt>
      <trkpt lat="47.24216" lon="0.83963">
        <ele>80.78</ele>
        <time>2020-07-01T13:55:46Z</time>
      </trkpt>
      <trkpt lat="47.24229" lon="0.83963">
        <ele>83.01</ele>
        <time>2020-07-01T13:55:47Z</time>
      </trkpt>
      <trkpt lat="47.24242" lon="0.83963">
        <ele>88.15</ele>
        <time>2020-07-01T13:55:48Z</time>
      </trkpt>
      <trkpt lat="47.24253" lon="0.83963">
        <ele>92.11</ele>
        <time>2020-07-01T13:55:49Z</time>
      </trkpt>
      <trkpt lat="47.24265" lon="0.83962">
        <ele>95.48</ele>
        <time>2020-07-01T13:55:50Z</time>
      </trkpt>
      <trkpt lat="47.24275" lon="0.8396">
        <ele>97.98</ele>
        <time>2020-07-01T13:55:51Z</time>
      </trkpt>
      <trkpt lat="47.24286" lon="0.83955">
        <ele>97.27</ele>
        <time>2020-07-01T13:55:52Z</time>
      </trkpt>
      <trkpt lat="47.24296" lon="0.83948">
        <ele>95.99</ele>
        <time>2020-07-01T13:55:53Z</time>
      </trkpt>
      <trkpt lat="47.24305" lon="0.8394">
        <ele>95.22</ele>
        <time>2020-07-01T13:55:54Z</time>
      </trkpt>
      <trkpt lat="47.24314" lon="0.83932">
        <ele>93.18</ele>
        <time>2020-07-01T13:55:55Z</time>
      </trkpt>
      <trkpt lat="47.24323" lon="0.83925">
        <ele>90.86</ele>
        <time>2020-07-01T13:55:56Z</time>
      </trkpt>
      <trkpt lat="47.24332" lon="0.83919">
        <ele>88.38</ele>
        <time>2020-07-01T13:55:57Z</time>
      </trkpt>
      <trkpt lat="47.2434" lon="0.83914">
        <ele>86.6</ele>
        <time>2020-07-01T13:55:58Z</time>
      </trkpt>
      <trkpt lat="47.24348" lon="0.83912">
        <ele>84.99</ele>
        <time>2020-07-01T13:55:59Z</time>
      </trkpt>
      <trkpt lat="47.24356" lon="0.83912">
        <ele>83.17</ele>
        <time>2020-07-01T13:56:00Z</time>
      </trkpt>
      <trkpt lat="47.24364" lon="0.83913">
        <ele>81.73</ele>
        <time>2020-07-01T13:56:01Z</time>
      </trkpt>
      <trkpt lat="47.24372" lon="0.83913">
        <ele>81.56</ele>
        <time>2020-07-01T13:56:02Z</time>
      </trkpt>
      <trkpt lat="47.24381" lon="0.83913">
        <ele>81.36</ele>
        <time>2020-07-01T13:56:03Z</time>
      </trkpt>
      <trkpt lat="47.2439" lon="0.83912">
        <ele>81.51</ele>
        <time>2020-07-01T13:56:04Z</time>
      </trkpt>
      <trkpt lat="47.24399" lon="0.83905">
        <ele>83.23</ele>
        <time>2020-07-01T13:56:05Z</time>
      </trkpt>
      <trkpt lat="47.24406" lon="0.83892">
        <ele>85.33</ele>
        <time>2020-07-01T13:56:06Z</time>
      </trkpt>
      <trkpt lat="47.24412" lon="0.83877">
        <ele>86.26</ele>
        <time>2020-07-01T13:56:07Z</time>
      </trkpt>
      <trkpt lat="47.24416" lon="0.83861">
        <ele>88.02</ele>
        <time>2020-07-01T13:56:08Z</time>
      </trkpt>
      <trkpt lat="47.2442" lon="0.83845">
        <ele>86.26</ele>
        <time>2020-07-01T13:56:09Z</time>
      </trkpt>
      <trkpt lat="47.24424" lon="0.8383">
        <ele>84.83</ele>
        <time>2020-07-01T13:56:10Z</time>
      </trkpt>
      <trkpt lat="47.24429" lon="0.83814">
        <ele>84.07</ele>
        <time>2020-07-01T13:56:11Z</time>
      </trkpt>
      <trkpt lat="47.24434" lon="0.83798">
        <ele>84.27</ele>
        <time>2020-07-01T13:56:12Z</time>
      </trkpt>
      <trkpt lat="47.24439" lon="0.83783">
        <ele>84.81</ele>
        <time>2020-07-01T13:56:13Z</time>
      </trkpt>
      <trkpt lat="47.24444" lon="0.83768">
        <ele>85.36</ele>
        <time>2020-07-01T13:56:14Z</time>
      </trkpt>
      <trkpt lat="47.24451" lon="0.83754">
        <ele>84.74</ele>
        <time>2020-07-01T13:56:15Z</time>
      </trkpt>
      <trkpt lat="47.24459" lon="0.83741">
        <ele>85.19</ele>
        <time>2020-07-01T13:56:16Z</time>
      </trkpt>
      <trkpt lat="47.24466" lon="0.8373">
        <ele>86.68</ele>
        <time>2020-07-01T13:56:17Z</time>
      </trkpt>
      <trkpt lat="47.24473" lon="0.8372">
        <ele>87.72</ele>
        <time>2020-07-01T13:56:18Z</time>
      </trkpt>
      <trkpt lat="47.24478" lon="0.83711">
        <ele>85.92</ele>
        <time>2020-07-01T13:56:19Z</time>
      </trkpt>
      <trkpt lat="47.24482" lon="0.83703">
        <ele>84.48</ele>
        <time>2020-07-01T13:56:20Z</time>
      </trkpt>
      <trkpt lat="47.24487" lon="0.83694">
        <ele>82.63</ele>
        <time>2020-07-01T13:56:21Z</time>
      </trkpt>
      <trkpt lat="47.24492" lon="0.83685">
        <ele>80.15</ele>
        <time>2020-07-01T13:56:22Z</time>
      </trkpt>
      <trkpt lat="47.24497" lon="0.83675">
        <ele>78.08</ele>
        <time>2020-07-01T13:56:23Z</time>
      </trkpt>
      <trkpt lat="47.24503" lon="0.83665">
        <ele>76.95</ele>
        <time>2020-07-01T13:56:24Z</time>
      </trkpt>
      <trkpt lat="47.24509" lon="0.83652">
        <ele>77.2</ele>
        <time>2020-07-01T13:56:25Z</time>
      </trkpt>
      <trkpt lat="47.24515" lon="0.83639">
        <ele>77.46</ele>
        <time>2020-07-01T13:56:26Z</time>
      </trkpt>
      <trkpt lat="47.24522" lon="0.83626">
        <ele>78.25</ele>
        <time>2020-07-01T13:56:27Z</time>
      </trkpt>
      <trkpt lat="47.2453" lon="0.83613">
        <ele>78.38</ele>
        <time>2020-07-01T13:56:28Z</time>
      </trkpt>
      <trkpt lat="47.24537" lon="0.836">
        <ele>81.73</ele>
        <time>2020-07-01T13:56:29Z</time>
      </trkpt>
      <trkpt lat="47.24544" lon="0.83587">
        <ele>84.18</ele>
        <time>2020-07-01T13:56:30Z</time>
      </trkpt>
      <trkpt lat="47.24551" lon="0.83572">
        <ele>84.15</ele>
        <time>2020-07-01T13:56:31Z</time>
      </trkpt>
      <trkpt lat="47.24558" lon="0.83558">
        <ele>82.92</ele>
        <time>2020-07-01T13:56:32Z</time>
      </trkpt>
      <trkpt lat="47.24566" lon="0.83545">
        <ele>81.78</ele>
        <time>2020-07-01T13:56:33Z</time>
      </trkpt>
      <trkpt lat="47.24573" lon="0.83531">
        <ele>81.34</ele>
        <time>2020-07-01T13:56:34Z</time>
      </trkpt>
      <trkpt lat="47.24581" lon="0.83516">
        <ele>81.79</ele>
        <time>2020-07-01T13:56:35Z</time>
      </trkpt>
      <trkpt lat="47.24589" lon="0.83502">
        <ele>81.87</ele>
        <time>2020-07-01T13:56:36Z</time>
      </trkpt>
      <trkpt lat="47.24596" lon="0.83488">
        <ele>80.13</ele>
        <time>2020-07-01T13:56:37Z</time>
      </trkpt>
      <trkpt lat="47.24604" lon="0.83473">
        <ele>77.11</ele>
        <time>2020-07-01T13:56:38Z</time>
      </trkpt>
      <trkpt lat="47.24612" lon="0.83459">
        <ele>74.54</ele>
        <time>2020-07-01T13:56:39Z</time>
      </trkpt>
      <trkpt lat="47.24619" lon="0.83444">
        <ele>74.01</ele>
        <time>2020-07-01T13:56:40Z</time>
      </trkpt>
      <trkpt lat="47.24627" lon="0.83429">
        <ele>74.24</ele>
        <time>2020-07-01T13:56:41Z</time>
      </trkpt>
      <trkpt lat="47.24635" lon="0.83415">
        <ele>74.2</ele>
        <time>2020-07-01T13:56:42Z</time>
      </trkpt>
      <trkpt lat="47.24642" lon="0.83401">
        <ele>74.42</ele>
        <time>2020-07-01T13:56:42Z</time>
      </trkpt>
      <trkpt lat="47.24649" lon="0.83388">
        <ele>75.1</ele>
        <time>2020-07-01T13:56:43Z</time>
      </trkpt>
      <trkpt lat="47.24655" lon="0.83376">
        <ele>76.39</ele>
        <time>2020-07-01T13:56:44Z</time>
      </trkpt>
      <trkpt lat="47.24674" lon="0.83343">
        <ele>79.94</ele>
        <time>2020-07-01T13:56:47Z</time>
      </trkpt>
      <trkpt lat="47.24682" lon="0.83334">
        <ele>80.56</ele>
        <time>2020-07-01T13:56:49Z</time>
      </trkpt>
      <trkpt lat="47.2469" lon="0.83325">
        <ele>83.22</ele>
        <time>2020-07-01T13:56:50Z</time>
      </trkpt>
      <trkpt lat="47.247" lon="0.83316">
        <ele>87.47</ele>
        <time>2020-07-01T13:56:51Z</time>
      </trkpt>
      <trkpt lat="47.24709" lon="0.83306">
        <ele>90.87</ele>
        <time>2020-07-01T13:56:52Z</time>
      </trkpt>
      <trkpt lat="47.24719" lon="0.83297">
        <ele>90.89</ele>
        <time>2020-07-01T13:56:53Z</time>
      </trkpt>
      <trkpt lat="47.24729" lon="0.83287">
        <ele>88.97</ele>
        <time>2020-07-01T13:56:54Z</time>
      </trkpt>
      <trkpt lat="47.24739" lon="0.83277">
        <ele>86.08</ele>
        <time>2020-07-01T13:56:55Z</time>
      </trkpt>
      <trkpt lat="47.2475" lon="0.83266">
        <ele>81.73</ele>
        <time>2020-07-01T13:56:56Z</time>
      </trkpt>
      <trkpt lat="47.24761" lon="0.83256">
        <ele>81.44</ele>
        <time>2020-07-01T13:56:57Z</time>
      </trkpt>
      <trkpt lat="47.24772" lon="0.83245">
        <ele>81.15</ele>
        <time>2020-07-01T13:56:58Z</time>
      </trkpt>
      <trkpt lat="47.24783" lon="0.83234">
        <ele>80.12</ele>
        <time>2020-07-01T13:56:59Z</time>
      </trkpt>
      <trkpt lat="47.24794" lon="0.83224">
        <ele>78.3</ele>
        <time>2020-07-01T13:57:00Z</time>
      </trkpt>
      <trkpt lat="47.24805" lon="0.83212">
        <ele>76.32</ele>
        <time>2020-07-01T13:57:01Z</time>
      </trkpt>
      <trkpt lat="47.24816" lon="0.832">
        <ele>74.87</ele>
        <time>2020-07-01T13:57:02Z</time>
      </trkpt>
      <trkpt lat="47.24828" lon="0.83188">
        <ele>74.52</ele>
        <time>2020-07-01T13:57:03Z</time>
      </trkpt>
      <trkpt lat="47.24839" lon="0.83176">
        <ele>76.01</ele>
        <time>2020-07-01T13:57:04Z</time>
      </trkpt>
      <trkpt lat="47.24849" lon="0.83164">
        <ele>77.27</ele>
        <time>2020-07-01T13:57:05Z</time>
      </trkpt>
      <trkpt lat="47.2486" lon="0.83153">
        <ele>78.43</ele>
        <time>2020-07-01T13:57:06Z</time>
      </trkpt>
      <trkpt lat="47.2487" lon="0.83142">
        <ele>80.84</ele>
        <time>2020-07-01T13:57:07Z</time>
      </trkpt>
      <trkpt lat="47.2488" lon="0.8313">
        <ele>82.3</ele>
        <time>2020-07-01T13:57:08Z</time>
      </trkpt>
      <trkpt lat="47.2489" lon="0.83119">
        <ele>81.72</ele>
        <time>2020-07-01T13:57:09Z</time>
      </trkpt>
      <trkpt lat="47.249" lon="0.83109">
        <ele>83.4</ele>
        <time>2020-07-01T13:57:10Z</time>
      </trkpt>
      <trkpt lat="47.24909" lon="0.831">
        <ele>86.7</ele>
        <time>2020-07-01T13:57:11Z</time>
      </trkpt>
      <trkpt lat="47.24918" lon="0.83092">
        <ele>89.49</ele>
        <time>2020-07-01T13:57:12Z</time>
      </trkpt>
      <trkpt lat="47.24925" lon="0.83084">
        <ele>90.56</ele>
        <time>2020-07-01T13:57:13Z</time>
      </trkpt>
      <trkpt lat="47.2493" lon="0.83078">
        <ele>89.24</ele>
        <time>2020-07-01T13:57:14Z</time>
      </trkpt>
      <trkpt lat="47.24933" lon="0.83073">
        <ele>87.76</ele>
        <time>2020-07-01T13:57:15Z</time>
      </trkpt>
      <trkpt lat="47.24934" lon="0.83068">
        <ele>86.14</ele>
        <time>2020-07-01T13:57:16Z</time>
      </trkpt>
      <trkpt lat="47.24934" lon="0.83064">
        <ele>84.81</ele>
        <time>2020-07-01T13:57:17Z</time>
      </trkpt>
      <trkpt lat="47.24934" lon="0.83057">
        <ele>82.48</ele>
        <time>2020-07-01T13:57:18Z</time>
      </trkpt>
      <trkpt lat="47.2493" lon="0.83047">
        <ele>83.23</ele>
        <time>2020-07-01T13:57:19Z</time>
      </trkpt>
      <trkpt lat="47.24923" lon="0.83038">
        <ele>84.53</ele>
        <time>2020-07-01T13:57:20Z</time>
      </trkpt>
      <trkpt lat="47.24917" lon="0.83029">
        <ele>85.82</ele>
        <time>2020-07-01T13:57:21Z</time>
      </trkpt>
      <trkpt lat="47.24911" lon="0.8302">
        <ele>86.01</ele>
        <time>2020-07-01T13:57:21Z</time>
      </trkpt>
      <trkpt lat="47.24907" lon="0.83013">
        <ele>86.21</ele>
        <time>2020-07-01T13:57:22Z</time>
      </trkpt>
      <trkpt lat="47.24903" lon="0.8301">
        <ele>86.12</ele>
        <time>2020-07-01T13:57:23Z</time>
      </trkpt>
    </trkseg>
  </trk>
</gpx>